Time,TemperatureF,DewpointF,PressureIn,WindDirection,WindDirectionDegrees,WindSpeedMPH,WindSpeedGustMPH,Humidity,HourlyPrecipIn,Conditions,Clouds,dailyrainin,SoftwareType,DateUTC
2013-02-19 00:00:00,60.3,32.5,30.06,SW,225,4.0,4.0,35,0.00,,,0.00,VWS V14.01,2013-02-19 06:00:00,
2013-02-19 00:01:00,60.8,34.4,30.03,SE,135,7.4,7.8,37,0.00,,,0.00,VWS V14.01,2013-02-19 06:01:00,
2013-02-19 00:02:00,60.3,32.5,30.06,SE,135,3.6,7.4,35,0.00,,,0.00,VWS V14.01,2013-02-19 06:02:00,
2013-02-19 00:03:00,60.3,32.5,30.06,South,180,10.3,10.3,35,0.00,,,0.00,VWS V14.01,2013-02-19 06:03:00,
2013-02-19 00:04:00,60.3,32.5,30.06,SSE,158,3.8,10.3,35,0.00,,,0.00,VWS V14.01,2013-02-19 06:04:00,
2013-02-19 00:05:00,60.3,32.5,30.06,SSE,158,2.9,3.8,35,0.00,,,0.00,VWS V14.01,2013-02-19 06:05:00,
2013-02-19 00:06:00,60.8,34.4,30.03,SSE,158,6.3,10.3,37,0.00,,,0.00,VWS V14.01,2013-02-19 06:06:00,
2013-02-19 00:07:00,60.3,32.5,30.06,SW,225,3.4,8.1,35,0.00,,,0.00,VWS V14.01,2013-02-19 06:07:00,
2013-02-19 00:08:00,60.3,32.5,30.06,SE,135,2.7,4.0,35,0.00,,,0.00,VWS V14.01,2013-02-19 06:08:00,
2013-02-19 00:09:00,60.3,32.5,30.06,ESE,112,7.2,7.2,35,0.00,,,0.00,VWS V14.01,2013-02-19 06:09:00,
2013-02-19 00:10:00,60.3,32.5,30.06,SSW,202,5.4,7.2,35,0.00,,,0.00,VWS V14.01,2013-02-19 06:10:00,
2013-02-19 00:11:00,61.0,34.5,30.03,South,180,3.6,12.3,37,0.00,,,0.00,VWS V14.01,2013-02-19 06:11:00,
2013-02-19 00:12:00,60.3,32.5,30.06,SSW,202,2.5,5.8,35,0.00,,,0.00,VWS V14.01,2013-02-19 06:12:00,
2013-02-19 00:13:00,60.3,32.5,30.06,SSW,202,1.6,3.1,35,0.00,,,0.00,VWS V14.01,2013-02-19 06:13:00,
2013-02-19 00:14:00,60.3,32.5,30.06,SE,135,6.0,13.2,35,0.00,,,0.00,VWS V14.01,2013-02-19 06:14:00,
2013-02-19 00:15:00,60.1,32.4,30.06,SE,135,8.5,11.0,35,0.00,,,0.00,VWS V14.01,2013-02-19 06:15:00,
2013-02-19 00:16:00,61.0,34.5,30.03,SSW,202,7.6,7.6,37,0.00,,,0.00,VWS V14.01,2013-02-19 06:16:00,
2013-02-19 00:17:00,60.1,32.4,30.06,SSW,202,4.0,6.5,35,0.00,,,0.00,VWS V14.01,2013-02-19 06:17:00,
2013-02-19 00:18:00,60.1,32.4,30.06,SSW,202,3.4,4.0,35,0.00,,,0.00,VWS V14.01,2013-02-19 06:18:00,
2013-02-19 00:19:00,60.1,32.4,30.06,East,90,9.4,9.4,35,0.00,,,0.00,VWS V14.01,2013-02-19 06:19:00,
2013-02-19 00:20:00,60.1,32.4,30.06,ESE,112,3.6,12.3,35,0.00,,,0.00,VWS V14.01,2013-02-19 06:20:00,
2013-02-19 00:21:00,61.2,34.7,30.00,SSE,158,7.8,7.8,37,0.00,,,0.00,VWS V14.01,2013-02-19 06:21:00,
2013-02-19 00:22:00,60.1,32.4,30.06,South,180,4.3,6.5,35,0.00,,,0.00,VWS V14.01,2013-02-19 06:22:00,
2013-02-19 00:23:00,60.1,32.4,30.06,SSW,202,4.9,4.9,35,0.00,,,0.00,VWS V14.01,2013-02-19 06:23:00,
2013-02-19 00:24:00,60.1,32.4,30.06,SSE,158,4.3,5.4,35,0.00,,,0.00,VWS V14.01,2013-02-19 06:24:00,
2013-02-19 00:25:00,60.1,32.4,30.06,SSE,158,2.0,4.3,35,0.00,,,0.00,VWS V14.01,2013-02-19 06:25:00,
2013-02-19 00:26:00,61.2,34.7,30.00,SSE,158,2.7,5.6,37,0.00,,,0.00,VWS V14.01,2013-02-19 06:26:00,
2013-02-19 00:27:00,60.3,32.5,30.06,WSW,248,6.3,6.3,35,0.00,,,0.00,VWS V14.01,2013-02-19 06:27:00,
2013-02-19 00:28:00,60.1,32.4,30.06,SSW,202,4.3,6.3,35,0.00,,,0.00,VWS V14.01,2013-02-19 06:28:00,
2013-02-19 00:29:00,60.1,32.4,30.06,SSE,158,8.7,9.2,35,0.00,,,0.00,VWS V14.01,2013-02-19 06:29:00,
2013-02-19 00:30:00,60.3,33.2,30.06,SE,135,4.0,8.7,36,0.00,,,0.00,VWS V14.01,2013-02-19 06:30:00,
2013-02-19 00:31:00,61.3,35.5,30.00,South,180,4.3,4.3,38,0.00,,,0.00,VWS V14.01,2013-02-19 06:31:00,
2013-02-19 00:32:00,60.1,33.1,30.06,ESE,112,6.0,6.9,36,0.00,,,0.00,VWS V14.01,2013-02-19 06:32:00,
2013-02-19 00:33:00,60.1,32.4,30.06,SSE,158,3.8,7.4,35,0.00,,,0.00,VWS V14.01,2013-02-19 06:33:00,
2013-02-19 00:34:00,60.1,33.1,30.06,East,90,2.7,3.8,36,0.00,,,0.00,VWS V14.01,2013-02-19 06:34:00,
2013-02-19 00:35:00,60.1,32.4,30.06,SW,225,1.6,4.0,35,0.00,,,0.00,VWS V14.01,2013-02-19 06:35:00,
2013-02-19 00:36:00,61.3,35.5,30.03,SSW,202,3.1,8.1,38,0.00,,,0.00,VWS V14.01,2013-02-19 06:36:00,
2013-02-19 00:37:00,60.1,32.4,30.06,ESE,112,4.3,8.1,35,0.00,,,0.00,VWS V14.01,2013-02-19 06:37:00,
2013-02-19 00:38:00,60.1,33.1,30.06,SSE,158,4.7,8.5,36,0.00,,,0.00,VWS V14.01,2013-02-19 06:38:00,
2013-02-19 00:39:00,60.1,32.4,30.06,ESE,112,6.7,6.7,35,0.00,,,0.00,VWS V14.01,2013-02-19 06:39:00,
2013-02-19 00:40:00,60.1,33.1,30.03,South,180,2.0,6.7,36,0.00,,,0.00,VWS V14.01,2013-02-19 06:40:00,
2013-02-19 00:41:00,61.5,35.7,30.03,SSW,202,2.7,6.3,38,0.00,,,0.00,VWS V14.01,2013-02-19 06:41:00,
2013-02-19 00:42:00,60.1,33.1,30.03,SSE,158,2.5,6.5,36,0.00,,,0.00,VWS V14.01,2013-02-19 06:42:00,
2013-02-19 00:43:00,60.1,33.1,30.03,SSE,158,8.7,8.7,36,0.00,,,0.00,VWS V14.01,2013-02-19 06:43:00,
2013-02-19 00:44:00,60.1,33.1,30.03,SW,225,4.0,8.7,36,0.00,,,0.00,VWS V14.01,2013-02-19 06:44:00,
2013-02-19 00:45:00,60.1,33.1,30.03,East,90,2.5,7.6,36,0.00,,,0.00,VWS V14.01,2013-02-19 06:45:00,
2013-02-19 00:46:00,61.5,35.7,30.03,SE,135,8.7,8.7,38,0.00,,,0.00,VWS V14.01,2013-02-19 06:46:00,
2013-02-19 00:47:00,60.1,33.1,30.03,ESE,112,5.6,8.5,36,0.00,,,0.00,VWS V14.01,2013-02-19 06:47:00,
2013-02-19 00:48:00,60.1,33.1,30.03,SSW,202,4.9,9.8,36,0.00,,,0.00,VWS V14.01,2013-02-19 06:48:00,
2013-02-19 00:49:00,60.1,33.1,30.03,East,90,4.0,4.9,36,0.00,,,0.00,VWS V14.01,2013-02-19 06:49:00,
2013-02-19 00:50:00,60.1,33.1,30.03,SSW,202,5.8,5.8,36,0.00,,,0.00,VWS V14.01,2013-02-19 06:50:00,
2013-02-19 00:51:00,61.5,35.7,30.03,ESE,112,7.4,13.0,38,0.00,,,0.00,VWS V14.01,2013-02-19 06:51:00,
2013-02-19 00:52:00,60.3,33.2,30.03,SSW,202,6.3,6.3,36,0.00,,,0.00,VWS V14.01,2013-02-19 06:52:00,
2013-02-19 00:53:00,60.3,33.2,30.03,SSE,158,6.3,7.8,36,0.00,,,0.00,VWS V14.01,2013-02-19 06:53:00,
2013-02-19 00:54:00,60.3,33.2,30.03,SSW,202,4.0,6.3,36,0.00,,,0.00,VWS V14.01,2013-02-19 06:54:00,
2013-02-19 00:55:00,60.3,33.2,30.03,SSW,202,5.6,5.6,36,0.00,,,0.00,VWS V14.01,2013-02-19 06:55:00,
2013-02-19 00:56:00,61.7,35.9,30.03,SSW,202,5.4,7.8,38,0.00,,,0.00,VWS V14.01,2013-02-19 06:56:00,
2013-02-19 00:57:00,60.3,33.2,30.03,SSE,158,3.1,6.5,36,0.00,,,0.00,VWS V14.01,2013-02-19 06:57:00,
2013-02-19 00:58:00,60.3,33.2,30.03,SE,135,12.1,12.1,36,0.00,,,0.00,VWS V14.01,2013-02-19 06:58:00,
2013-02-19 00:59:00,60.3,33.2,30.03,SE,135,7.4,12.1,36,0.00,,,0.00,VWS V14.01,2013-02-19 06:59:00,
2013-02-19 01:00:00,60.4,34.1,30.03,ESE,112,4.3,7.4,37,0.00,,,0.00,VWS V14.01,2013-02-19 07:00:00,
2013-02-19 01:01:00,61.7,35.9,30.03,ESE,112,5.8,7.2,38,0.00,,,0.00,VWS V14.01,2013-02-19 07:01:00,
2013-02-19 01:02:00,60.4,34.1,30.03,ESE,112,7.6,7.6,37,0.00,,,0.00,VWS V14.01,2013-02-19 07:02:00,
2013-02-19 01:03:00,60.4,34.1,30.03,South,180,7.4,7.6,37,0.00,,,0.00,VWS V14.01,2013-02-19 07:03:00,
2013-02-19 01:04:00,60.4,33.4,30.03,South,180,4.3,7.4,36,0.00,,,0.00,VWS V14.01,2013-02-19 07:04:00,
2013-02-19 01:05:00,60.4,33.4,30.03,SSE,158,2.9,4.3,36,0.00,,,0.00,VWS V14.01,2013-02-19 07:05:00,
2013-02-19 01:06:00,61.9,36.0,30.03,SSE,158,5.4,5.4,38,0.00,,,0.00,VWS V14.01,2013-02-19 07:06:00,
2013-02-19 01:07:00,60.4,33.4,30.03,South,180,4.0,4.0,36,0.00,,,0.00,VWS V14.01,2013-02-19 07:07:00,
2013-02-19 01:08:00,60.4,34.1,30.03,SSE,158,5.8,5.8,37,0.00,,,0.00,VWS V14.01,2013-02-19 07:08:00,
2013-02-19 01:09:00,60.6,34.2,30.03,SE,135,4.9,5.8,37,0.00,,,0.00,VWS V14.01,2013-02-19 07:09:00,
2013-02-19 01:10:00,60.4,33.4,30.03,South,180,6.0,6.0,36,0.00,,,0.00,VWS V14.01,2013-02-19 07:10:00,
2013-02-19 01:11:00,61.9,36.0,30.03,SE,135,10.5,10.5,38,0.00,,,0.00,VWS V14.01,2013-02-19 07:11:00,
2013-02-19 01:12:00,60.6,34.2,30.03,SSE,158,5.4,10.3,37,0.00,,,0.00,VWS V14.01,2013-02-19 07:12:00,
2013-02-19 01:15:00,60.6,34.2,30.03,SSE,158,3.1,8.5,37,0.00,,,0.00,VWS V14.01,2013-02-19 07:15:00,
2013-02-19 01:16:00,61.9,36.0,30.03,South,180,7.8,7.8,38,0.00,,,0.00,VWS V14.01,2013-02-19 07:16:00,
2013-02-19 01:17:00,60.6,34.2,30.03,SE,135,6.0,6.0,37,0.00,,,0.00,VWS V14.01,2013-02-19 07:17:00,
2013-02-19 01:18:00,60.6,34.2,30.03,SSW,202,2.0,6.0,37,0.00,,,0.00,VWS V14.01,2013-02-19 07:18:00,
2013-02-19 01:19:00,60.6,34.2,30.03,SE,135,7.6,8.1,37,0.00,,,0.00,VWS V14.01,2013-02-19 07:19:00,
2013-02-19 01:20:00,60.6,34.2,30.03,SSE,158,3.6,7.6,37,0.00,,,0.00,VWS V14.01,2013-02-19 07:20:00,
2013-02-19 01:21:00,62.1,36.2,30.03,SSW,202,10.7,10.7,38,0.00,,,0.00,VWS V14.01,2013-02-19 07:21:00,
2013-02-19 01:22:00,60.8,34.4,30.03,SSE,158,3.1,9.0,37,0.00,,,0.00,VWS V14.01,2013-02-19 07:22:00,
2013-02-19 01:23:00,60.6,34.2,30.03,ENE,68,3.1,13.4,37,0.00,,,0.00,VWS V14.01,2013-02-19 07:23:00,
2013-02-19 01:24:00,60.6,34.2,30.03,SSW,202,3.4,3.8,37,0.00,,,0.00,VWS V14.01,2013-02-19 07:24:00,
2013-02-19 01:25:00,60.8,34.4,30.03,SSW,202,7.8,8.5,37,0.00,,,0.00,VWS V14.01,2013-02-19 07:25:00,
2013-02-19 01:26:00,62.1,36.2,30.03,SE,135,2.9,4.0,38,0.00,,,0.00,VWS V14.01,2013-02-19 07:26:00,
2013-02-19 01:27:00,60.8,34.4,30.03,ESE,112,13.6,13.6,37,0.00,,,0.00,VWS V14.01,2013-02-19 07:27:00,
2013-02-19 01:28:00,60.8,34.4,30.03,SSE,158,4.3,13.6,37,0.00,,,0.00,VWS V14.01,2013-02-19 07:28:00,
2013-02-19 01:29:00,60.8,34.4,30.03,SSE,158,4.9,11.0,37,0.00,,,0.00,VWS V14.01,2013-02-19 07:29:00,
2013-02-19 01:30:00,60.8,34.4,30.03,ESE,112,7.6,7.6,37,0.00,,,0.00,VWS V14.01,2013-02-19 07:30:00,
2013-02-19 01:31:00,62.1,37.5,30.00,ESE,112,3.8,3.8,40,0.00,,,0.00,VWS V14.01,2013-02-19 07:31:00,
2013-02-19 01:32:00,61.0,34.5,30.03,SSE,158,4.3,10.3,37,0.00,,,0.00,VWS V14.01,2013-02-19 07:32:00,
2013-02-19 01:33:00,61.0,34.5,30.03,SSW,202,4.3,5.8,37,0.00,,,0.00,VWS V14.01,2013-02-19 07:33:00,
2013-02-19 01:34:00,61.0,34.5,30.03,South,180,6.3,7.4,37,0.00,,,0.00,VWS V14.01,2013-02-19 07:34:00,
2013-02-19 01:35:00,61.0,34.5,30.03,SSE,158,12.3,12.3,37,0.00,,,0.00,VWS V14.01,2013-02-19 07:35:00,
2013-02-19 01:36:00,62.1,36.8,30.00,ESE,112,4.0,7.6,39,0.00,,,0.00,VWS V14.01,2013-02-19 07:36:00,
2013-02-19 01:37:00,61.0,34.5,30.03,SSE,158,5.6,7.6,37,0.00,,,0.00,VWS V14.01,2013-02-19 07:37:00,
2013-02-19 01:38:00,61.0,34.5,30.03,SSE,158,5.6,5.6,37,0.00,,,0.00,VWS V14.01,2013-02-19 07:38:00,
2013-02-19 01:39:00,61.0,34.5,30.03,SSW,202,3.6,5.6,37,0.00,,,0.00,VWS V14.01,2013-02-19 07:39:00,
2013-02-19 01:40:00,61.0,34.5,30.03,South,180,3.6,3.6,37,0.00,,,0.00,VWS V14.01,2013-02-19 07:40:00,
2013-02-19 01:41:00,62.1,37.5,30.00,SSE,158,8.1,8.1,40,0.00,,,0.00,VWS V14.01,2013-02-19 07:41:00,
2013-02-19 01:42:00,61.0,34.5,30.00,SW,225,6.0,7.6,37,0.00,,,0.00,VWS V14.01,2013-02-19 07:42:00,
2013-02-19 01:44:00,61.0,34.5,30.00,SSE,158,11.0,11.0,37,0.00,,,0.00,VWS V14.01,2013-02-19 07:44:00,
2013-02-19 01:45:00,61.0,34.5,30.00,ESE,112,3.8,11.0,37,0.00,,,0.00,VWS V14.01,2013-02-19 07:45:00,
2013-02-19 01:46:00,62.2,38.9,30.00,SE,135,6.5,6.5,42,0.00,,,0.00,VWS V14.01,2013-02-19 07:46:00,
2013-02-19 01:47:00,61.2,34.7,30.00,SSE,158,7.8,7.8,37,0.00,,,0.00,VWS V14.01,2013-02-19 07:47:00,
2013-02-19 01:48:00,61.2,34.7,30.00,SE,135,3.8,7.8,37,0.00,,,0.00,VWS V14.01,2013-02-19 07:48:00,
2013-02-19 01:49:00,61.2,34.7,30.00,SSE,158,14.1,14.1,37,0.00,,,0.00,VWS V14.01,2013-02-19 07:49:00,
2013-02-19 01:50:00,61.2,34.7,30.00,SSW,202,5.6,14.1,37,0.00,,,0.00,VWS V14.01,2013-02-19 07:50:00,
2013-02-19 01:51:00,62.2,38.9,29.97,SE,135,6.3,8.7,42,0.00,,,0.00,VWS V14.01,2013-02-19 07:51:00,
2013-02-19 01:52:00,61.2,34.7,30.00,SE,135,4.3,4.3,37,0.00,,,0.00,VWS V14.01,2013-02-19 07:52:00,
2013-02-19 01:53:00,61.3,34.9,30.00,ESE,112,3.1,5.4,37,0.00,,,0.00,VWS V14.01,2013-02-19 07:53:00,
2013-02-19 01:54:00,61.3,34.9,30.00,South,180,3.8,8.7,37,0.00,,,0.00,VWS V14.01,2013-02-19 07:54:00,
2013-02-19 01:55:00,61.3,34.9,30.00,South,180,3.8,3.8,37,0.00,,,0.00,VWS V14.01,2013-02-19 07:55:00,
2013-02-19 01:56:00,62.2,39.5,29.97,SSE,158,5.4,7.2,43,0.00,,,0.00,VWS V14.01,2013-02-19 07:56:00,
2013-02-19 01:57:00,61.3,34.9,30.03,SSW,202,6.3,7.4,37,0.00,,,0.00,VWS V14.01,2013-02-19 07:57:00,
2013-02-19 01:58:00,61.3,34.9,30.03,SSE,158,6.3,14.5,37,0.00,,,0.00,VWS V14.01,2013-02-19 07:58:00,
2013-02-19 01:59:00,61.3,34.9,30.03,SSW,202,3.8,8.1,37,0.00,,,0.00,VWS V14.01,2013-02-19 07:59:00,
2013-02-19 02:00:00,61.3,34.9,30.03,SSW,202,8.1,11.9,37,0.00,,,0.00,VWS V14.01,2013-02-19 08:00:00,
2013-02-19 02:01:00,62.4,40.2,29.97,SSE,158,3.1,8.1,44,0.00,,,0.00,VWS V14.01,2013-02-19 08:01:00,
2013-02-19 02:03:00,61.3,34.9,30.03,SW,225,5.4,5.4,37,0.00,,,0.00,VWS V14.01,2013-02-19 08:03:00,
2013-02-19 02:04:00,61.5,35.7,30.03,SSE,158,5.6,7.8,38,0.00,,,0.00,VWS V14.01,2013-02-19 08:04:00,
2013-02-19 02:05:00,61.5,35.7,30.03,SSW,202,6.3,6.3,38,0.00,,,0.00,VWS V14.01,2013-02-19 08:05:00,
2013-02-19 02:06:00,62.6,41.0,29.97,South,180,5.6,8.7,45,0.00,,,0.00,VWS V14.01,2013-02-19 08:06:00,
2013-02-19 02:07:00,61.5,35.7,30.03,SSW,202,4.9,7.4,38,0.00,,,0.00,VWS V14.01,2013-02-19 08:07:00,
2013-02-19 02:08:00,61.5,35.7,30.03,SE,135,13.0,13.0,38,0.00,,,0.00,VWS V14.01,2013-02-19 08:08:00,
2013-02-19 02:10:00,61.5,35.0,30.03,South,180,8.7,8.7,37,0.00,,,0.00,VWS V14.01,2013-02-19 08:10:00,
2013-02-19 02:11:00,62.6,41.0,29.97,SSW,202,5.4,12.3,45,0.00,,,0.00,VWS V14.01,2013-02-19 08:11:00,
2013-02-19 02:12:00,61.5,35.7,30.03,SE,135,2.9,10.1,38,0.00,,,0.00,VWS V14.01,2013-02-19 08:12:00,
2013-02-19 02:13:00,61.5,35.0,30.03,SSE,158,7.8,7.8,37,0.00,,,0.00,VWS V14.01,2013-02-19 08:13:00,
2013-02-19 02:14:00,61.7,35.9,30.03,SSW,202,6.0,10.7,38,0.00,,,0.00,VWS V14.01,2013-02-19 08:14:00,
2013-02-19 02:15:00,61.5,35.7,30.03,SSE,158,13.0,13.0,38,0.00,,,0.00,VWS V14.01,2013-02-19 08:15:00,
2013-02-19 02:16:00,62.8,41.2,30.00,SSE,158,7.6,9.8,45,0.00,,,0.00,VWS V14.01,2013-02-19 08:16:00,
2013-02-19 02:17:00,61.7,35.9,30.03,SE,135,5.6,7.4,38,0.00,,,0.00,VWS V14.01,2013-02-19 08:17:00,
2013-02-19 02:18:00,61.7,35.9,30.03,SSE,158,7.4,10.3,38,0.00,,,0.00,VWS V14.01,2013-02-19 08:18:00,
2013-02-19 02:19:00,61.7,35.9,30.03,SSE,158,7.6,7.6,38,0.00,,,0.00,VWS V14.01,2013-02-19 08:19:00,
2013-02-19 02:20:00,61.7,35.2,30.03,SSW,202,7.6,8.5,37,0.00,,,0.00,VWS V14.01,2013-02-19 08:20:00,
2013-02-19 02:21:00,63.0,42.4,30.00,South,180,5.4,13.0,47,0.00,,,0.00,VWS V14.01,2013-02-19 08:21:00,
2013-02-19 02:22:00,61.7,35.9,30.03,SSE,158,6.3,10.3,38,0.00,,,0.00,VWS V14.01,2013-02-19 08:22:00,
2013-02-19 02:23:00,61.7,35.9,30.03,SSW,202,7.6,8.7,38,0.00,,,0.00,VWS V14.01,2013-02-19 08:23:00,
2013-02-19 02:26:00,63.0,42.4,30.00,SE,135,11.0,14.3,47,0.00,,,0.00,VWS V14.01,2013-02-19 08:26:00,
2013-02-19 02:27:00,61.7,35.9,30.03,SW,225,5.8,10.1,38,0.00,,,0.00,VWS V14.01,2013-02-19 08:27:00,
2013-02-19 02:28:00,61.7,35.9,30.03,SSE,158,7.2,10.3,38,0.00,,,0.00,VWS V14.01,2013-02-19 08:28:00,
2013-02-19 02:29:00,61.7,35.9,30.03,SSW,202,7.6,7.6,38,0.00,,,0.00,VWS V14.01,2013-02-19 08:29:00,
2013-02-19 02:30:00,61.9,36.0,30.03,SSW,202,2.7,7.6,38,0.00,,,0.00,VWS V14.01,2013-02-19 08:30:00,
2013-02-19 02:31:00,63.0,43.0,29.97,SSE,158,5.4,5.4,48,0.00,,,0.00,VWS V14.01,2013-02-19 08:31:00,
2013-02-19 02:32:00,61.9,36.0,30.03,SSE,158,11.0,11.0,38,0.00,,,0.00,VWS V14.01,2013-02-19 08:32:00,
2013-02-19 02:33:00,61.9,36.0,30.03,SSW,202,4.9,11.0,38,0.00,,,0.00,VWS V14.01,2013-02-19 08:33:00,
2013-02-19 02:34:00,61.9,36.0,30.03,ESE,112,7.8,7.8,38,0.00,,,0.00,VWS V14.01,2013-02-19 08:34:00,
2013-02-19 02:35:00,61.9,36.0,30.03,SSE,158,4.9,7.8,38,0.00,,,0.00,VWS V14.01,2013-02-19 08:35:00,
2013-02-19 02:36:00,63.0,43.0,29.97,SSW,202,5.8,6.0,48,0.00,,,0.00,VWS V14.01,2013-02-19 08:36:00,
2013-02-19 02:37:00,61.9,36.0,30.03,SSE,158,7.2,7.6,38,0.00,,,0.00,VWS V14.01,2013-02-19 08:37:00,
2013-02-19 02:38:00,61.9,36.0,30.03,SSW,202,7.8,11.0,38,0.00,,,0.00,VWS V14.01,2013-02-19 08:38:00,
2013-02-19 02:39:00,61.9,36.0,30.03,SE,135,6.3,7.8,38,0.00,,,0.00,VWS V14.01,2013-02-19 08:39:00,
2013-02-19 02:40:00,61.9,36.0,30.03,SSW,202,5.6,7.4,38,0.00,,,0.00,VWS V14.01,2013-02-19 08:40:00,
2013-02-19 02:41:00,63.1,43.7,29.97,South,180,4.0,8.5,49,0.00,,,0.00,VWS V14.01,2013-02-19 08:41:00,
2013-02-19 02:42:00,61.9,36.0,30.03,East,90,10.3,10.3,38,0.00,,,0.00,VWS V14.01,2013-02-19 08:42:00,
2013-02-19 02:43:00,62.1,36.2,30.03,South,180,4.9,13.0,38,0.00,,,0.00,VWS V14.01,2013-02-19 08:43:00,
2013-02-19 02:44:00,62.1,36.2,30.03,SSE,158,6.0,6.0,38,0.00,,,0.00,VWS V14.01,2013-02-19 08:44:00,
2013-02-19 02:45:00,62.1,36.2,30.03,SSE,158,2.7,10.7,38,0.00,,,0.00,VWS V14.01,2013-02-19 08:45:00,
2013-02-19 02:46:00,63.1,43.7,29.97,SE,135,6.0,7.2,49,0.00,,,0.00,VWS V14.01,2013-02-19 08:46:00,
2013-02-19 02:47:00,62.1,36.2,30.03,SE,135,9.8,9.8,38,0.00,,,0.00,VWS V14.01,2013-02-19 08:47:00,
2013-02-19 02:48:00,62.1,36.8,30.03,SSW,202,4.9,9.8,39,0.00,,,0.00,VWS V14.01,2013-02-19 08:48:00,
2013-02-19 02:49:00,62.1,36.2,30.03,SW,225,3.8,7.4,38,0.00,,,0.00,VWS V14.01,2013-02-19 08:49:00,
2013-02-19 02:50:00,62.1,36.2,30.03,SSW,202,3.4,8.1,38,0.00,,,0.00,VWS V14.01,2013-02-19 08:50:00,
2013-02-19 02:51:00,63.1,44.2,29.97,SSE,158,5.4,11.0,50,0.00,,,0.00,VWS V14.01,2013-02-19 08:51:00,
2013-02-19 02:52:00,62.1,36.2,30.03,SE,135,3.1,5.8,38,0.00,,,0.00,VWS V14.01,2013-02-19 08:52:00,
2013-02-19 02:53:00,62.1,36.8,30.03,SE,135,4.9,4.9,39,0.00,,,0.00,VWS V14.01,2013-02-19 08:53:00,
2013-02-19 02:54:00,62.1,37.5,30.03,SSW,202,2.9,4.9,40,0.00,,,0.00,VWS V14.01,2013-02-19 08:54:00,
2013-02-19 02:55:00,62.1,36.8,30.00,East,90,2.7,9.6,39,0.00,,,0.00,VWS V14.01,2013-02-19 08:55:00,
2013-02-19 02:56:00,63.1,44.7,29.97,SSE,158,4.7,4.7,51,0.00,,,0.00,VWS V14.01,2013-02-19 08:56:00,
2013-02-19 02:57:00,62.1,36.8,30.00,SSW,202,10.5,10.5,39,0.00,,,0.00,VWS V14.01,2013-02-19 08:57:00,
2013-02-19 02:58:00,62.1,36.8,30.00,SE,135,5.6,10.5,39,0.00,,,0.00,VWS V14.01,2013-02-19 08:58:00,
2013-02-19 02:59:00,62.1,36.8,30.00,SSE,158,4.0,8.7,39,0.00,,,0.00,VWS V14.01,2013-02-19 08:59:00,
2013-02-19 03:00:00,62.1,36.8,30.00,SSW,202,6.3,6.3,39,0.00,,,0.00,VWS V14.01,2013-02-19 09:00:00,
2013-02-19 03:01:00,63.1,44.7,29.97,SSW,202,3.8,6.9,51,0.00,,,0.00,VWS V14.01,2013-02-19 09:01:00,
2013-02-19 03:02:00,62.1,37.5,30.00,SSW,202,4.7,10.1,40,0.00,,,0.00,VWS V14.01,2013-02-19 09:02:00,
2013-02-19 03:03:00,62.1,37.5,30.00,SSE,158,12.1,12.1,40,0.00,,,0.00,VWS V14.01,2013-02-19 09:03:00,
2013-02-19 03:04:00,62.1,38.1,30.00,SSW,202,2.9,12.1,41,0.00,,,0.00,VWS V14.01,2013-02-19 09:04:00,
2013-02-19 03:05:00,62.1,37.5,30.00,SSW,202,7.2,7.2,40,0.00,,,0.00,VWS V14.01,2013-02-19 09:05:00,
2013-02-19 03:06:00,63.1,47.2,29.97,ESE,112,6.0,6.0,56,0.00,,,0.00,VWS V14.01,2013-02-19 09:06:00,
2013-02-19 03:07:00,62.2,38.3,30.00,SE,135,5.8,7.6,41,0.00,,,0.00,VWS V14.01,2013-02-19 09:07:00,
2013-02-19 03:08:00,62.2,38.3,30.00,ESE,112,8.5,8.5,41,0.00,,,0.00,VWS V14.01,2013-02-19 09:08:00,
2013-02-19 03:09:00,62.1,37.5,30.00,SE,135,4.0,12.3,40,0.00,,,0.00,VWS V14.01,2013-02-19 09:09:00,
2013-02-19 03:11:00,63.1,48.1,29.97,WSW,248,6.0,7.2,58,0.00,,,0.00,VWS V14.01,2013-02-19 09:11:00,
2013-02-19 03:12:00,62.2,39.5,29.97,SSW,202,3.6,6.0,43,0.00,,,0.00,VWS V14.01,2013-02-19 09:12:00,
2013-02-19 03:13:00,62.2,39.5,29.97,ESE,112,6.0,6.0,43,0.00,,,0.00,VWS V14.01,2013-02-19 09:13:00,
2013-02-19 03:14:00,62.2,38.9,29.97,South,180,4.7,10.1,42,0.00,,,0.00,VWS V14.01,2013-02-19 09:14:00,
2013-02-19 03:15:00,62.2,39.5,29.97,SSW,202,8.7,8.7,43,0.00,,,0.00,VWS V14.01,2013-02-19 09:15:00,
2013-02-19 03:16:00,63.0,49.3,29.97,SSW,202,3.8,3.8,61,0.04,,,0.04,VWS V14.01,2013-02-19 09:16:00,
2013-02-19 03:17:00,62.2,39.5,29.97,ESE,112,8.5,19.2,43,0.00,,,0.00,VWS V14.01,2013-02-19 09:17:00,
2013-02-19 03:18:00,62.2,39.5,29.97,ESE,112,7.4,11.0,43,0.00,,,0.00,VWS V14.01,2013-02-19 09:18:00,
2013-02-19 03:19:00,62.2,39.5,29.97,SSW,202,10.1,10.1,43,0.00,,,0.00,VWS V14.01,2013-02-19 09:19:00,
2013-02-19 03:20:00,62.2,39.5,29.97,SSE,158,7.2,10.5,43,0.00,,,0.00,VWS V14.01,2013-02-19 09:20:00,
2013-02-19 03:21:00,63.0,49.8,29.97,SW,225,6.0,6.0,62,0.04,,,0.04,VWS V14.01,2013-02-19 09:21:00,
2013-02-19 03:22:00,62.4,40.2,29.97,SE,135,5.8,6.5,44,0.00,,,0.00,VWS V14.01,2013-02-19 09:22:00,
2013-02-19 03:23:00,62.4,40.2,29.97,SE,135,12.1,12.1,44,0.00,,,0.00,VWS V14.01,2013-02-19 09:23:00,
2013-02-19 03:24:00,62.4,40.2,29.97,ENE,68,6.5,16.8,44,0.00,,,0.00,VWS V14.01,2013-02-19 09:24:00,
2013-02-19 03:25:00,62.4,40.2,29.97,South,180,8.1,8.1,44,0.00,,,0.00,VWS V14.01,2013-02-19 09:25:00,
2013-02-19 03:26:00,62.6,50.3,29.97,SSE,158,7.2,7.2,64,0.04,,,0.04,VWS V14.01,2013-02-19 09:26:00,
2013-02-19 03:28:00,62.6,40.4,29.97,SSW,202,13.9,19.0,44,0.00,,,0.00,VWS V14.01,2013-02-19 09:28:00,
2013-02-19 03:29:00,62.6,41.0,29.97,SSE,158,3.1,19.9,45,0.00,,,0.00,VWS V14.01,2013-02-19 09:29:00,
2013-02-19 03:30:00,62.6,41.0,29.97,SE,135,8.7,8.7,45,0.00,,,0.00,VWS V14.01,2013-02-19 09:30:00,
2013-02-19 03:31:00,62.6,49.4,29.97,SE,135,10.5,10.5,62,0.04,,,0.04,VWS V14.01,2013-02-19 09:31:00,
2013-02-19 03:32:00,62.6,41.0,29.97,South,180,10.5,10.5,45,0.00,,,0.00,VWS V14.01,2013-02-19 09:32:00,
2013-02-19 03:33:00,62.6,41.0,29.97,SSW,202,9.6,12.1,45,0.00,,,0.00,VWS V14.01,2013-02-19 09:33:00,
2013-02-19 03:34:00,62.6,41.0,29.97,SE,135,8.1,9.6,45,0.00,,,0.00,VWS V14.01,2013-02-19 09:34:00,
2013-02-19 03:35:00,62.8,41.2,29.97,SSE,158,12.3,19.2,45,0.00,,,0.00,VWS V14.01,2013-02-19 09:35:00,
2013-02-19 03:36:00,62.6,50.3,29.97,SSE,158,0.0,6.5,64,0.04,,,0.04,VWS V14.01,2013-02-19 09:36:00,
2013-02-19 03:37:00,62.6,41.0,29.97,SSW,202,9.8,13.2,45,0.00,,,0.00,VWS V14.01,2013-02-19 09:37:00,
2013-02-19 03:38:00,62.6,41.0,29.97,SSW,202,9.8,9.8,45,0.00,,,0.00,VWS V14.01,2013-02-19 09:38:00,
2013-02-19 03:39:00,62.8,41.7,29.97,SE,135,3.8,9.8,46,0.00,,,0.00,VWS V14.01,2013-02-19 09:39:00,
2013-02-19 03:40:00,62.8,41.2,30.00,SSE,158,5.4,10.3,45,0.00,,,0.00,VWS V14.01,2013-02-19 09:40:00,
2013-02-19 03:41:00,62.6,51.5,29.97,WSW,248,6.9,6.9,67,0.04,,,0.04,VWS V14.01,2013-02-19 09:41:00,
2013-02-19 03:42:00,62.8,41.7,30.00,SSE,158,5.8,13.2,46,0.00,,,0.00,VWS V14.01,2013-02-19 09:42:00,
2013-02-19 03:43:00,62.8,41.7,30.00,East,90,21.9,21.9,46,0.00,,,0.00,VWS V14.01,2013-02-19 09:43:00,
2013-02-19 03:44:00,62.8,41.7,30.00,SSE,158,10.3,21.9,46,0.00,,,0.00,VWS V14.01,2013-02-19 09:44:00,
2013-02-19 03:45:00,62.8,41.7,30.00,SSW,202,10.1,10.3,46,0.00,,,0.00,VWS V14.01,2013-02-19 09:45:00,
2013-02-19 03:46:00,62.6,52.7,29.97,ESE,112,6.3,8.7,70,0.04,,,0.04,VWS V14.01,2013-02-19 09:46:00,
2013-02-19 03:47:00,62.8,42.3,30.00,ESE,112,4.9,11.0,47,0.00,,,0.00,VWS V14.01,2013-02-19 09:47:00,
2013-02-19 03:48:00,62.8,42.3,30.00,SSE,158,9.4,11.4,47,0.00,,,0.00,VWS V14.01,2013-02-19 09:48:00,
2013-02-19 03:49:00,63.0,41.9,30.00,ESE,112,5.8,9.4,46,0.00,,,0.00,VWS V14.01,2013-02-19 09:49:00,
2013-02-19 03:50:00,63.0,42.4,30.00,ESE,112,4.3,11.2,47,0.00,,,0.00,VWS V14.01,2013-02-19 09:50:00,
2013-02-19 03:51:00,62.4,52.9,29.97,SE,135,5.8,5.8,71,0.09,,,0.09,VWS V14.01,2013-02-19 09:51:00,
2013-02-19 03:52:00,63.0,42.4,30.00,South,180,12.8,14.8,47,0.00,,,0.00,VWS V14.01,2013-02-19 09:52:00,
2013-02-19 03:53:00,63.0,43.0,30.00,SSE,158,17.5,17.5,48,0.00,,,0.00,VWS V14.01,2013-02-19 09:53:00,
2013-02-19 03:54:00,63.0,43.0,30.00,SSE,158,5.4,17.5,48,0.00,,,0.00,VWS V14.01,2013-02-19 09:54:00,
2013-02-19 03:55:00,63.0,43.0,29.97,SSE,158,2.9,7.6,48,0.00,,,0.00,VWS V14.01,2013-02-19 09:55:00,
2013-02-19 03:56:00,62.4,54.0,29.97,WSW,248,2.5,7.6,74,0.09,,,0.09,VWS V14.01,2013-02-19 09:56:00,
2013-02-19 03:57:00,63.1,43.7,29.97,SSW,202,7.8,8.5,49,0.00,,,0.00,VWS V14.01,2013-02-19 09:57:00,
2013-02-19 03:58:00,63.0,43.0,29.97,SSE,158,7.6,12.5,48,0.00,,,0.00,VWS V14.01,2013-02-19 09:58:00,
2013-02-19 03:59:00,63.0,43.0,29.97,SSW,202,6.3,10.3,48,0.00,,,0.00,VWS V14.01,2013-02-19 09:59:00,
2013-02-19 04:00:00,63.1,43.2,29.97,SSW,202,6.0,7.8,48,0.00,,,0.00,VWS V14.01,2013-02-19 10:00:00,
2013-02-19 04:01:00,62.6,54.6,29.97,SSW,202,2.7,5.6,75,0.09,,,0.09,VWS V14.01,2013-02-19 10:01:00,
2013-02-19 04:02:00,63.0,43.0,29.97,SSW,202,7.4,10.5,48,0.00,,,0.00,VWS V14.01,2013-02-19 10:02:00,
2013-02-19 04:03:00,63.1,43.2,29.97,SSW,202,11.0,13.2,48,0.00,,,0.00,VWS V14.01,2013-02-19 10:03:00,
2013-02-19 04:04:00,63.1,43.2,29.97,SSW,202,6.3,11.0,48,0.00,,,0.00,VWS V14.01,2013-02-19 10:04:00,
2013-02-19 04:05:00,63.1,43.7,29.97,SE,135,6.3,8.5,49,0.00,,,0.00,VWS V14.01,2013-02-19 10:05:00,
2013-02-19 04:06:00,62.4,54.8,29.97,South,180,6.5,12.3,76,0.09,,,0.09,VWS V14.01,2013-02-19 10:06:00,
2013-02-19 04:07:00,63.1,43.7,29.97,SSE,158,5.4,6.9,49,0.00,,,0.00,VWS V14.01,2013-02-19 10:07:00,
2013-02-19 04:08:00,63.1,43.7,29.97,SSW,202,5.6,5.6,49,0.00,,,0.00,VWS V14.01,2013-02-19 10:08:00,
2013-02-19 04:09:00,63.1,43.7,29.97,SSE,158,2.9,5.6,49,0.00,,,0.00,VWS V14.01,2013-02-19 10:09:00,
2013-02-19 04:10:00,63.1,43.7,29.97,SSE,158,2.9,2.9,49,0.00,,,0.00,VWS V14.01,2013-02-19 10:10:00,
2013-02-19 04:11:00,62.6,55.3,29.97,SSW,202,8.1,8.1,77,0.09,,,0.09,VWS V14.01,2013-02-19 10:11:00,
2013-02-19 04:12:00,63.1,43.7,29.97,SSE,158,5.4,8.5,49,0.00,,,0.00,VWS V14.01,2013-02-19 10:12:00,
2013-02-19 04:13:00,63.1,43.7,29.97,SSW,202,5.8,6.3,49,0.00,,,0.00,VWS V14.01,2013-02-19 10:13:00,
2013-02-19 04:14:00,63.1,43.7,29.97,SSW,202,10.1,10.1,49,0.00,,,0.00,VWS V14.01,2013-02-19 10:14:00,
2013-02-19 04:15:00,63.1,44.2,29.97,SE,135,8.1,10.1,50,0.00,,,0.00,VWS V14.01,2013-02-19 10:15:00,
2013-02-19 04:16:00,62.6,55.3,29.94,SSE,158,3.6,3.8,77,0.05,,,0.09,VWS V14.01,2013-02-19 10:16:00,
2013-02-19 04:17:00,63.1,44.2,29.97,SE,135,8.5,10.1,50,0.00,,,0.00,VWS V14.01,2013-02-19 10:17:00,
2013-02-19 04:18:00,63.3,45.9,29.97,SSE,158,7.6,12.5,53,0.00,,,0.00,VWS V14.01,2013-02-19 10:18:00,
2013-02-19 04:19:00,63.1,45.2,29.97,SSW,202,6.0,7.6,52,0.00,,,0.00,VWS V14.01,2013-02-19 10:19:00,
2013-02-19 04:20:00,63.3,45.4,29.97,SSE,158,4.7,7.4,52,0.00,,,0.00,VWS V14.01,2013-02-19 10:20:00,
2013-02-19 04:21:00,62.6,55.7,29.94,SW,225,10.1,10.1,78,0.05,,,0.09,VWS V14.01,2013-02-19 10:21:00,
2013-02-19 04:22:00,63.1,44.7,29.97,SSW,202,4.3,5.6,51,0.00,,,0.00,VWS V14.01,2013-02-19 10:22:00,
2013-02-19 04:23:00,63.1,44.7,29.97,SW,225,3.8,5.4,51,0.00,,,0.00,VWS V14.01,2013-02-19 10:23:00,
2013-02-19 04:24:00,63.1,44.7,29.97,South,180,3.4,3.8,51,0.00,,,0.00,VWS V14.01,2013-02-19 10:24:00,
2013-02-19 04:25:00,63.1,44.7,29.97,SE,135,6.9,12.1,51,0.00,,,0.00,VWS V14.01,2013-02-19 10:25:00,
2013-02-19 04:26:00,62.4,55.5,29.94,SSW,202,5.4,5.4,78,0.05,,,0.09,VWS V14.01,2013-02-19 10:26:00,
2013-02-19 04:27:00,63.1,45.2,29.97,SSW,202,8.1,8.5,52,0.00,,,0.00,VWS V14.01,2013-02-19 10:27:00,
2013-02-19 04:28:00,63.1,45.2,29.97,SW,225,11.0,11.0,52,0.00,,,0.00,VWS V14.01,2013-02-19 10:28:00,
2013-02-19 04:29:00,63.3,47.4,29.97,SE,135,7.6,11.0,56,0.00,,,0.00,VWS V14.01,2013-02-19 10:29:00,
2013-02-19 04:30:00,63.1,47.2,29.97,SSE,158,3.8,7.6,56,0.00,,,0.00,VWS V14.01,2013-02-19 10:30:00,
2013-02-19 04:31:00,62.4,55.5,29.97,SSE,158,2.9,6.0,78,0.05,,,0.09,VWS V14.01,2013-02-19 10:31:00,
2013-02-19 04:32:00,63.0,47.0,29.97,SSE,158,4.7,8.7,56,0.00,,,0.00,VWS V14.01,2013-02-19 10:32:00,
2013-02-19 04:33:00,63.0,47.0,29.97,SSW,202,3.8,4.7,56,0.00,,,0.00,VWS V14.01,2013-02-19 10:33:00,
2013-02-19 04:34:00,63.0,47.0,29.97,West,270,2.2,6.0,56,0.00,,,0.00,VWS V14.01,2013-02-19 10:34:00,
2013-02-19 04:35:00,63.1,48.1,29.97,SSW,202,7.2,7.2,58,0.00,,,0.00,VWS V14.01,2013-02-19 10:35:00,
2013-02-19 04:36:00,62.6,56.0,29.97,SSE,158,4.3,6.9,79,0.05,,,0.09,VWS V14.01,2013-02-19 10:36:00,
2013-02-19 04:37:00,63.1,48.1,29.97,SSW,202,8.5,8.5,58,0.00,,,0.00,VWS V14.01,2013-02-19 10:37:00,
2013-02-19 04:38:00,63.1,48.1,29.97,SSW,202,3.6,8.5,58,0.00,,,0.00,VWS V14.01,2013-02-19 10:38:00,
2013-02-19 04:39:00,63.1,48.1,29.97,SSE,158,3.6,5.6,58,0.00,,,0.00,VWS V14.01,2013-02-19 10:39:00,
2013-02-19 04:40:00,63.0,49.3,29.97,SSE,158,3.6,3.6,61,0.04,,,0.04,VWS V14.01,2013-02-19 10:40:00,
2013-02-19 04:41:00,62.6,56.3,29.97,SSW,202,4.3,5.8,80,0.05,,,0.09,VWS V14.01,2013-02-19 10:41:00,
2013-02-19 04:43:00,63.0,49.3,29.97,SW,225,4.3,4.3,61,0.04,,,0.04,VWS V14.01,2013-02-19 10:43:00,
2013-02-19 04:45:00,63.0,49.8,29.97,WSW,248,4.0,8.1,62,0.04,,,0.04,VWS V14.01,2013-02-19 10:45:00,
2013-02-19 04:46:00,62.6,56.3,29.97,SSW,202,3.4,3.4,80,0.05,,,0.09,VWS V14.01,2013-02-19 10:46:00,
2013-02-19 04:47:00,63.0,51.0,29.97,SSW,202,2.5,4.3,65,0.04,,,0.04,VWS V14.01,2013-02-19 10:47:00,
2013-02-19 04:48:00,62.8,50.8,29.97,SE,135,5.8,5.8,65,0.04,,,0.04,VWS V14.01,2013-02-19 10:48:00,
2013-02-19 04:49:00,62.8,50.4,29.97,South,180,3.1,6.0,64,0.04,,,0.04,VWS V14.01,2013-02-19 10:49:00,
2013-02-19 04:50:00,62.8,50.4,29.97,SSW,202,6.5,6.5,64,0.04,,,0.04,VWS V14.01,2013-02-19 10:50:00,
2013-02-19 04:51:00,62.8,56.9,29.97,SE,135,4.9,7.8,81,0.03,,,0.12,VWS V14.01,2013-02-19 10:51:00,
2013-02-19 04:52:00,62.8,50.4,29.97,SSE,158,5.6,6.5,64,0.04,,,0.04,VWS V14.01,2013-02-19 10:52:00,
2013-02-19 04:53:00,62.8,50.4,29.97,WSW,248,2.9,5.6,64,0.04,,,0.04,VWS V14.01,2013-02-19 10:53:00,
2013-02-19 04:54:00,62.6,49.8,29.97,South,180,3.1,3.4,63,0.04,,,0.04,VWS V14.01,2013-02-19 10:54:00,
2013-02-19 04:55:00,62.6,49.4,29.97,South,180,4.9,4.9,62,0.04,,,0.04,VWS V14.01,2013-02-19 10:55:00,
2013-02-19 04:56:00,62.8,57.2,29.97,WSW,248,3.6,7.2,82,0.03,,,0.12,VWS V14.01,2013-02-19 10:56:00,
2013-02-19 04:57:00,62.6,49.4,29.97,SW,225,1.6,5.6,62,0.04,,,0.04,VWS V14.01,2013-02-19 10:57:00,
2013-02-19 05:00:00,62.8,50.8,29.97,ESE,112,5.4,8.1,65,0.04,,,0.04,VWS V14.01,2013-02-19 11:00:00,
2013-02-19 05:01:00,63.0,57.7,30.00,South,180,12.1,12.1,83,0.03,,,0.12,VWS V14.01,2013-02-19 11:01:00,
2013-02-19 05:02:00,62.6,50.7,29.97,South,180,3.6,6.3,65,0.04,,,0.04,VWS V14.01,2013-02-19 11:02:00,
2013-02-19 05:03:00,62.6,50.7,29.97,SSW,202,4.7,4.9,65,0.04,,,0.04,VWS V14.01,2013-02-19 11:03:00,
2013-02-19 05:04:00,62.6,51.1,29.97,South,180,3.1,4.7,66,0.04,,,0.04,VWS V14.01,2013-02-19 11:04:00,
2013-02-19 05:05:00,62.6,51.5,29.97,ESE,112,6.0,6.0,67,0.04,,,0.04,VWS V14.01,2013-02-19 11:05:00,
2013-02-19 05:06:00,62.8,58.2,30.00,SSW,202,8.7,8.7,85,0.03,,,0.12,VWS V14.01,2013-02-19 11:06:00,
2013-02-19 05:08:00,62.6,51.9,29.97,South,180,3.1,6.3,68,0.04,,,0.04,VWS V14.01,2013-02-19 11:08:00,
2013-02-19 05:10:00,62.6,52.7,29.97,WSW,248,3.1,4.7,70,0.04,,,0.04,VWS V14.01,2013-02-19 11:10:00,
2013-02-19 05:11:00,62.6,58.0,30.00,South,180,2.9,5.4,85,0.03,,,0.12,VWS V14.01,2013-02-19 11:11:00,
2013-02-19 05:12:00,62.6,53.1,29.97,SSE,158,2.7,6.0,71,0.04,,,0.04,VWS V14.01,2013-02-19 11:12:00,
2013-02-19 05:14:00,62.6,53.1,29.97,SSW,202,3.1,3.1,71,0.09,,,0.09,VWS V14.01,2013-02-19 11:14:00,
2013-02-19 05:15:00,62.6,58.0,30.00,South,180,1.1,3.1,85,0.03,,,0.12,VWS V14.01,2013-02-19 11:15:00,
2013-02-19 05:17:00,62.4,52.9,29.97,South,180,3.8,5.8,71,0.09,,,0.09,VWS V14.01,2013-02-19 11:17:00,
2013-02-19 05:18:00,62.6,53.8,29.97,South,180,3.1,3.8,73,0.09,,,0.09,VWS V14.01,2013-02-19 11:18:00,
2013-02-19 05:19:00,62.6,53.8,29.97,SE,135,9.4,9.4,73,0.09,,,0.09,VWS V14.01,2013-02-19 11:19:00,
2013-02-19 05:20:00,62.6,58.0,30.00,WSW,248,2.2,4.3,85,0.03,,,0.12,VWS V14.01,2013-02-19 11:20:00,
2013-02-19 05:21:00,62.4,54.0,29.97,SW,225,6.5,7.6,74,0.09,,,0.09,VWS V14.01,2013-02-19 11:21:00,
2013-02-19 05:22:00,62.6,53.8,29.97,SSE,158,6.3,6.5,73,0.09,,,0.09,VWS V14.01,2013-02-19 11:22:00,
2013-02-19 05:23:00,62.6,53.8,29.97,SSE,158,2.0,7.4,73,0.09,,,0.09,VWS V14.01,2013-02-19 11:23:00,
2013-02-19 05:24:00,62.6,54.6,29.97,SSW,202,5.4,5.4,75,0.09,,,0.09,VWS V14.01,2013-02-19 11:24:00,
2013-02-19 05:25:00,62.6,58.0,30.00,SSE,158,3.8,3.8,85,0.03,,,0.12,VWS V14.01,2013-02-19 11:25:00,
2013-02-19 05:27:00,62.6,55.3,29.97,SSW,202,3.4,5.8,77,0.09,,,0.09,VWS V14.01,2013-02-19 11:27:00,
2013-02-19 05:28:00,62.6,55.3,29.97,SSE,158,6.9,7.4,77,0.09,,,0.09,VWS V14.01,2013-02-19 11:28:00,
2013-02-19 05:29:00,62.4,55.1,29.97,SE,135,4.3,6.9,77,0.09,,,0.09,VWS V14.01,2013-02-19 11:29:00,
2013-02-19 05:30:00,62.4,57.9,30.03,SSW,202,2.7,2.7,85,0.03,,,0.12,VWS V14.01,2013-02-19 11:30:00,
2013-02-19 05:31:00,62.4,54.8,29.97,SSE,158,4.3,12.3,76,0.09,,,0.09,VWS V14.01,2013-02-19 11:31:00,
2013-02-19 05:32:00,62.6,55.3,29.97,SSW,202,8.5,8.5,77,0.09,,,0.09,VWS V14.01,2013-02-19 11:32:00,
2013-02-19 05:33:00,62.6,55.3,29.97,SSW,202,3.6,8.5,77,0.09,,,0.09,VWS V14.01,2013-02-19 11:33:00,
2013-02-19 05:34:00,62.6,55.3,29.97,WSW,248,5.4,16.6,77,0.09,,,0.09,VWS V14.01,2013-02-19 11:34:00,
2013-02-19 05:35:00,62.4,57.9,30.03,WSW,248,1.1,1.1,85,0.03,,,0.12,VWS V14.01,2013-02-19 11:35:00,
2013-02-19 05:36:00,62.6,55.3,29.97,SSW,202,2.9,8.1,77,0.09,,,0.09,VWS V14.01,2013-02-19 11:36:00,
2013-02-19 05:37:00,62.4,55.5,29.97,SSW,202,6.0,6.0,78,0.09,,,0.09,VWS V14.01,2013-02-19 11:37:00,
2013-02-19 05:38:00,62.4,55.1,29.97,SSW,202,0.0,6.0,77,0.09,,,0.09,VWS V14.01,2013-02-19 11:38:00,
2013-02-19 05:39:00,62.6,55.7,29.97,ESE,112,6.5,6.5,78,0.09,,,0.09,VWS V14.01,2013-02-19 11:39:00,
2013-02-19 05:40:00,62.4,57.9,30.03,South,180,1.6,2.7,85,0.08,,,0.17,VWS V14.01,2013-02-19 11:40:00,
2013-02-19 05:41:00,62.6,55.3,29.94,SSE,158,1.1,3.8,77,0.05,,,0.09,VWS V14.01,2013-02-19 11:41:00,
2013-02-19 05:42:00,62.6,55.3,29.94,SSW,202,6.5,6.5,77,0.05,,,0.09,VWS V14.01,2013-02-19 11:42:00,
2013-02-19 05:43:00,62.4,55.1,29.94,SSW,202,3.1,6.5,77,0.05,,,0.09,VWS V14.01,2013-02-19 11:43:00,
2013-02-19 05:44:00,62.6,55.7,29.94,SSW,202,7.4,7.4,78,0.05,,,0.09,VWS V14.01,2013-02-19 11:44:00,
2013-02-19 05:45:00,62.4,57.5,30.03,SSW,202,2.9,3.1,84,0.08,,,0.17,VWS V14.01,2013-02-19 11:45:00,
2013-02-19 05:46:00,62.6,55.7,29.94,SSW,202,4.9,10.1,78,0.05,,,0.09,VWS V14.01,2013-02-19 11:46:00,
2013-02-19 05:47:00,62.6,55.7,29.94,SSE,158,3.4,5.6,78,0.05,,,0.09,VWS V14.01,2013-02-19 11:47:00,
2013-02-19 05:48:00,62.4,55.5,29.94,SSE,158,3.4,3.4,78,0.05,,,0.09,VWS V14.01,2013-02-19 11:48:00,
2013-02-19 05:49:00,62.6,55.3,29.94,SSW,202,2.0,3.4,77,0.05,,,0.09,VWS V14.01,2013-02-19 11:49:00,
2013-02-19 05:50:00,62.4,57.5,30.03,SSE,158,0.0,0.0,84,0.05,,,0.17,VWS V14.01,2013-02-19 11:50:00,
2013-02-19 05:51:00,62.4,55.5,29.94,SSW,202,3.4,5.4,78,0.05,,,0.09,VWS V14.01,2013-02-19 11:51:00,
2013-02-19 05:52:00,62.4,55.1,29.94,SSW,202,2.9,5.8,77,0.05,,,0.09,VWS V14.01,2013-02-19 11:52:00,
2013-02-19 05:53:00,62.6,55.7,29.94,SE,135,1.6,6.5,78,0.05,,,0.09,VWS V14.01,2013-02-19 11:53:00,
2013-02-19 05:54:00,62.6,55.7,29.94,WSW,248,4.3,4.3,78,0.05,,,0.09,VWS V14.01,2013-02-19 11:54:00,
2013-02-19 05:55:00,62.4,57.5,30.03,SW,225,1.3,1.3,84,0.05,,,0.17,VWS V14.01,2013-02-19 11:55:00,
2013-02-19 05:56:00,62.4,55.5,29.97,South,180,3.4,3.4,78,0.05,,,0.09,VWS V14.01,2013-02-19 11:56:00,
2013-02-19 05:57:00,62.6,55.7,29.97,SSW,202,3.6,4.3,78,0.05,,,0.09,VWS V14.01,2013-02-19 11:57:00,
2013-02-19 05:58:00,62.6,55.7,29.97,ESE,112,7.2,8.5,78,0.05,,,0.09,VWS V14.01,2013-02-19 11:58:00,
2013-02-19 05:59:00,62.4,55.8,29.97,SE,135,1.6,7.2,79,0.05,,,0.09,VWS V14.01,2013-02-19 11:59:00,
2013-02-19 06:00:00,62.4,57.2,30.03,SW,225,0.9,2.5,83,0.05,,,0.17,VWS V14.01,2013-02-19 12:00:00,
2013-02-19 06:01:00,62.6,56.0,29.97,ESE,112,6.0,6.9,79,0.05,,,0.09,VWS V14.01,2013-02-19 12:01:00,
2013-02-19 06:02:00,62.6,56.0,29.97,SSE,158,3.1,6.0,79,0.05,,,0.09,VWS V14.01,2013-02-19 12:02:00,
2013-02-19 06:03:00,62.6,56.0,29.97,SSW,202,7.8,15.2,79,0.05,,,0.09,VWS V14.01,2013-02-19 12:03:00,
2013-02-19 06:04:00,62.6,56.3,29.97,SSE,158,8.1,8.1,80,0.05,,,0.09,VWS V14.01,2013-02-19 12:04:00,
2013-02-19 06:05:00,62.2,57.0,30.03,SSE,158,2.5,4.0,83,0.05,,,0.17,VWS V14.01,2013-02-19 12:05:00,
2013-02-19 06:06:00,62.6,56.3,29.97,SSE,158,7.4,8.7,80,0.05,,,0.09,VWS V14.01,2013-02-19 12:06:00,
2013-02-19 06:07:00,62.6,56.3,29.97,SSW,202,7.8,7.8,80,0.05,,,0.09,VWS V14.01,2013-02-19 12:07:00,
2013-02-19 06:08:00,62.6,56.3,29.97,SSW,202,5.6,7.8,80,0.05,,,0.09,VWS V14.01,2013-02-19 12:08:00,
2013-02-19 06:09:00,62.8,56.9,29.97,SSE,158,5.8,8.7,81,0.05,,,0.09,VWS V14.01,2013-02-19 12:09:00,
2013-02-19 06:10:00,62.2,57.0,30.03,SSE,158,1.3,3.1,83,0.05,,,0.17,VWS V14.01,2013-02-19 12:10:00,
2013-02-19 06:11:00,62.8,56.5,29.97,SSW,202,5.4,5.6,80,0.08,,,0.12,VWS V14.01,2013-02-19 12:11:00,
2013-02-19 06:14:00,62.6,56.3,29.97,SSW,202,5.8,5.8,80,0.08,,,0.12,VWS V14.01,2013-02-19 12:14:00,
2013-02-19 06:15:00,62.2,57.0,30.03,SSW,202,1.1,1.1,83,0.05,,,0.17,VWS V14.01,2013-02-19 12:15:00,
2013-02-19 06:16:00,62.8,56.9,29.97,SE,135,4.9,7.8,81,0.03,,,0.12,VWS V14.01,2013-02-19 12:16:00,
2013-02-19 06:19:00,63.0,57.0,29.97,SSW,202,7.8,11.0,81,0.03,,,0.12,VWS V14.01,2013-02-19 12:19:00,
2013-02-19 06:20:00,62.2,57.0,30.03,South,180,2.7,2.7,83,0.05,,,0.17,VWS V14.01,2013-02-19 12:20:00,
2013-02-19 06:21:00,62.8,57.2,29.97,South,180,2.5,7.2,82,0.03,,,0.12,VWS V14.01,2013-02-19 12:21:00,
2013-02-19 06:22:00,62.8,57.2,29.97,ENE,68,5.4,5.4,82,0.03,,,0.12,VWS V14.01,2013-02-19 12:22:00,
2013-02-19 06:23:00,62.8,57.2,29.97,SSE,158,5.6,5.6,82,0.03,,,0.12,VWS V14.01,2013-02-19 12:23:00,
2013-02-19 06:24:00,62.8,57.5,29.97,SSW,202,4.0,5.6,83,0.03,,,0.12,VWS V14.01,2013-02-19 12:24:00,
2013-02-19 06:25:00,62.2,57.0,30.03,SSE,158,1.3,2.0,83,0.05,,,0.17,VWS V14.01,2013-02-19 12:25:00,
2013-02-19 06:26:00,63.0,57.7,30.00,South,180,12.1,12.1,83,0.03,,,0.12,VWS V14.01,2013-02-19 12:26:00,
2013-02-19 06:27:00,63.0,57.7,30.00,WSW,248,22.8,22.8,83,0.03,,,0.12,VWS V14.01,2013-02-19 12:27:00,
2013-02-19 06:28:00,63.0,57.7,30.00,WSW,248,22.8,22.8,83,0.03,,,0.12,VWS V14.01,2013-02-19 12:28:00,
2013-02-19 06:29:00,63.0,58.1,30.00,SSW,202,8.7,22.8,84,0.03,,,0.12,VWS V14.01,2013-02-19 12:29:00,
2013-02-19 06:30:00,62.2,56.7,30.00,SSE,158,0.0,1.1,82,0.05,,,0.17,VWS V14.01,2013-02-19 12:30:00,
2013-02-19 06:31:00,62.8,58.2,30.00,SSW,202,5.6,8.7,85,0.03,,,0.12,VWS V14.01,2013-02-19 12:31:00,
2013-02-19 06:32:00,62.8,58.2,30.00,SSW,202,3.8,5.6,85,0.03,,,0.12,VWS V14.01,2013-02-19 12:32:00,
2013-02-19 06:33:00,62.8,58.2,30.00,WSW,248,3.4,4.3,85,0.03,,,0.12,VWS V14.01,2013-02-19 12:33:00,
2013-02-19 06:34:00,62.8,58.2,30.00,SSW,202,7.8,7.8,85,0.03,,,0.12,VWS V14.01,2013-02-19 12:34:00,
2013-02-19 06:35:00,62.2,56.7,30.00,SSE,158,2.0,2.0,82,0.05,,,0.17,VWS V14.01,2013-02-19 12:35:00,
2013-02-19 06:36:00,62.6,58.0,30.00,SSE,158,6.5,7.8,85,0.03,,,0.12,VWS V14.01,2013-02-19 12:36:00,
2013-02-19 06:37:00,62.6,58.0,30.00,SE,135,3.1,6.5,85,0.03,,,0.12,VWS V14.01,2013-02-19 12:37:00,
2013-02-19 06:38:00,62.6,58.4,30.00,WNW,292,1.1,4.3,86,0.03,,,0.12,VWS V14.01,2013-02-19 12:38:00,
2013-02-19 06:39:00,62.6,58.4,30.00,West,270,6.5,6.5,86,0.03,,,0.12,VWS V14.01,2013-02-19 12:39:00,
2013-02-19 06:40:00,62.2,56.7,30.00,SSE,158,1.6,2.0,82,0.00,,,0.17,VWS V14.01,2013-02-19 12:40:00,
2013-02-19 06:42:00,62.6,58.0,30.00,SSW,202,4.9,4.9,85,0.03,,,0.12,VWS V14.01,2013-02-19 12:42:00,
2013-02-19 06:44:00,62.6,58.0,30.00,WSW,248,7.2,7.2,85,0.03,,,0.12,VWS V14.01,2013-02-19 12:44:00,
2013-02-19 06:45:00,62.2,56.7,30.00,SSE,158,0.0,0.0,82,0.00,,,0.17,VWS V14.01,2013-02-19 12:45:00,
2013-02-19 06:46:00,62.6,58.0,30.00,WSW,248,2.0,4.3,85,0.03,,,0.12,VWS V14.01,2013-02-19 12:46:00,
2013-02-19 06:47:00,62.6,58.0,30.00,SSW,202,4.0,7.2,85,0.03,,,0.12,VWS V14.01,2013-02-19 12:47:00,
2013-02-19 06:48:00,62.6,58.0,30.00,WSW,248,1.3,4.0,85,0.03,,,0.12,VWS V14.01,2013-02-19 12:48:00,
2013-02-19 06:49:00,62.6,58.0,30.00,SSE,158,4.3,9.0,85,0.03,,,0.12,VWS V14.01,2013-02-19 12:49:00,
2013-02-19 06:50:00,62.1,56.5,30.03,WSW,248,2.9,2.9,82,0.00,,,0.17,VWS V14.01,2013-02-19 12:50:00,
2013-02-19 06:51:00,62.6,58.0,30.00,SW,225,3.6,5.4,85,0.03,,,0.12,VWS V14.01,2013-02-19 12:51:00,
2013-02-19 06:52:00,62.6,58.0,30.00,SSW,202,4.0,4.0,85,0.03,,,0.12,VWS V14.01,2013-02-19 12:52:00,
2013-02-19 06:53:00,62.6,58.0,30.00,WSW,248,5.8,5.8,85,0.03,,,0.12,VWS V14.01,2013-02-19 12:53:00,
2013-02-19 06:54:00,62.6,58.0,30.00,SSW,202,2.9,5.8,85,0.03,,,0.12,VWS V14.01,2013-02-19 12:54:00,
2013-02-19 06:55:00,62.1,56.5,30.03,WSW,248,1.3,2.2,82,0.00,,,0.17,VWS V14.01,2013-02-19 12:55:00,
2013-02-19 06:56:00,62.6,58.0,30.03,WSW,248,2.9,3.1,85,0.03,,,0.12,VWS V14.01,2013-02-19 12:56:00,
2013-02-19 06:58:00,62.6,58.0,30.03,SSE,158,4.9,4.9,85,0.03,,,0.12,VWS V14.01,2013-02-19 12:58:00,
2013-02-19 06:59:00,62.6,58.0,30.03,WSW,248,3.6,5.4,85,0.03,,,0.12,VWS V14.01,2013-02-19 12:59:00,
2013-02-19 07:00:00,62.1,56.2,30.06,WSW,248,0.0,0.0,81,0.00,,,0.17,VWS V14.01,2013-02-19 13:00:00,
2013-02-19 07:02:00,62.4,57.9,30.03,SSW,202,2.0,2.0,85,0.08,,,0.17,VWS V14.01,2013-02-19 13:02:00,
2013-02-19 07:03:00,62.4,57.9,30.03,SSW,202,2.0,2.9,85,0.08,,,0.17,VWS V14.01,2013-02-19 13:03:00,
2013-02-19 07:04:00,62.4,57.9,30.03,SSW,202,1.3,2.5,85,0.08,,,0.17,VWS V14.01,2013-02-19 13:04:00,
2013-02-19 07:05:00,62.1,56.2,30.06,WSW,248,0.0,0.0,81,0.00,,,0.17,VWS V14.01,2013-02-19 13:05:00,
2013-02-19 07:06:00,62.4,57.5,30.03,SSE,158,2.0,2.7,84,0.08,,,0.17,VWS V14.01,2013-02-19 13:06:00,
2013-02-19 07:07:00,62.4,57.5,30.03,SSW,202,2.0,3.4,84,0.08,,,0.17,VWS V14.01,2013-02-19 13:07:00,
2013-02-19 07:08:00,62.4,57.5,30.03,South,180,2.9,5.6,84,0.08,,,0.17,VWS V14.01,2013-02-19 13:08:00,
2013-02-19 07:09:00,62.4,57.5,30.03,SSW,202,3.1,5.8,84,0.08,,,0.17,VWS V14.01,2013-02-19 13:09:00,
2013-02-19 07:10:00,62.1,56.2,30.06,WNW,292,0.0,3.4,81,0.00,,,0.17,VWS V14.01,2013-02-19 13:10:00,
2013-02-19 07:11:00,62.4,57.5,30.03,SSW,202,2.9,3.1,84,0.08,,,0.17,VWS V14.01,2013-02-19 13:11:00,
2013-02-19 07:13:00,62.4,57.5,30.03,SSE,158,1.1,3.8,84,0.05,,,0.17,VWS V14.01,2013-02-19 13:13:00,
2013-02-19 07:15:00,62.1,56.5,30.06,WNW,292,0.0,0.0,82,0.00,,,0.17,VWS V14.01,2013-02-19 13:15:00,
2013-02-19 07:16:00,62.4,57.5,30.03,SSE,158,0.0,0.0,84,0.05,,,0.17,VWS V14.01,2013-02-19 13:16:00,
2013-02-19 07:17:00,62.4,57.5,30.03,SSE,158,3.4,3.4,84,0.05,,,0.17,VWS V14.01,2013-02-19 13:17:00,
2013-02-19 07:18:00,62.4,57.5,30.03,West,270,1.1,3.4,84,0.05,,,0.17,VWS V14.01,2013-02-19 13:18:00,
2013-02-19 07:19:00,62.4,57.5,30.03,SW,225,1.1,4.0,84,0.05,,,0.17,VWS V14.01,2013-02-19 13:19:00,
2013-02-19 07:20:00,62.1,56.5,30.06,ENE,68,0.0,0.0,82,0.00,,,0.17,VWS V14.01,2013-02-19 13:20:00,
2013-02-19 07:21:00,62.4,57.5,30.03,SSW,202,1.3,1.3,84,0.05,,,0.17,VWS V14.01,2013-02-19 13:21:00,
2013-02-19 07:22:00,62.4,57.5,30.03,SSW,202,0.0,1.3,84,0.05,,,0.17,VWS V14.01,2013-02-19 13:22:00,
2013-02-19 07:23:00,62.4,57.2,30.03,SSW,202,2.2,2.9,83,0.05,,,0.17,VWS V14.01,2013-02-19 13:23:00,
2013-02-19 07:24:00,62.4,57.2,30.03,SW,225,1.3,2.5,83,0.05,,,0.17,VWS V14.01,2013-02-19 13:24:00,
2013-02-19 07:25:00,62.2,56.7,30.06,NNW,338,0.0,0.0,82,0.00,,,0.17,VWS V14.01,2013-02-19 13:25:00,
2013-02-19 07:26:00,62.4,57.2,30.03,SSW,202,2.5,2.5,83,0.05,,,0.17,VWS V14.01,2013-02-19 13:26:00,
2013-02-19 07:27:00,62.4,57.2,30.03,SSW,202,3.4,3.4,83,0.05,,,0.17,VWS V14.01,2013-02-19 13:27:00,
2013-02-19 07:28:00,62.4,57.2,30.03,SSW,202,3.1,3.4,83,0.05,,,0.17,VWS V14.01,2013-02-19 13:28:00,
2013-02-19 07:29:00,62.2,57.0,30.03,SSW,202,1.6,3.1,83,0.05,,,0.17,VWS V14.01,2013-02-19 13:29:00,
2013-02-19 07:30:00,62.1,56.5,30.06,WNW,292,0.0,0.0,82,0.00,,,0.17,VWS V14.01,2013-02-19 13:30:00,
2013-02-19 07:31:00,62.2,57.0,30.03,SSE,158,2.5,4.0,83,0.05,,,0.17,VWS V14.01,2013-02-19 13:31:00,
2013-02-19 07:32:00,62.2,57.0,30.03,South,180,2.5,3.4,83,0.05,,,0.17,VWS V14.01,2013-02-19 13:32:00,
2013-02-19 07:33:00,62.2,57.0,30.03,South,180,1.6,2.9,83,0.05,,,0.17,VWS V14.01,2013-02-19 13:33:00,
2013-02-19 07:34:00,62.2,57.0,30.03,South,180,2.0,2.0,83,0.05,,,0.17,VWS V14.01,2013-02-19 13:34:00,
2013-02-19 07:35:00,62.1,56.5,30.06,WNW,292,0.0,1.1,82,0.00,,,0.17,VWS V14.01,2013-02-19 13:35:00,
2013-02-19 07:36:00,62.2,57.0,30.03,SSE,158,1.6,3.1,83,0.05,,,0.17,VWS V14.01,2013-02-19 13:36:00,
2013-02-19 07:37:00,62.2,57.0,30.03,SSE,158,0.0,1.6,83,0.05,,,0.17,VWS V14.01,2013-02-19 13:37:00,
2013-02-19 07:38:00,62.2,57.0,30.03,SSE,158,2.0,2.0,83,0.05,,,0.17,VWS V14.01,2013-02-19 13:38:00,
2013-02-19 07:39:00,62.2,57.0,30.03,SSW,202,2.5,2.7,83,0.05,,,0.17,VWS V14.01,2013-02-19 13:39:00,
2013-02-19 07:40:00,62.1,56.5,30.06,North,0,1.6,1.6,82,0.00,,,0.17,VWS V14.01,2013-02-19 13:40:00,
2013-02-19 07:41:00,62.2,57.0,30.03,SSW,202,2.0,2.0,83,0.05,,,0.17,VWS V14.01,2013-02-19 13:41:00,
2013-02-19 07:42:00,62.2,57.0,30.03,South,180,0.0,2.5,83,0.05,,,0.17,VWS V14.01,2013-02-19 13:42:00,
2013-02-19 07:43:00,62.2,57.0,30.03,South,180,2.0,2.2,83,0.05,,,0.17,VWS V14.01,2013-02-19 13:43:00,
2013-02-19 07:44:00,62.2,57.0,30.03,South,180,2.5,2.7,83,0.05,,,0.17,VWS V14.01,2013-02-19 13:44:00,
2013-02-19 07:45:00,62.1,56.2,30.09,NNW,338,2.9,2.9,81,0.04,,,0.21,VWS V14.01,2013-02-19 13:45:00,
2013-02-19 07:46:00,62.2,57.0,30.03,South,180,1.6,2.7,83,0.05,,,0.17,VWS V14.01,2013-02-19 13:46:00,
2013-02-19 07:47:00,62.2,57.0,30.03,South,180,1.3,1.6,83,0.05,,,0.17,VWS V14.01,2013-02-19 13:47:00,
2013-02-19 07:48:00,62.2,57.0,30.03,South,180,2.5,2.5,83,0.05,,,0.17,VWS V14.01,2013-02-19 13:48:00,
2013-02-19 07:49:00,62.2,57.0,30.03,South,180,1.3,2.5,83,0.05,,,0.17,VWS V14.01,2013-02-19 13:49:00,
2013-02-19 07:50:00,62.1,56.2,30.09,NNW,338,1.1,3.4,81,0.04,,,0.21,VWS V14.01,2013-02-19 13:50:00,
2013-02-19 07:51:00,62.2,56.7,30.03,SSE,158,0.0,2.0,82,0.05,,,0.17,VWS V14.01,2013-02-19 13:51:00,
2013-02-19 07:52:00,62.2,56.7,30.03,SSE,158,0.0,0.0,82,0.05,,,0.17,VWS V14.01,2013-02-19 13:52:00,
2013-02-19 07:53:00,62.2,56.7,30.03,SSE,158,0.0,0.0,82,0.05,,,0.17,VWS V14.01,2013-02-19 13:53:00,
2013-02-19 07:54:00,62.2,56.7,30.03,SSE,158,1.3,2.0,82,0.05,,,0.17,VWS V14.01,2013-02-19 13:54:00,
2013-02-19 07:55:00,62.1,56.2,30.09,NNW,338,2.9,4.7,81,0.04,,,0.21,VWS V14.01,2013-02-19 13:55:00,
2013-02-19 07:56:00,62.2,56.7,30.00,SSE,158,0.0,1.1,82,0.05,,,0.17,VWS V14.01,2013-02-19 13:56:00,
2013-02-19 07:57:00,62.2,56.7,30.00,SSE,158,0.0,1.1,82,0.05,,,0.17,VWS V14.01,2013-02-19 13:57:00,
2013-02-19 07:58:00,62.2,56.7,30.00,SSE,158,0.0,0.0,82,0.05,,,0.17,VWS V14.01,2013-02-19 13:58:00,
2013-02-19 07:59:00,62.2,56.7,30.00,SSE,158,0.0,0.0,82,0.05,,,0.17,VWS V14.01,2013-02-19 13:59:00,
2013-02-19 08:00:00,62.1,55.8,30.09,NNW,338,2.9,5.6,80,0.04,,,0.21,VWS V14.01,2013-02-19 14:00:00,
2013-02-19 08:01:00,62.2,56.7,30.00,SSE,158,0.0,2.0,82,0.05,,,0.17,VWS V14.01,2013-02-19 14:01:00,
2013-02-19 08:02:00,62.2,56.7,30.00,SSE,158,1.6,2.0,82,0.05,,,0.17,VWS V14.01,2013-02-19 14:02:00,
2013-02-19 08:03:00,62.2,56.7,30.00,SSE,158,2.5,2.5,82,0.00,,,0.17,VWS V14.01,2013-02-19 14:03:00,
2013-02-19 08:04:00,62.1,56.5,30.00,SSE,158,1.3,3.6,82,0.00,,,0.17,VWS V14.01,2013-02-19 14:04:00,
2013-02-19 08:05:00,61.9,55.3,30.09,North,0,1.3,3.4,79,0.04,,,0.21,VWS V14.01,2013-02-19 14:05:00,
2013-02-19 08:06:00,62.1,56.5,30.00,South,180,2.0,2.0,82,0.00,,,0.17,VWS V14.01,2013-02-19 14:06:00,
2013-02-19 08:07:00,62.2,56.7,30.00,SSE,158,1.3,2.0,82,0.00,,,0.17,VWS V14.01,2013-02-19 14:07:00,
2013-02-19 08:10:00,61.9,55.0,30.09,NNW,338,3.8,3.8,78,0.04,,,0.21,VWS V14.01,2013-02-19 14:10:00,
2013-02-19 08:11:00,62.2,56.7,30.03,West,270,2.0,2.2,82,0.00,,,0.17,VWS V14.01,2013-02-19 14:11:00,
2013-02-19 08:12:00,62.2,56.7,30.03,WSW,248,0.9,2.0,82,0.00,,,0.17,VWS V14.01,2013-02-19 14:12:00,
2013-02-19 08:13:00,62.1,56.5,30.03,WSW,248,0.0,2.0,82,0.00,,,0.17,VWS V14.01,2013-02-19 14:13:00,
2013-02-19 08:14:00,62.1,56.5,30.03,WSW,248,0.0,0.0,82,0.00,,,0.17,VWS V14.01,2013-02-19 14:14:00,
2013-02-19 08:15:00,61.9,54.6,30.09,North,0,1.3,1.3,77,0.04,,,0.21,VWS V14.01,2013-02-19 14:15:00,
2013-02-19 08:17:00,62.1,56.5,30.03,WSW,248,0.9,3.6,82,0.00,,,0.17,VWS V14.01,2013-02-19 14:17:00,
2013-02-19 08:18:00,62.1,56.5,30.03,WSW,248,2.0,2.7,82,0.00,,,0.17,VWS V14.01,2013-02-19 14:18:00,
2013-02-19 08:19:00,62.1,56.5,30.03,WSW,248,1.1,2.5,82,0.00,,,0.17,VWS V14.01,2013-02-19 14:19:00,
2013-02-19 08:20:00,61.9,54.6,30.09,NNW,338,2.5,2.7,77,0.04,,,0.21,VWS V14.01,2013-02-19 14:20:00,
2013-02-19 08:21:00,62.1,56.5,30.03,WSW,248,1.1,2.2,82,0.00,,,0.17,VWS V14.01,2013-02-19 14:21:00,
2013-02-19 08:22:00,62.1,56.5,30.03,WSW,248,0.0,1.1,82,0.00,,,0.17,VWS V14.01,2013-02-19 14:22:00,
2013-02-19 08:23:00,62.1,56.2,30.03,WSW,248,0.0,0.0,81,0.00,,,0.17,VWS V14.01,2013-02-19 14:23:00,
2013-02-19 08:24:00,62.1,56.2,30.03,WSW,248,0.0,0.0,81,0.00,,,0.17,VWS V14.01,2013-02-19 14:24:00,
2013-02-19 08:25:00,61.9,54.6,30.09,North,0,4.0,4.0,77,0.04,,,0.21,VWS V14.01,2013-02-19 14:25:00,
2013-02-19 08:26:00,62.1,56.2,30.06,WSW,248,0.0,0.0,81,0.00,,,0.17,VWS V14.01,2013-02-19 14:26:00,
2013-02-19 08:27:00,62.1,56.2,30.06,WSW,248,0.0,0.0,81,0.00,,,0.17,VWS V14.01,2013-02-19 14:27:00,
2013-02-19 08:28:00,62.1,56.2,30.06,WSW,248,0.0,1.6,81,0.00,,,0.17,VWS V14.01,2013-02-19 14:28:00,
2013-02-19 08:29:00,62.1,56.2,30.06,WSW,248,0.0,0.0,81,0.00,,,0.17,VWS V14.01,2013-02-19 14:29:00,
2013-02-19 08:30:00,61.7,54.4,30.09,NNW,338,1.6,2.7,77,0.04,,,0.21,VWS V14.01,2013-02-19 14:30:00,
2013-02-19 08:31:00,62.1,56.2,30.06,WSW,248,0.0,0.0,81,0.00,,,0.17,VWS V14.01,2013-02-19 14:31:00,
2013-02-19 08:32:00,62.1,56.2,30.06,WSW,248,0.0,0.0,81,0.00,,,0.17,VWS V14.01,2013-02-19 14:32:00,
2013-02-19 08:33:00,62.1,56.2,30.06,WSW,248,0.0,0.0,81,0.00,,,0.17,VWS V14.01,2013-02-19 14:33:00,
2013-02-19 08:34:00,62.1,56.2,30.06,WSW,248,0.0,0.0,81,0.00,,,0.17,VWS V14.01,2013-02-19 14:34:00,
2013-02-19 08:35:00,61.7,54.4,30.09,NNE,22,2.9,2.9,77,0.04,,,0.21,VWS V14.01,2013-02-19 14:35:00,
2013-02-19 08:36:00,62.1,56.2,30.06,WNW,292,0.0,3.4,81,0.00,,,0.17,VWS V14.01,2013-02-19 14:36:00,
2013-02-19 08:37:00,62.1,56.2,30.06,WNW,292,0.0,0.0,81,0.00,,,0.17,VWS V14.01,2013-02-19 14:37:00,
2013-02-19 08:38:00,62.1,56.2,30.06,WNW,292,0.0,0.0,81,0.00,,,0.17,VWS V14.01,2013-02-19 14:38:00,
2013-02-19 08:39:00,62.1,56.2,30.06,WNW,292,0.0,0.0,81,0.00,,,0.17,VWS V14.01,2013-02-19 14:39:00,
2013-02-19 08:40:00,61.9,54.6,30.09,NNW,338,4.0,4.0,77,0.04,,,0.21,VWS V14.01,2013-02-19 14:40:00,
2013-02-19 08:41:00,62.1,56.5,30.06,WNW,292,0.0,0.0,82,0.00,,,0.17,VWS V14.01,2013-02-19 14:41:00,
2013-02-19 08:42:00,62.1,56.2,30.06,WNW,292,0.0,0.0,81,0.00,,,0.17,VWS V14.01,2013-02-19 14:42:00,
2013-02-19 08:43:00,62.2,56.7,30.06,WNW,292,0.0,0.0,82,0.00,,,0.17,VWS V14.01,2013-02-19 14:43:00,
2013-02-19 08:44:00,62.1,56.5,30.06,WNW,292,0.0,0.0,82,0.00,,,0.17,VWS V14.01,2013-02-19 14:44:00,
2013-02-19 08:45:00,61.9,53.9,30.09,NNE,22,4.9,4.9,75,0.00,,,0.21,VWS V14.01,2013-02-19 14:45:00,
2013-02-19 08:46:00,62.1,56.5,30.06,ESE,112,1.3,3.1,82,0.00,,,0.17,VWS V14.01,2013-02-19 14:46:00,
2013-02-19 08:47:00,62.2,56.7,30.06,NNW,338,2.5,2.5,82,0.00,,,0.17,VWS V14.01,2013-02-19 14:47:00,
2013-02-19 08:49:00,62.2,56.7,30.06,NNW,338,3.6,4.0,82,0.00,,,0.17,VWS V14.01,2013-02-19 14:49:00,
2013-02-19 08:50:00,61.7,53.3,30.09,NNW,338,2.9,2.9,74,0.00,,,0.21,VWS V14.01,2013-02-19 14:50:00,
2013-02-19 08:51:00,62.2,56.7,30.06,NNW,338,0.0,0.0,82,0.00,,,0.17,VWS V14.01,2013-02-19 14:51:00,
2013-02-19 08:52:00,62.2,56.7,30.06,WNW,292,2.0,2.0,82,0.00,,,0.17,VWS V14.01,2013-02-19 14:52:00,
2013-02-19 08:53:00,62.1,56.5,30.06,NNW,338,1.3,3.1,82,0.00,,,0.17,VWS V14.01,2013-02-19 14:53:00,
2013-02-19 08:54:00,62.1,56.5,30.06,NW,315,1.6,3.1,82,0.00,,,0.17,VWS V14.01,2013-02-19 14:54:00,
2013-02-19 08:55:00,61.7,53.0,30.09,North,0,6.0,6.0,73,0.00,,,0.21,VWS V14.01,2013-02-19 14:55:00,
2013-02-19 08:56:00,62.1,56.5,30.06,NE,45,1.6,1.6,82,0.00,,,0.17,VWS V14.01,2013-02-19 14:56:00,
2013-02-19 08:57:00,62.2,56.7,30.06,ESE,112,0.0,2.7,82,0.00,,,0.17,VWS V14.01,2013-02-19 14:57:00,
2013-02-19 08:58:00,62.1,56.5,30.06,WNW,292,2.9,2.9,82,0.00,,,0.17,VWS V14.01,2013-02-19 14:58:00,
2013-02-19 08:59:00,62.1,56.5,30.06,WNW,292,1.1,2.9,82,0.00,,,0.17,VWS V14.01,2013-02-19 14:59:00,
2013-02-19 09:00:00,61.7,53.0,30.12,North,0,2.2,3.6,73,0.00,,,0.21,VWS V14.01,2013-02-19 15:00:00,
2013-02-19 09:01:00,62.1,56.5,30.06,WNW,292,1.1,1.1,82,0.00,,,0.17,VWS V14.01,2013-02-19 15:01:00,
2013-02-19 09:02:00,62.1,56.5,30.06,WNW,292,0.9,2.7,82,0.00,,,0.17,VWS V14.01,2013-02-19 15:02:00,
2013-02-19 09:03:00,62.1,56.5,30.06,NNE,22,4.3,4.3,82,0.00,,,0.17,VWS V14.01,2013-02-19 15:03:00,
2013-02-19 09:05:00,61.7,52.6,30.12,NNE,22,3.6,3.6,72,0.00,,,0.21,VWS V14.01,2013-02-19 15:05:00,
2013-02-19 09:06:00,62.1,56.5,30.06,North,0,0.0,1.6,82,0.00,,,0.17,VWS V14.01,2013-02-19 15:06:00,
2013-02-19 09:07:00,62.1,56.5,30.06,North,0,0.0,0.0,82,0.04,,,0.21,VWS V14.01,2013-02-19 15:07:00,
2013-02-19 09:08:00,62.1,56.5,30.06,WNW,292,0.0,0.0,82,0.04,,,0.21,VWS V14.01,2013-02-19 15:08:00,
2013-02-19 09:09:00,62.1,56.2,30.06,WNW,292,2.2,2.7,81,0.04,,,0.21,VWS V14.01,2013-02-19 15:09:00,
2013-02-19 09:10:00,61.5,52.0,30.12,NNE,22,2.7,3.6,71,0.00,,,0.21,VWS V14.01,2013-02-19 15:10:00,
2013-02-19 09:11:00,62.1,56.2,30.09,NNW,338,1.6,3.1,81,0.04,,,0.21,VWS V14.01,2013-02-19 15:11:00,
2013-02-19 09:12:00,61.9,56.0,30.09,NNW,338,2.7,2.7,81,0.04,,,0.21,VWS V14.01,2013-02-19 15:12:00,
2013-02-19 09:13:00,61.9,56.0,30.09,North,0,5.6,5.6,81,0.04,,,0.21,VWS V14.01,2013-02-19 15:13:00,
2013-02-19 09:14:00,62.1,56.2,30.09,NNW,338,2.0,5.6,81,0.04,,,0.21,VWS V14.01,2013-02-19 15:14:00,
2013-02-19 09:15:00,61.5,52.0,30.12,North,0,3.8,3.8,71,0.00,,,0.21,VWS V14.01,2013-02-19 15:15:00,
2013-02-19 09:16:00,62.1,56.2,30.09,WNW,292,1.3,3.4,81,0.04,,,0.21,VWS V14.01,2013-02-19 15:16:00,
2013-02-19 09:17:00,62.1,56.2,30.09,WNW,292,3.4,3.4,81,0.04,,,0.21,VWS V14.01,2013-02-19 15:17:00,
2013-02-19 09:18:00,62.1,56.2,30.09,NNW,338,1.3,3.4,81,0.04,,,0.21,VWS V14.01,2013-02-19 15:18:00,
2013-02-19 09:19:00,62.1,56.2,30.09,NNW,338,0.0,2.5,81,0.04,,,0.21,VWS V14.01,2013-02-19 15:19:00,
2013-02-19 09:20:00,61.5,52.0,30.12,NNW,338,4.7,4.7,71,0.00,,,0.21,VWS V14.01,2013-02-19 15:20:00,
2013-02-19 09:21:00,62.1,56.2,30.09,NNW,338,2.5,4.7,81,0.04,,,0.21,VWS V14.01,2013-02-19 15:21:00,
2013-02-19 09:22:00,62.1,55.8,30.09,NNW,338,3.1,3.1,80,0.04,,,0.21,VWS V14.01,2013-02-19 15:22:00,
2013-02-19 09:23:00,62.1,55.8,30.09,North,0,4.9,6.0,80,0.04,,,0.21,VWS V14.01,2013-02-19 15:23:00,
2013-02-19 09:24:00,62.1,55.8,30.09,NNW,338,4.9,4.9,80,0.04,,,0.21,VWS V14.01,2013-02-19 15:24:00,
2013-02-19 09:25:00,61.3,51.9,30.12,North,0,2.9,3.6,71,0.00,,,0.21,VWS V14.01,2013-02-19 15:25:00,
2013-02-19 09:26:00,62.1,55.8,30.09,WNW,292,2.0,2.9,80,0.04,,,0.21,VWS V14.01,2013-02-19 15:26:00,
2013-02-19 09:27:00,62.1,55.8,30.09,North,0,2.7,2.7,80,0.04,,,0.21,VWS V14.01,2013-02-19 15:27:00,
2013-02-19 09:28:00,62.1,55.5,30.09,WSW,248,1.1,3.4,79,0.04,,,0.21,VWS V14.01,2013-02-19 15:28:00,
2013-02-19 09:29:00,62.1,55.5,30.09,West,270,4.7,5.8,79,0.04,,,0.21,VWS V14.01,2013-02-19 15:29:00,
2013-02-19 09:30:00,61.5,52.0,30.15,NE,45,4.3,4.3,71,0.00,,,0.21,VWS V14.01,2013-02-19 15:30:00,
2013-02-19 09:31:00,61.9,55.3,30.09,North,0,2.2,3.4,79,0.04,,,0.21,VWS V14.01,2013-02-19 15:31:00,
2013-02-19 09:32:00,62.1,55.5,30.09,North,0,2.2,2.9,79,0.04,,,0.21,VWS V14.01,2013-02-19 15:32:00,
2013-02-19 09:33:00,61.9,55.3,30.09,NNW,338,3.4,3.4,79,0.04,,,0.21,VWS V14.01,2013-02-19 15:33:00,
2013-02-19 09:34:00,61.9,55.0,30.09,NNW,338,0.9,4.7,78,0.04,,,0.21,VWS V14.01,2013-02-19 15:34:00,
2013-02-19 09:35:00,61.5,51.7,30.15,NNE,22,2.9,4.9,70,0.00,,,0.21,VWS V14.01,2013-02-19 15:35:00,
2013-02-19 09:36:00,61.9,55.0,30.09,NW,315,3.6,3.8,78,0.04,,,0.21,VWS V14.01,2013-02-19 15:36:00,
2013-02-19 09:37:00,61.9,55.0,30.09,NNW,338,4.3,4.3,78,0.04,,,0.21,VWS V14.01,2013-02-19 15:37:00,
2013-02-19 09:38:00,61.9,55.0,30.09,NNW,338,2.5,4.3,78,0.04,,,0.21,VWS V14.01,2013-02-19 15:38:00,
2013-02-19 09:39:00,61.9,55.0,30.09,NNW,338,2.5,2.5,78,0.04,,,0.21,VWS V14.01,2013-02-19 15:39:00,
2013-02-19 09:40:00,61.5,50.9,30.15,NNW,338,4.5,4.5,68,0.00,,,0.21,VWS V14.01,2013-02-19 15:40:00,
2013-02-19 09:41:00,61.9,54.6,30.09,North,0,2.0,3.6,77,0.04,,,0.21,VWS V14.01,2013-02-19 15:41:00,
2013-02-19 09:42:00,61.9,54.6,30.09,North,0,3.1,3.1,77,0.04,,,0.21,VWS V14.01,2013-02-19 15:42:00,
2013-02-19 09:43:00,61.9,54.6,30.09,North,0,2.0,3.1,77,0.04,,,0.21,VWS V14.01,2013-02-19 15:43:00,
2013-02-19 09:44:00,61.9,54.6,30.09,North,0,2.0,2.0,77,0.04,,,0.21,VWS V14.01,2013-02-19 15:44:00,
2013-02-19 09:45:00,61.3,49.9,30.15,NNE,22,5.6,5.6,66,0.00,,,0.21,VWS V14.01,2013-02-19 15:45:00,
2013-02-19 09:46:00,61.9,54.6,30.09,NNW,338,2.5,3.4,77,0.04,,,0.21,VWS V14.01,2013-02-19 15:46:00,
2013-02-19 09:47:00,61.9,54.6,30.09,NNW,338,1.3,3.8,77,0.04,,,0.21,VWS V14.01,2013-02-19 15:47:00,
2013-02-19 09:48:00,61.9,54.6,30.09,NNW,338,0.0,1.6,77,0.04,,,0.21,VWS V14.01,2013-02-19 15:48:00,
2013-02-19 09:49:00,61.9,54.6,30.09,NNW,338,3.6,3.6,77,0.04,,,0.21,VWS V14.01,2013-02-19 15:49:00,
2013-02-19 09:50:00,61.5,49.7,30.15,North,0,4.3,4.3,65,0.00,,,0.21,VWS V14.01,2013-02-19 15:50:00,
2013-02-19 09:51:00,61.9,54.6,30.09,North,0,2.9,4.0,77,0.04,,,0.21,VWS V14.01,2013-02-19 15:51:00,
2013-02-19 09:52:00,61.9,54.6,30.09,NNW,338,5.6,5.6,77,0.04,,,0.21,VWS V14.01,2013-02-19 15:52:00,
2013-02-19 09:53:00,61.9,54.6,30.09,NNW,338,2.2,5.6,77,0.04,,,0.21,VWS V14.01,2013-02-19 15:53:00,
2013-02-19 09:54:00,61.9,54.6,30.09,NNW,338,1.1,2.2,77,0.04,,,0.21,VWS V14.01,2013-02-19 15:54:00,
2013-02-19 09:55:00,61.7,48.6,30.15,NW,315,3.8,5.8,62,0.00,,,0.21,VWS V14.01,2013-02-19 15:55:00,
2013-02-19 09:56:00,61.7,54.4,30.09,NNW,338,1.3,2.7,77,0.04,,,0.21,VWS V14.01,2013-02-19 15:56:00,
2013-02-19 09:57:00,61.9,54.6,30.09,NNW,338,2.0,2.9,77,0.04,,,0.21,VWS V14.01,2013-02-19 15:57:00,
2013-02-19 09:58:00,61.9,54.6,30.09,NNW,338,3.6,3.6,77,0.04,,,0.21,VWS V14.01,2013-02-19 15:58:00,
2013-02-19 09:59:00,61.9,54.6,30.09,North,0,4.0,4.0,77,0.04,,,0.21,VWS V14.01,2013-02-19 15:59:00,
2013-02-19 10:00:00,61.9,47.4,30.15,NNW,338,6.3,6.3,59,0.00,,,0.21,VWS V14.01,2013-02-19 16:00:00,
2013-02-19 10:01:00,61.7,54.4,30.09,NNW,338,2.5,3.6,77,0.04,,,0.21,VWS V14.01,2013-02-19 16:01:00,
2013-02-19 10:02:00,61.9,54.6,30.09,North,0,3.4,3.4,77,0.04,,,0.21,VWS V14.01,2013-02-19 16:02:00,
2013-02-19 10:03:00,61.9,54.6,30.09,North,0,4.0,5.8,77,0.04,,,0.21,VWS V14.01,2013-02-19 16:03:00,
2013-02-19 10:04:00,61.9,54.6,30.09,NNW,338,2.5,4.0,77,0.04,,,0.21,VWS V14.01,2013-02-19 16:04:00,
2013-02-19 10:05:00,61.9,46.0,30.15,NNW,338,7.4,10.1,56,0.00,,,0.21,VWS V14.01,2013-02-19 16:05:00,
2013-02-19 10:06:00,61.9,54.6,30.09,NNW,338,2.0,4.0,77,0.04,,,0.21,VWS V14.01,2013-02-19 16:06:00,
2013-02-19 10:07:00,61.7,54.1,30.09,NNW,338,3.6,7.8,76,0.04,,,0.21,VWS V14.01,2013-02-19 16:07:00,
2013-02-19 10:08:00,61.7,54.1,30.09,NNE,22,4.9,4.9,76,0.00,,,0.21,VWS V14.01,2013-02-19 16:08:00,
2013-02-19 10:09:00,61.9,54.2,30.09,NNE,22,3.6,4.9,76,0.00,,,0.21,VWS V14.01,2013-02-19 16:09:00,
2013-02-19 10:10:00,62.2,47.3,30.15,NNE,22,10.3,10.7,58,0.00,,,0.21,VWS V14.01,2013-02-19 16:10:00,
2013-02-19 10:11:00,61.9,53.9,30.09,NNE,22,2.7,4.9,75,0.00,,,0.21,VWS V14.01,2013-02-19 16:11:00,
2013-02-19 10:12:00,61.9,53.9,30.09,NNE,22,2.0,2.7,75,0.00,,,0.21,VWS V14.01,2013-02-19 16:12:00,
2013-02-19 10:13:00,61.9,53.9,30.09,NNW,338,3.8,3.8,75,0.00,,,0.21,VWS V14.01,2013-02-19 16:13:00,
2013-02-19 10:14:00,61.7,53.7,30.09,WNW,292,3.6,6.0,75,0.00,,,0.21,VWS V14.01,2013-02-19 16:14:00,
2013-02-19 10:15:00,62.4,47.5,30.15,NNW,338,7.4,7.4,58,0.00,,,0.21,VWS V14.01,2013-02-19 16:15:00,
2013-02-19 10:16:00,61.7,53.3,30.09,North,0,2.0,2.9,74,0.00,,,0.21,VWS V14.01,2013-02-19 16:16:00,
2013-02-19 10:17:00,61.7,53.0,30.09,NNW,338,2.5,2.5,73,0.00,,,0.21,VWS V14.01,2013-02-19 16:17:00,
2013-02-19 10:18:00,61.7,53.0,30.09,NW,315,3.1,5.6,73,0.00,,,0.21,VWS V14.01,2013-02-19 16:18:00,
2013-02-19 10:19:00,61.7,53.0,30.09,North,0,3.4,3.4,73,0.00,,,0.21,VWS V14.01,2013-02-19 16:19:00,
2013-02-19 10:20:00,62.2,44.9,30.15,NNE,22,5.4,5.4,53,0.00,,,0.21,VWS V14.01,2013-02-19 16:20:00,
2013-02-19 10:21:00,61.7,53.0,30.09,WNW,292,3.6,6.0,73,0.00,,,0.21,VWS V14.01,2013-02-19 16:21:00,
2013-02-19 10:22:00,61.7,53.0,30.09,WNW,292,3.6,3.6,73,0.00,,,0.21,VWS V14.01,2013-02-19 16:22:00,
2013-02-19 10:23:00,61.7,53.0,30.09,NNW,338,4.3,4.9,73,0.00,,,0.21,VWS V14.01,2013-02-19 16:23:00,
2013-02-19 10:24:00,61.7,53.0,30.09,NNW,338,3.8,4.3,73,0.00,,,0.21,VWS V14.01,2013-02-19 16:24:00,
2013-02-19 10:25:00,62.2,44.4,30.15,NNW,338,10.7,10.7,52,0.00,,,0.21,VWS V14.01,2013-02-19 16:25:00,
2013-02-19 10:26:00,61.7,52.6,30.12,NNE,22,3.6,3.6,72,0.00,,,0.21,VWS V14.01,2013-02-19 16:26:00,
2013-02-19 10:28:00,61.7,52.6,30.12,NE,45,4.7,4.7,72,0.00,,,0.21,VWS V14.01,2013-02-19 16:28:00,
2013-02-19 10:29:00,61.7,52.6,30.12,NE,45,5.4,5.4,72,0.00,,,0.21,VWS V14.01,2013-02-19 16:29:00,
2013-02-19 10:30:00,62.4,44.1,30.15,North,0,3.8,5.6,51,0.00,,,0.21,VWS V14.01,2013-02-19 16:30:00,
2013-02-19 10:31:00,61.7,52.6,30.12,NNE,22,3.6,3.6,72,0.00,,,0.21,VWS V14.01,2013-02-19 16:31:00,
2013-02-19 10:32:00,61.7,52.6,30.12,NNE,22,3.6,3.6,72,0.00,,,0.21,VWS V14.01,2013-02-19 16:32:00,
2013-02-19 10:33:00,61.7,52.6,30.12,NNW,338,2.0,5.4,72,0.00,,,0.21,VWS V14.01,2013-02-19 16:33:00,
2013-02-19 10:34:00,61.7,52.6,30.12,NNE,22,4.3,5.4,72,0.00,,,0.21,VWS V14.01,2013-02-19 16:34:00,
2013-02-19 10:35:00,62.6,44.8,30.15,WNW,292,1.6,3.1,52,0.00,,,0.21,VWS V14.01,2013-02-19 16:35:00,
2013-02-19 10:36:00,61.5,52.0,30.12,NNE,22,4.3,4.3,71,0.00,,,0.21,VWS V14.01,2013-02-19 16:36:00,
2013-02-19 10:37:00,61.5,52.0,30.12,North,0,4.9,5.6,71,0.00,,,0.21,VWS V14.01,2013-02-19 16:37:00,
2013-02-19 10:38:00,61.5,52.0,30.12,NNW,338,4.9,4.9,71,0.00,,,0.21,VWS V14.01,2013-02-19 16:38:00,
2013-02-19 10:39:00,61.5,52.0,30.12,NNW,338,3.1,5.4,71,0.00,,,0.21,VWS V14.01,2013-02-19 16:39:00,
2013-02-19 10:40:00,62.8,44.4,30.15,NNE,22,2.5,2.5,51,0.00,,,0.21,VWS V14.01,2013-02-19 16:40:00,
2013-02-19 10:41:00,61.5,52.0,30.12,NNE,22,0.9,3.8,71,0.00,,,0.21,VWS V14.01,2013-02-19 16:41:00,
2013-02-19 10:42:00,61.5,52.0,30.12,North,0,1.1,2.0,71,0.00,,,0.21,VWS V14.01,2013-02-19 16:42:00,
2013-02-19 10:43:00,61.5,52.0,30.12,North,0,3.1,3.1,71,0.00,,,0.21,VWS V14.01,2013-02-19 16:43:00,
2013-02-19 10:44:00,61.5,52.0,30.12,NNE,22,3.8,3.8,71,0.00,,,0.21,VWS V14.01,2013-02-19 16:44:00,
2013-02-19 10:45:00,63.0,44.6,30.15,NW,315,2.7,4.0,51,0.00,,,0.21,VWS V14.01,2013-02-19 16:45:00,
2013-02-19 10:46:00,61.3,51.9,30.12,NNW,338,3.1,5.8,71,0.00,,,0.21,VWS V14.01,2013-02-19 16:46:00,
2013-02-19 10:47:00,61.3,51.9,30.12,NNW,338,2.5,3.1,71,0.00,,,0.21,VWS V14.01,2013-02-19 16:47:00,
2013-02-19 10:48:00,61.3,51.5,30.12,NNW,338,6.5,8.5,70,0.00,,,0.21,VWS V14.01,2013-02-19 16:48:00,
2013-02-19 10:49:00,61.3,51.9,30.12,North,0,3.1,6.5,71,0.00,,,0.21,VWS V14.01,2013-02-19 16:49:00,
2013-02-19 10:50:00,62.8,42.3,30.15,NNW,338,8.7,8.7,47,0.00,,,0.21,VWS V14.01,2013-02-19 16:50:00,
2013-02-19 10:51:00,61.3,51.9,30.12,North,0,6.0,6.0,71,0.00,,,0.21,VWS V14.01,2013-02-19 16:51:00,
2013-02-19 10:52:00,61.3,51.9,30.12,North,0,3.4,6.3,71,0.00,,,0.21,VWS V14.01,2013-02-19 16:52:00,
2013-02-19 10:53:00,61.5,52.0,30.12,NNE,22,2.9,4.3,71,0.00,,,0.21,VWS V14.01,2013-02-19 16:53:00,
2013-02-19 10:54:00,61.5,52.0,30.12,North,0,6.3,6.3,71,0.00,,,0.21,VWS V14.01,2013-02-19 16:54:00,
2013-02-19 10:55:00,62.8,41.7,30.15,NW,315,8.5,8.5,46,0.00,,,0.21,VWS V14.01,2013-02-19 16:55:00,
2013-02-19 10:56:00,61.5,52.0,30.15,NW,315,6.0,6.0,71,0.00,,,0.21,VWS V14.01,2013-02-19 16:56:00,
2013-02-19 10:57:00,61.3,51.9,30.15,NNE,22,3.8,7.8,71,0.00,,,0.21,VWS V14.01,2013-02-19 16:57:00,
2013-02-19 10:58:00,61.3,51.5,30.15,North,0,7.8,7.8,70,0.00,,,0.21,VWS V14.01,2013-02-19 16:58:00,
2013-02-19 10:59:00,61.3,51.5,30.15,NNW,338,7.6,7.8,70,0.00,,,0.21,VWS V14.01,2013-02-19 16:59:00,
2013-02-19 11:00:00,62.8,41.2,30.15,WNW,292,4.3,4.3,45,0.00,,,0.21,VWS V14.01,2013-02-19 17:00:00,
2013-02-19 11:01:00,61.5,51.7,30.15,NW,315,3.6,4.9,70,0.00,,,0.21,VWS V14.01,2013-02-19 17:01:00,
2013-02-19 11:02:00,61.5,51.7,30.15,WNW,292,3.1,6.3,70,0.00,,,0.21,VWS V14.01,2013-02-19 17:02:00,
2013-02-19 11:03:00,61.3,51.1,30.15,NNW,338,8.7,8.7,69,0.00,,,0.21,VWS V14.01,2013-02-19 17:03:00,
2013-02-19 11:04:00,61.5,51.3,30.15,North,0,6.0,8.7,69,0.00,,,0.21,VWS V14.01,2013-02-19 17:04:00,
2013-02-19 11:05:00,62.8,41.2,30.15,West,270,1.6,5.4,45,0.00,,,0.21,VWS V14.01,2013-02-19 17:05:00,
2013-02-19 11:06:00,61.5,50.9,30.15,North,0,7.2,12.1,68,0.00,,,0.21,VWS V14.01,2013-02-19 17:06:00,
2013-02-19 11:07:00,61.5,50.9,30.15,North,0,2.5,7.2,68,0.00,,,0.21,VWS V14.01,2013-02-19 17:07:00,
2013-02-19 11:08:00,61.5,50.5,30.15,North,0,2.7,5.6,67,0.00,,,0.21,VWS V14.01,2013-02-19 17:08:00,
2013-02-19 11:09:00,61.3,49.9,30.15,North,0,6.7,10.1,66,0.00,,,0.21,VWS V14.01,2013-02-19 17:09:00,
2013-02-19 11:10:00,62.8,40.6,30.15,North,0,4.3,4.3,44,0.00,,,0.21,VWS V14.01,2013-02-19 17:10:00,
2013-02-19 11:13:00,61.7,50.2,30.15,NNW,338,5.8,7.4,66,0.00,,,0.21,VWS V14.01,2013-02-19 17:13:00,
2013-02-19 11:15:00,62.8,39.4,30.15,NNW,338,9.6,9.6,42,0.00,,,0.21,VWS V14.01,2013-02-19 17:15:00,
2013-02-19 11:16:00,61.5,48.8,30.15,NNW,338,5.6,5.6,63,0.00,,,0.21,VWS V14.01,2013-02-19 17:16:00,
2013-02-19 11:17:00,61.7,49.0,30.15,NNW,338,4.9,6.5,63,0.00,,,0.21,VWS V14.01,2013-02-19 17:17:00,
2013-02-19 11:19:00,61.7,48.6,30.15,NNW,338,6.0,10.3,62,0.00,,,0.21,VWS V14.01,2013-02-19 17:19:00,
2013-02-19 11:20:00,63.0,40.7,30.15,NNW,338,4.9,4.9,44,0.00,,,0.21,VWS V14.01,2013-02-19 17:20:00,
2013-02-19 11:21:00,61.9,48.3,30.15,North,0,5.4,5.8,61,0.00,,,0.21,VWS V14.01,2013-02-19 17:21:00,
2013-02-19 11:23:00,61.9,48.7,30.15,NNW,338,4.0,4.9,62,0.00,,,0.21,VWS V14.01,2013-02-19 17:23:00,
2013-02-19 11:24:00,61.9,47.4,30.15,NNW,338,6.3,6.5,59,0.00,,,0.21,VWS V14.01,2013-02-19 17:24:00,
2013-02-19 11:25:00,63.0,40.1,30.15,WNW,292,4.9,6.3,43,0.00,,,0.21,VWS V14.01,2013-02-19 17:25:00,
2013-02-19 11:26:00,61.9,47.9,30.15,NNW,338,4.3,7.6,60,0.00,,,0.21,VWS V14.01,2013-02-19 17:26:00,
2013-02-19 11:29:00,61.9,46.0,30.15,North,0,10.1,10.1,56,0.00,,,0.21,VWS V14.01,2013-02-19 17:29:00,
2013-02-19 11:30:00,63.0,40.1,30.15,NW,315,3.1,3.1,43,0.00,,,0.21,VWS V14.01,2013-02-19 17:30:00,
2013-02-19 11:31:00,62.1,46.7,30.15,NNE,22,7.6,9.0,57,0.00,,,0.21,VWS V14.01,2013-02-19 17:31:00,
2013-02-19 11:32:00,61.9,46.0,30.15,NNW,338,3.6,10.7,56,0.00,,,0.21,VWS V14.01,2013-02-19 17:32:00,
2013-02-19 11:33:00,61.9,46.0,30.15,NNE,22,4.3,4.9,56,0.00,,,0.21,VWS V14.01,2013-02-19 17:33:00,
2013-02-19 11:34:00,62.1,46.7,30.15,NNE,22,2.7,4.3,57,0.00,,,0.21,VWS V14.01,2013-02-19 17:34:00,
2013-02-19 11:35:00,63.1,40.9,30.15,NNW,338,3.1,3.1,44,0.00,,,0.21,VWS V14.01,2013-02-19 17:35:00,
2013-02-19 11:36:00,62.2,47.3,30.15,NNE,22,4.7,10.7,58,0.00,,,0.21,VWS V14.01,2013-02-19 17:36:00,
2013-02-19 11:38:00,62.6,47.2,30.15,NW,315,4.0,4.7,57,0.00,,,0.21,VWS V14.01,2013-02-19 17:38:00,
2013-02-19 11:39:00,62.6,47.2,30.15,WNW,292,2.7,4.0,57,0.00,,,0.21,VWS V14.01,2013-02-19 17:39:00,
2013-02-19 11:40:00,63.3,40.5,30.15,WNW,292,6.3,6.3,43,0.00,,,0.21,VWS V14.01,2013-02-19 17:40:00,
2013-02-19 11:41:00,62.4,46.1,30.15,NNE,22,6.0,7.4,55,0.00,,,0.21,VWS V14.01,2013-02-19 17:41:00,
2013-02-19 11:42:00,62.6,46.7,30.15,North,0,7.4,7.8,56,0.00,,,0.21,VWS V14.01,2013-02-19 17:42:00,
2013-02-19 11:43:00,62.4,46.5,30.15,NNE,22,10.1,10.1,56,0.00,,,0.21,VWS V14.01,2013-02-19 17:43:00,
2013-02-19 11:44:00,62.4,45.6,30.15,North,0,6.0,10.1,54,0.00,,,0.21,VWS V14.01,2013-02-19 17:44:00,
2013-02-19 11:45:00,63.5,40.6,30.15,North,0,4.3,8.1,43,0.00,,,0.21,VWS V14.01,2013-02-19 17:45:00,
2013-02-19 11:46:00,62.4,45.6,30.15,NNE,22,3.1,5.4,54,0.00,,,0.21,VWS V14.01,2013-02-19 17:46:00,
2013-02-19 11:47:00,62.2,44.4,30.15,NW,315,8.7,10.5,52,0.00,,,0.21,VWS V14.01,2013-02-19 17:47:00,
2013-02-19 11:48:00,62.2,44.4,30.15,NNE,22,9.6,9.6,52,0.00,,,0.21,VWS V14.01,2013-02-19 17:48:00,
2013-02-19 11:49:00,62.4,44.6,30.15,ENE,68,10.7,12.3,52,0.00,,,0.21,VWS V14.01,2013-02-19 17:49:00,
2013-02-19 11:50:00,63.5,38.8,30.15,North,0,3.6,3.6,40,0.00,,,0.21,VWS V14.01,2013-02-19 17:50:00,
2013-02-19 11:51:00,62.2,43.9,30.15,NW,315,3.4,10.7,51,0.00,,,0.21,VWS V14.01,2013-02-19 17:51:00,
2013-02-19 11:53:00,62.2,43.9,30.15,North,0,1.3,5.8,51,0.00,,,0.21,VWS V14.01,2013-02-19 17:53:00,
2013-02-19 11:54:00,62.4,44.1,30.15,WSW,248,3.6,5.6,51,0.00,,,0.21,VWS V14.01,2013-02-19 17:54:00,
2013-02-19 11:55:00,63.7,37.6,30.15,NNW,338,8.1,8.1,38,0.00,,,0.21,VWS V14.01,2013-02-19 17:55:00,
2013-02-19 11:56:00,62.2,43.4,30.15,NNW,338,7.4,7.4,50,0.00,,,0.21,VWS V14.01,2013-02-19 17:56:00,
2013-02-19 11:57:00,62.2,43.4,30.15,North,0,4.3,7.4,50,0.00,,,0.21,VWS V14.01,2013-02-19 17:57:00,
2013-02-19 11:58:00,62.4,44.1,30.15,NNE,22,2.9,4.3,51,0.00,,,0.21,VWS V14.01,2013-02-19 17:58:00,
2013-02-19 11:59:00,62.4,44.6,30.15,WSW,248,3.4,3.4,52,0.00,,,0.21,VWS V14.01,2013-02-19 17:59:00,
2013-02-19 12:00:00,63.7,36.2,30.15,NW,315,2.7,4.0,36,0.00,,,0.21,VWS V14.01,2013-02-19 18:00:00,
2013-02-19 12:01:00,62.6,44.8,30.15,NW,315,3.1,3.4,52,0.00,,,0.21,VWS V14.01,2013-02-19 18:01:00,
2013-02-19 12:02:00,62.6,44.8,30.15,NNW,338,3.6,3.6,52,0.00,,,0.21,VWS V14.01,2013-02-19 18:02:00,
2013-02-19 12:03:00,62.6,44.8,30.15,SW,225,3.1,4.9,52,0.00,,,0.21,VWS V14.01,2013-02-19 18:03:00,
2013-02-19 12:04:00,62.8,44.9,30.15,NNE,22,2.9,4.7,52,0.00,,,0.21,VWS V14.01,2013-02-19 18:04:00,
2013-02-19 12:05:00,64.0,35.1,30.15,NNE,22,9.0,9.0,34,0.00,,,0.21,VWS V14.01,2013-02-19 18:05:00,
2013-02-19 12:06:00,62.8,44.4,30.15,NNW,338,5.4,5.4,51,0.00,,,0.21,VWS V14.01,2013-02-19 18:06:00,
2013-02-19 12:07:00,62.6,43.7,30.15,NNW,338,4.0,5.4,50,0.00,,,0.21,VWS V14.01,2013-02-19 18:07:00,
2013-02-19 12:08:00,62.8,43.9,30.15,NW,315,3.6,4.9,50,0.00,,,0.21,VWS V14.01,2013-02-19 18:08:00,
2013-02-19 12:09:00,62.8,43.9,30.15,NW,315,5.8,5.8,50,0.00,,,0.21,VWS V14.01,2013-02-19 18:09:00,
2013-02-19 12:10:00,63.7,34.1,30.15,NNE,22,2.9,6.3,33,0.00,,,0.21,VWS V14.01,2013-02-19 18:10:00,
2013-02-19 12:11:00,63.0,44.6,30.15,WNW,292,3.1,4.0,51,0.00,,,0.21,VWS V14.01,2013-02-19 18:11:00,
2013-02-19 12:12:00,63.0,44.0,30.15,North,0,4.0,7.4,50,0.00,,,0.21,VWS V14.01,2013-02-19 18:12:00,
2013-02-19 12:13:00,63.0,44.0,30.15,NNE,22,2.5,6.3,50,0.00,,,0.21,VWS V14.01,2013-02-19 18:13:00,
2013-02-19 12:14:00,63.0,44.0,30.15,North,0,8.1,9.6,50,0.00,,,0.21,VWS V14.01,2013-02-19 18:14:00,
2013-02-19 12:15:00,63.9,34.2,30.15,North,0,4.5,5.8,33,0.00,,,0.21,VWS V14.01,2013-02-19 18:15:00,
2013-02-19 12:16:00,62.4,41.4,30.15,NNW,338,14.1,14.1,46,0.00,,,0.21,VWS V14.01,2013-02-19 18:16:00,
2013-02-19 12:17:00,62.6,41.5,30.15,WNW,292,6.7,14.1,46,0.00,,,0.21,VWS V14.01,2013-02-19 18:17:00,
2013-02-19 12:18:00,62.6,42.1,30.15,NNW,338,7.8,7.8,47,0.00,,,0.21,VWS V14.01,2013-02-19 18:18:00,
2013-02-19 12:19:00,63.0,43.0,30.15,North,0,2.0,7.8,48,0.00,,,0.21,VWS V14.01,2013-02-19 18:19:00,
2013-02-19 12:20:00,63.9,33.5,30.15,North,0,8.1,8.1,32,0.00,,,0.21,VWS V14.01,2013-02-19 18:20:00,
2013-02-19 12:21:00,62.8,41.7,30.15,NNW,338,9.8,15.4,46,0.00,,,0.21,VWS V14.01,2013-02-19 18:21:00,
2013-02-19 12:22:00,62.8,41.7,30.15,NNE,22,5.4,9.8,46,0.00,,,0.21,VWS V14.01,2013-02-19 18:22:00,
2013-02-19 12:23:00,62.8,41.7,30.15,NW,315,10.1,10.1,46,0.00,,,0.21,VWS V14.01,2013-02-19 18:23:00,
2013-02-19 12:24:00,62.8,41.2,30.15,North,0,5.4,10.3,45,0.00,,,0.21,VWS V14.01,2013-02-19 18:24:00,
2013-02-19 12:25:00,63.9,33.5,30.15,NNW,338,3.4,3.4,32,0.00,,,0.21,VWS V14.01,2013-02-19 18:25:00,
2013-02-19 12:26:00,62.8,41.7,30.15,NNW,338,4.7,6.3,46,0.00,,,0.21,VWS V14.01,2013-02-19 18:26:00,
2013-02-19 12:27:00,62.8,41.7,30.15,North,0,9.8,9.8,46,0.00,,,0.21,VWS V14.01,2013-02-19 18:27:00,
2013-02-19 12:28:00,62.8,41.7,30.15,NNW,338,5.8,9.8,46,0.00,,,0.21,VWS V14.01,2013-02-19 18:28:00,
2013-02-19 12:29:00,62.8,41.2,30.15,North,0,4.3,6.3,45,0.00,,,0.21,VWS V14.01,2013-02-19 18:29:00,
2013-02-19 12:30:00,64.0,30.3,30.15,NNW,338,5.4,5.4,28,0.00,,,0.21,VWS V14.01,2013-02-19 18:30:00,
2013-02-19 12:31:00,62.8,41.2,30.15,NNW,338,4.3,5.4,45,0.00,,,0.21,VWS V14.01,2013-02-19 18:31:00,
2013-02-19 12:32:00,62.8,40.6,30.15,NNW,338,7.6,10.1,44,0.00,,,0.21,VWS V14.01,2013-02-19 18:32:00,
2013-02-19 12:33:00,62.8,41.2,30.15,NNW,338,6.0,7.6,45,0.00,,,0.21,VWS V14.01,2013-02-19 18:33:00,
2013-02-19 12:34:00,62.8,40.6,30.15,WNW,292,8.7,11.0,44,0.00,,,0.21,VWS V14.01,2013-02-19 18:34:00,
2013-02-19 12:35:00,63.9,29.3,30.15,North,0,8.5,8.5,27,0.00,,,0.21,VWS V14.01,2013-02-19 18:35:00,
2013-02-19 12:36:00,62.8,40.6,30.15,NNW,338,8.1,8.1,44,0.00,,,0.21,VWS V14.01,2013-02-19 18:36:00,
2013-02-19 12:37:00,62.8,40.6,30.15,NNW,338,7.8,9.0,44,0.00,,,0.21,VWS V14.01,2013-02-19 18:37:00,
2013-02-19 12:38:00,62.8,40.0,30.15,NNW,338,8.5,8.5,43,0.00,,,0.21,VWS V14.01,2013-02-19 18:38:00,
2013-02-19 12:39:00,62.6,39.2,30.15,NW,315,6.0,8.5,42,0.00,,,0.21,VWS V14.01,2013-02-19 18:39:00,
2013-02-19 12:40:00,64.0,29.4,30.15,NNW,338,7.2,9.6,27,0.00,,,0.21,VWS V14.01,2013-02-19 18:40:00,
2013-02-19 12:41:00,62.6,39.2,30.15,NNW,338,4.3,9.6,42,0.00,,,0.21,VWS V14.01,2013-02-19 18:41:00,
2013-02-19 12:42:00,62.6,39.2,30.15,NNW,338,4.0,8.7,42,0.00,,,0.21,VWS V14.01,2013-02-19 18:42:00,
2013-02-19 12:43:00,62.8,40.0,30.15,North,0,2.0,5.4,43,0.00,,,0.21,VWS V14.01,2013-02-19 18:43:00,
2013-02-19 12:44:00,63.0,40.7,30.15,NNW,338,1.3,2.0,44,0.00,,,0.21,VWS V14.01,2013-02-19 18:44:00,
2013-02-19 12:45:00,64.2,29.6,30.12,NNE,22,6.5,6.5,27,0.00,,,0.21,VWS V14.01,2013-02-19 18:45:00,
2013-02-19 12:46:00,63.0,40.7,30.15,NNW,338,3.8,4.9,44,0.00,,,0.21,VWS V14.01,2013-02-19 18:46:00,
2013-02-19 12:47:00,63.0,41.3,30.15,NNW,338,8.1,8.1,45,0.00,,,0.21,VWS V14.01,2013-02-19 18:47:00,
2013-02-19 12:48:00,63.0,40.7,30.15,North,0,7.4,8.1,44,0.00,,,0.21,VWS V14.01,2013-02-19 18:48:00,
2013-02-19 12:49:00,63.0,40.1,30.15,NNW,338,6.3,11.0,43,0.00,,,0.21,VWS V14.01,2013-02-19 18:49:00,
2013-02-19 12:50:00,64.2,28.6,30.12,North,0,4.0,4.7,26,0.00,,,0.21,VWS V14.01,2013-02-19 18:50:00,
2013-02-19 12:51:00,63.0,40.1,30.15,North,0,4.3,6.5,43,0.00,,,0.21,VWS V14.01,2013-02-19 18:51:00,
2013-02-19 12:52:00,62.8,38.8,30.15,NNE,22,9.8,9.8,41,0.00,,,0.21,VWS V14.01,2013-02-19 18:52:00,
2013-02-19 12:53:00,62.8,38.8,30.15,North,0,6.0,9.8,41,0.00,,,0.21,VWS V14.01,2013-02-19 18:53:00,
2013-02-19 12:54:00,63.0,40.1,30.15,NNW,338,5.4,6.0,43,0.00,,,0.21,VWS V14.01,2013-02-19 18:54:00,
2013-02-19 12:55:00,64.2,27.7,30.12,WNW,292,5.6,6.5,25,0.00,,,0.21,VWS V14.01,2013-02-19 18:55:00,
2013-02-19 12:56:00,63.0,40.1,30.15,WNW,292,2.9,3.6,43,0.00,,,0.21,VWS V14.01,2013-02-19 18:56:00,
2013-02-19 12:57:00,63.1,40.9,30.15,NNW,338,4.3,4.3,44,0.00,,,0.21,VWS V14.01,2013-02-19 18:57:00,
2013-02-19 12:58:00,63.1,40.9,30.15,West,270,4.0,4.3,44,0.00,,,0.21,VWS V14.01,2013-02-19 18:58:00,
2013-02-19 12:59:00,63.1,40.9,30.15,WNW,292,5.4,5.4,44,0.00,,,0.21,VWS V14.01,2013-02-19 18:59:00,
2013-02-19 13:00:00,64.2,28.6,30.15,NNW,338,6.3,6.3,26,0.00,,,0.21,VWS V14.01,2013-02-19 19:00:00,
2013-02-19 13:01:00,63.1,39.7,30.15,NNW,338,3.1,3.6,42,0.00,,,0.21,VWS V14.01,2013-02-19 19:01:00,
2013-02-19 13:02:00,63.1,39.7,30.15,WNW,292,2.5,4.9,42,0.00,,,0.21,VWS V14.01,2013-02-19 19:02:00,
2013-02-19 13:03:00,63.1,39.7,30.15,NW,315,2.9,3.8,42,0.00,,,0.21,VWS V14.01,2013-02-19 19:03:00,
2013-02-19 13:04:00,63.3,39.2,30.15,NNE,22,4.3,4.3,41,0.00,,,0.21,VWS V14.01,2013-02-19 19:04:00,
2013-02-19 13:05:00,64.4,27.8,30.15,North,0,5.6,5.6,25,0.00,,,0.21,VWS V14.01,2013-02-19 19:05:00,
2013-02-19 13:06:00,63.3,40.5,30.15,North,0,2.5,6.3,43,0.00,,,0.21,VWS V14.01,2013-02-19 19:06:00,
2013-02-19 13:07:00,63.3,40.5,30.15,North,0,2.5,2.5,43,0.00,,,0.21,VWS V14.01,2013-02-19 19:07:00,
2013-02-19 13:08:00,63.5,40.6,30.15,WSW,248,3.6,3.6,43,0.00,,,0.21,VWS V14.01,2013-02-19 19:08:00,
2013-02-19 13:09:00,63.5,40.6,30.15,WSW,248,2.0,3.8,43,0.00,,,0.21,VWS V14.01,2013-02-19 19:09:00,
2013-02-19 13:10:00,64.0,25.5,30.15,NNW,338,8.5,10.1,23,0.00,,,0.21,VWS V14.01,2013-02-19 19:10:00,
2013-02-19 13:11:00,63.5,40.0,30.15,North,0,4.0,8.1,42,0.00,,,0.21,VWS V14.01,2013-02-19 19:11:00,
2013-02-19 13:12:00,63.5,40.6,30.15,WSW,248,4.0,4.0,43,0.00,,,0.21,VWS V14.01,2013-02-19 19:12:00,
2013-02-19 13:13:00,63.5,40.6,30.15,NNW,338,5.8,5.8,43,0.00,,,0.21,VWS V14.01,2013-02-19 19:13:00,
2013-02-19 13:14:00,63.7,39.6,30.15,WNW,292,4.0,5.8,41,0.00,,,0.21,VWS V14.01,2013-02-19 19:14:00,
2013-02-19 13:15:00,64.2,23.5,30.15,NNW,338,7.6,7.6,21,0.00,,,0.21,VWS V14.01,2013-02-19 19:15:00,
2013-02-19 13:16:00,63.5,38.8,30.15,North,0,5.4,5.6,40,0.00,,,0.21,VWS V14.01,2013-02-19 19:16:00,
2013-02-19 13:17:00,63.7,39.6,30.15,NNW,338,3.8,5.4,41,0.00,,,0.21,VWS V14.01,2013-02-19 19:17:00,
2013-02-19 13:18:00,63.7,38.9,30.15,NW,315,5.6,5.6,40,0.00,,,0.21,VWS V14.01,2013-02-19 19:18:00,
2013-02-19 13:19:00,63.7,38.9,30.15,NNW,338,4.3,7.4,40,0.00,,,0.21,VWS V14.01,2013-02-19 19:19:00,
2013-02-19 13:20:00,64.4,20.0,30.15,NNW,338,3.8,4.9,18,0.00,,,0.21,VWS V14.01,2013-02-19 19:20:00,
2013-02-19 13:21:00,63.7,37.6,30.15,WNW,292,3.8,8.1,38,0.00,,,0.21,VWS V14.01,2013-02-19 19:21:00,
2013-02-19 13:22:00,63.7,38.3,30.15,NNW,338,4.9,4.9,39,0.00,,,0.21,VWS V14.01,2013-02-19 19:22:00,
2013-02-19 13:24:00,63.7,36.2,30.15,North,0,2.5,3.1,36,0.00,,,0.21,VWS V14.01,2013-02-19 19:24:00,
2013-02-19 13:25:00,64.4,20.0,30.15,NNW,338,4.0,4.0,18,0.00,,,0.21,VWS V14.01,2013-02-19 19:25:00,
2013-02-19 13:26:00,63.9,35.7,30.15,WNW,292,4.3,4.3,35,0.00,,,0.21,VWS V14.01,2013-02-19 19:26:00,
2013-02-19 13:27:00,63.9,35.7,30.15,NNW,338,3.4,5.6,35,0.00,,,0.21,VWS V14.01,2013-02-19 19:27:00,
2013-02-19 13:28:00,63.9,35.7,30.15,North,0,4.3,4.9,35,0.00,,,0.21,VWS V14.01,2013-02-19 19:28:00,
2013-02-19 13:29:00,63.9,35.0,30.15,NNE,22,3.4,4.7,34,0.00,,,0.21,VWS V14.01,2013-02-19 19:29:00,
2013-02-19 13:30:00,64.4,20.0,30.15,WNW,292,3.8,3.8,18,0.00,,,0.21,VWS V14.01,2013-02-19 19:30:00,
2013-02-19 13:31:00,63.9,35.0,30.15,North,0,3.8,9.0,34,0.00,,,0.21,VWS V14.01,2013-02-19 19:31:00,
2013-02-19 13:32:00,63.7,34.1,30.15,NW,315,7.8,10.3,33,0.00,,,0.21,VWS V14.01,2013-02-19 19:32:00,
2013-02-19 13:33:00,63.7,34.1,30.15,NNW,338,6.9,7.8,33,0.00,,,0.21,VWS V14.01,2013-02-19 19:33:00,
2013-02-19 13:34:00,63.9,34.2,30.15,NNE,22,8.5,8.5,33,0.00,,,0.21,VWS V14.01,2013-02-19 19:34:00,
2013-02-19 13:35:00,64.4,15.8,30.15,NNW,338,7.6,7.6,15,0.00,,,0.21,VWS V14.01,2013-02-19 19:35:00,
2013-02-19 13:36:00,63.5,32.3,30.15,NNE,22,4.0,6.3,31,0.00,,,0.21,VWS V14.01,2013-02-19 19:36:00,
2013-02-19 13:37:00,63.5,32.3,30.15,NNE,22,5.6,8.5,31,0.00,,,0.21,VWS V14.01,2013-02-19 19:37:00,
2013-02-19 13:38:00,63.9,34.2,30.15,NW,315,3.4,8.1,33,0.00,,,0.21,VWS V14.01,2013-02-19 19:38:00,
2013-02-19 13:39:00,63.9,34.2,30.15,North,0,3.8,5.4,33,0.00,,,0.21,VWS V14.01,2013-02-19 19:39:00,
2013-02-19 13:40:00,64.4,15.8,30.15,NNW,338,8.1,8.1,15,0.00,,,0.21,VWS V14.01,2013-02-19 19:40:00,
2013-02-19 13:41:00,63.9,34.2,30.15,WNW,292,8.1,8.1,33,0.00,,,0.21,VWS V14.01,2013-02-19 19:41:00,
2013-02-19 13:42:00,63.9,32.7,30.15,North,0,2.7,8.1,31,0.00,,,0.21,VWS V14.01,2013-02-19 19:42:00,
2013-02-19 13:43:00,63.9,33.5,30.15,NNE,22,2.7,6.0,32,0.00,,,0.21,VWS V14.01,2013-02-19 19:43:00,
2013-02-19 13:45:00,64.4,15.8,30.15,NE,45,4.3,4.3,15,0.00,,,0.21,VWS V14.01,2013-02-19 19:45:00,
2013-02-19 13:46:00,63.9,33.5,30.15,NNE,22,3.6,8.1,32,0.00,,,0.21,VWS V14.01,2013-02-19 19:46:00,
2013-02-19 13:47:00,64.0,33.6,30.15,NNW,338,2.9,4.9,32,0.00,,,0.21,VWS V14.01,2013-02-19 19:47:00,
2013-02-19 13:48:00,63.9,33.5,30.15,WNW,292,10.5,10.5,32,0.00,,,0.21,VWS V14.01,2013-02-19 19:48:00,
2013-02-19 13:49:00,63.9,33.5,30.15,WSW,248,2.7,10.5,32,0.00,,,0.21,VWS V14.01,2013-02-19 19:49:00,
2013-02-19 13:50:00,64.4,15.8,30.15,North,0,3.4,3.4,15,0.00,,,0.21,VWS V14.01,2013-02-19 19:50:00,
2013-02-19 13:51:00,64.0,34.4,30.15,NNW,338,6.3,8.5,33,0.00,,,0.21,VWS V14.01,2013-02-19 19:51:00,
2013-02-19 13:52:00,63.9,32.7,30.15,North,0,5.6,8.5,31,0.00,,,0.21,VWS V14.01,2013-02-19 19:52:00,
2013-02-19 13:53:00,63.9,30.1,30.15,NW,315,3.8,5.8,28,0.00,,,0.21,VWS V14.01,2013-02-19 19:53:00,
2013-02-19 13:54:00,63.9,30.1,30.15,NNE,22,4.0,5.4,28,0.00,,,0.21,VWS V14.01,2013-02-19 19:54:00,
2013-02-19 13:55:00,64.6,15.9,30.15,NNW,338,4.9,8.7,15,0.00,,,0.21,VWS V14.01,2013-02-19 19:55:00,
2013-02-19 13:57:00,63.9,29.3,30.15,NW,315,5.8,12.5,27,0.00,,,0.21,VWS V14.01,2013-02-19 19:57:00,
2013-02-19 13:58:00,63.9,29.3,30.15,NNE,22,2.7,5.8,27,0.00,,,0.21,VWS V14.01,2013-02-19 19:58:00,
2013-02-19 13:59:00,63.9,30.1,30.15,NW,315,8.5,8.5,28,0.00,,,0.21,VWS V14.01,2013-02-19 19:59:00,
2013-02-19 14:00:00,64.6,15.9,30.15,NNW,338,6.5,9.8,15,0.00,,,0.21,VWS V14.01,2013-02-19 20:00:00,
2013-02-19 14:01:00,64.0,29.4,30.15,NNE,22,7.4,8.5,27,0.00,,,0.21,VWS V14.01,2013-02-19 20:01:00,
2013-02-19 14:02:00,64.0,29.4,30.15,NNW,338,11.9,11.9,27,0.00,,,0.21,VWS V14.01,2013-02-19 20:02:00,
2013-02-19 14:03:00,64.0,30.3,30.15,NW,315,4.3,11.9,28,0.00,,,0.21,VWS V14.01,2013-02-19 20:03:00,
2013-02-19 14:04:00,64.0,30.3,30.15,North,0,5.6,5.6,28,0.00,,,0.21,VWS V14.01,2013-02-19 20:04:00,
2013-02-19 14:05:00,64.4,15.8,30.15,NNE,22,7.2,8.5,15,0.00,,,0.21,VWS V14.01,2013-02-19 20:05:00,
2013-02-19 14:06:00,64.2,30.5,30.15,WNW,292,4.3,9.6,28,0.00,,,0.21,VWS V14.01,2013-02-19 20:06:00,
2013-02-19 14:07:00,64.0,30.3,30.15,North,0,12.1,12.1,28,0.00,,,0.21,VWS V14.01,2013-02-19 20:07:00,
2013-02-19 14:08:00,64.0,29.4,30.15,North,0,13.2,13.2,27,0.00,,,0.21,VWS V14.01,2013-02-19 20:08:00,
2013-02-19 14:09:00,64.2,29.6,30.15,NNE,22,2.7,13.2,27,0.00,,,0.21,VWS V14.01,2013-02-19 20:09:00,
2013-02-19 14:10:00,64.6,15.9,30.15,NNE,22,8.5,9.6,15,0.00,,,0.21,VWS V14.01,2013-02-19 20:10:00,
2013-02-19 14:11:00,64.2,29.6,30.12,WNW,292,6.5,10.7,27,0.00,,,0.21,VWS V14.01,2013-02-19 20:11:00,
2013-02-19 14:14:00,64.2,28.6,30.12,NNW,338,2.7,4.9,26,0.00,,,0.21,VWS V14.01,2013-02-19 20:14:00,
2013-02-19 14:15:00,64.4,15.8,30.15,NNE,22,8.1,8.1,15,0.00,,,0.21,VWS V14.01,2013-02-19 20:15:00,
2013-02-19 14:16:00,64.2,28.6,30.12,NNW,338,5.4,8.5,26,0.00,,,0.21,VWS V14.01,2013-02-19 20:16:00,
2013-02-19 14:17:00,64.2,28.6,30.12,NNW,338,4.0,6.3,26,0.00,,,0.21,VWS V14.01,2013-02-19 20:17:00,
2013-02-19 14:18:00,64.2,28.6,30.12,NNW,338,9.6,9.6,26,0.00,,,0.21,VWS V14.01,2013-02-19 20:18:00,
2013-02-19 14:19:00,64.2,27.7,30.12,NNW,338,7.8,10.1,25,0.00,,,0.21,VWS V14.01,2013-02-19 20:19:00,
2013-02-19 14:20:00,64.4,15.8,30.15,NNW,338,7.8,7.8,15,0.00,,,0.21,VWS V14.01,2013-02-19 20:20:00,
2013-02-19 14:21:00,64.2,27.7,30.12,NNE,22,7.4,7.4,25,0.00,,,0.21,VWS V14.01,2013-02-19 20:21:00,
2013-02-19 14:22:00,64.2,27.7,30.12,NE,45,9.6,13.2,25,0.00,,,0.21,VWS V14.01,2013-02-19 20:22:00,
2013-02-19 14:23:00,64.2,27.7,30.12,NNW,338,2.7,9.6,25,0.00,,,0.21,VWS V14.01,2013-02-19 20:23:00,
2013-02-19 14:24:00,64.2,28.6,30.12,NNW,338,3.6,8.5,26,0.00,,,0.21,VWS V14.01,2013-02-19 20:24:00,
2013-02-19 14:25:00,64.4,15.8,30.15,West,270,6.0,6.0,15,0.00,,,0.21,VWS V14.01,2013-02-19 20:25:00,
2013-02-19 14:26:00,64.0,27.5,30.15,NNW,338,3.6,6.3,25,0.00,,,0.21,VWS V14.01,2013-02-19 20:26:00,
2013-02-19 14:27:00,64.0,27.5,30.15,North,0,10.5,10.5,25,0.00,,,0.21,VWS V14.01,2013-02-19 20:27:00,
2013-02-19 14:28:00,64.2,27.7,30.15,NW,315,2.9,10.5,25,0.00,,,0.21,VWS V14.01,2013-02-19 20:28:00,
2013-02-19 14:29:00,64.2,27.7,30.15,North,0,3.4,3.4,25,0.00,,,0.21,VWS V14.01,2013-02-19 20:29:00,
2013-02-19 14:30:00,64.4,15.8,30.15,NW,315,3.1,3.1,15,0.00,,,0.21,VWS V14.01,2013-02-19 20:30:00,
2013-02-19 14:31:00,64.6,28.0,30.15,WNW,292,5.4,7.4,25,0.00,,,0.21,VWS V14.01,2013-02-19 20:31:00,
2013-02-19 14:32:00,64.4,26.9,30.15,NNW,338,9.8,10.1,24,0.00,,,0.21,VWS V14.01,2013-02-19 20:32:00,
2013-02-19 14:33:00,64.4,26.9,30.15,NE,45,8.7,11.0,24,0.00,,,0.21,VWS V14.01,2013-02-19 20:33:00,
2013-02-19 14:35:00,64.6,15.9,30.15,NNW,338,6.5,6.5,15,0.00,,,0.21,VWS V14.01,2013-02-19 20:35:00,
2013-02-19 14:36:00,64.2,26.7,30.15,NNW,338,3.8,10.1,24,0.00,,,0.21,VWS V14.01,2013-02-19 20:36:00,
2013-02-19 14:37:00,64.2,26.7,30.15,WNW,292,3.4,3.8,24,0.00,,,0.21,VWS V14.01,2013-02-19 20:37:00,
2013-02-19 14:38:00,64.2,26.7,30.15,WNW,292,3.4,3.4,24,0.00,,,0.21,VWS V14.01,2013-02-19 20:38:00,
2013-02-19 14:40:00,64.6,15.9,30.15,NNW,338,5.8,5.8,15,0.00,,,0.21,VWS V14.01,2013-02-19 20:40:00,
2013-02-19 14:41:00,64.2,23.5,30.15,NNE,22,3.6,7.6,21,0.00,,,0.21,VWS V14.01,2013-02-19 20:41:00,
2013-02-19 14:42:00,64.4,25.8,30.15,NNE,22,5.6,5.6,23,0.00,,,0.21,VWS V14.01,2013-02-19 20:42:00,
2013-02-19 14:43:00,64.4,25.8,30.15,NNE,22,4.3,5.6,23,0.00,,,0.21,VWS V14.01,2013-02-19 20:43:00,
2013-02-19 14:44:00,64.4,22.5,30.15,NNW,338,8.5,8.5,20,0.00,,,0.21,VWS V14.01,2013-02-19 20:44:00,
2013-02-19 14:45:00,64.6,15.9,30.15,North,0,4.7,5.4,15,0.00,,,0.21,VWS V14.01,2013-02-19 20:45:00,
2013-02-19 14:46:00,64.4,22.5,30.15,WNW,292,4.7,5.4,20,0.00,,,0.21,VWS V14.01,2013-02-19 20:46:00,
2013-02-19 14:47:00,64.4,22.5,30.15,WNW,292,5.4,5.4,20,0.00,,,0.21,VWS V14.01,2013-02-19 20:47:00,
2013-02-19 14:48:00,64.4,22.5,30.15,North,0,3.6,5.6,20,0.00,,,0.21,VWS V14.01,2013-02-19 20:48:00,
2013-02-19 14:50:00,64.4,15.8,30.15,North,0,7.8,7.8,15,0.00,,,0.21,VWS V14.01,2013-02-19 20:50:00,
2013-02-19 14:51:00,64.4,20.0,30.15,NNW,338,2.5,4.0,18,0.00,,,0.21,VWS V14.01,2013-02-19 20:51:00,
2013-02-19 14:52:00,64.4,20.0,30.15,NNW,338,2.5,2.5,18,0.00,,,0.21,VWS V14.01,2013-02-19 20:52:00,
2013-02-19 14:53:00,64.4,20.0,30.15,NNW,338,2.5,2.5,18,0.00,,,0.21,VWS V14.01,2013-02-19 20:53:00,
2013-02-19 14:54:00,64.2,17.1,30.15,North,0,6.0,13.0,16,0.00,,,0.21,VWS V14.01,2013-02-19 20:54:00,
2013-02-19 14:55:00,64.4,15.8,30.15,NNW,338,4.3,5.6,15,0.00,,,0.21,VWS V14.01,2013-02-19 20:55:00,
2013-02-19 14:57:00,64.4,15.8,30.15,North,0,5.8,7.4,15,0.00,,,0.21,VWS V14.01,2013-02-19 20:57:00,
2013-02-19 14:58:00,64.4,15.8,30.15,NNW,338,3.1,5.8,15,0.00,,,0.21,VWS V14.01,2013-02-19 20:58:00,
2013-02-19 14:59:00,64.4,15.8,30.15,NNW,338,10.1,10.1,15,0.00,,,0.21,VWS V14.01,2013-02-19 20:59:00,
2013-02-19 15:00:00,64.4,15.8,30.15,NNE,22,3.4,3.4,15,0.00,,,0.21,VWS V14.01,2013-02-19 21:00:00,
2013-02-19 15:01:00,64.4,15.8,30.15,North,0,5.6,7.6,15,0.00,,,0.21,VWS V14.01,2013-02-19 21:01:00,
2013-02-19 15:02:00,64.4,15.8,30.15,NNW,338,5.6,7.4,15,0.00,,,0.21,VWS V14.01,2013-02-19 21:02:00,
2013-02-19 15:03:00,64.4,15.8,30.15,WNW,292,5.8,10.1,15,0.00,,,0.21,VWS V14.01,2013-02-19 21:03:00,
2013-02-19 15:04:00,64.4,15.8,30.15,NNE,22,5.8,12.5,15,0.00,,,0.21,VWS V14.01,2013-02-19 21:04:00,
2013-02-19 15:05:00,64.2,17.1,30.15,NNW,338,5.4,5.4,16,0.00,,,0.21,VWS V14.01,2013-02-19 21:05:00,
2013-02-19 15:06:00,64.4,15.8,30.15,NNW,338,6.5,8.1,15,0.00,,,0.21,VWS V14.01,2013-02-19 21:06:00,
2013-02-19 15:07:00,64.4,15.8,30.15,NNW,338,4.3,6.5,15,0.00,,,0.21,VWS V14.01,2013-02-19 21:07:00,
2013-02-19 15:08:00,64.4,15.8,30.15,NNW,338,4.3,5.6,15,0.00,,,0.21,VWS V14.01,2013-02-19 21:08:00,
2013-02-19 15:09:00,64.4,15.8,30.15,NNW,338,4.0,4.7,15,0.00,,,0.21,VWS V14.01,2013-02-19 21:09:00,
2013-02-19 15:10:00,64.2,17.1,30.15,NW,315,4.0,4.0,16,0.00,,,0.21,VWS V14.01,2013-02-19 21:10:00,
2013-02-19 15:11:00,64.4,15.8,30.15,NE,45,4.3,4.3,15,0.00,,,0.21,VWS V14.01,2013-02-19 21:11:00,
2013-02-19 15:12:00,64.4,15.8,30.15,NNW,338,6.5,6.5,15,0.00,,,0.21,VWS V14.01,2013-02-19 21:12:00,
2013-02-19 15:13:00,64.4,15.8,30.15,WNW,292,4.9,8.1,15,0.00,,,0.21,VWS V14.01,2013-02-19 21:13:00,
2013-02-19 15:14:00,64.4,15.8,30.15,NNW,338,4.9,4.9,15,0.00,,,0.21,VWS V14.01,2013-02-19 21:14:00,
2013-02-19 15:15:00,64.2,17.1,30.15,NE,45,5.4,6.0,16,0.00,,,0.21,VWS V14.01,2013-02-19 21:15:00,
2013-02-19 15:16:00,64.2,17.1,30.15,NNE,22,3.1,3.4,16,0.00,,,0.21,VWS V14.01,2013-02-19 21:16:00,
2013-02-19 15:17:00,64.4,15.8,30.15,ENE,68,8.7,8.7,15,0.00,,,0.21,VWS V14.01,2013-02-19 21:17:00,
2013-02-19 15:18:00,64.6,15.9,30.15,NNE,22,7.6,8.7,15,0.00,,,0.21,VWS V14.01,2013-02-19 21:18:00,
2013-02-19 15:19:00,64.6,15.9,30.15,NNE,22,8.1,8.1,15,0.00,,,0.21,VWS V14.01,2013-02-19 21:19:00,
2013-02-19 15:20:00,64.2,17.1,30.15,WNW,292,6.3,6.3,16,0.00,,,0.21,VWS V14.01,2013-02-19 21:20:00,
2013-02-19 15:21:00,64.6,15.9,30.15,NNW,338,4.9,8.7,15,0.00,,,0.21,VWS V14.01,2013-02-19 21:21:00,
2013-02-19 15:22:00,64.6,15.9,30.15,NW,315,3.4,9.6,15,0.00,,,0.21,VWS V14.01,2013-02-19 21:22:00,
2013-02-19 15:23:00,64.4,15.8,30.15,North,0,5.6,6.3,15,0.00,,,0.21,VWS V14.01,2013-02-19 21:23:00,
2013-02-19 15:24:00,64.6,15.9,30.15,North,0,9.6,9.6,15,0.00,,,0.21,VWS V14.01,2013-02-19 21:24:00,
2013-02-19 15:25:00,64.0,17.0,30.15,NNE,22,12.3,12.3,16,0.00,,,0.21,VWS V14.01,2013-02-19 21:25:00,
2013-02-19 15:26:00,64.4,15.8,30.15,NNE,22,5.8,9.8,15,0.00,,,0.21,VWS V14.01,2013-02-19 21:26:00,
2013-02-19 15:27:00,64.4,15.8,30.15,NNE,22,10.1,11.0,15,0.00,,,0.21,VWS V14.01,2013-02-19 21:27:00,
2013-02-19 15:28:00,64.4,15.8,30.15,NNE,22,8.1,10.1,15,0.00,,,0.21,VWS V14.01,2013-02-19 21:28:00,
2013-02-19 15:29:00,64.4,15.8,30.15,NNE,22,6.5,9.8,15,0.00,,,0.21,VWS V14.01,2013-02-19 21:29:00,
2013-02-19 15:30:00,64.0,17.0,30.15,NNE,22,12.8,12.8,16,0.00,,,0.21,VWS V14.01,2013-02-19 21:30:00,
2013-02-19 15:31:00,64.4,15.8,30.15,NNE,22,4.7,8.5,15,0.00,,,0.21,VWS V14.01,2013-02-19 21:31:00,
2013-02-19 15:32:00,64.4,15.8,30.15,NNE,22,5.6,8.7,15,0.00,,,0.21,VWS V14.01,2013-02-19 21:32:00,
2013-02-19 15:33:00,64.4,15.8,30.15,NNW,338,5.8,8.7,15,0.00,,,0.21,VWS V14.01,2013-02-19 21:33:00,
2013-02-19 15:35:00,64.0,17.0,30.15,WNW,292,6.0,7.8,16,0.00,,,0.21,VWS V14.01,2013-02-19 21:35:00,
2013-02-19 15:36:00,64.4,15.8,30.15,NNW,338,6.3,9.6,15,0.00,,,0.21,VWS V14.01,2013-02-19 21:36:00,
2013-02-19 15:37:00,64.4,15.8,30.15,North,0,6.3,6.3,15,0.00,,,0.21,VWS V14.01,2013-02-19 21:37:00,
2013-02-19 15:38:00,64.4,15.8,30.15,NNW,338,4.3,7.8,15,0.00,,,0.21,VWS V14.01,2013-02-19 21:38:00,
2013-02-19 15:39:00,64.4,15.8,30.15,NNE,22,5.4,8.1,15,0.00,,,0.21,VWS V14.01,2013-02-19 21:39:00,
2013-02-19 15:40:00,64.0,17.0,30.15,NNW,338,5.8,5.8,16,0.00,,,0.21,VWS V14.01,2013-02-19 21:40:00,
2013-02-19 15:41:00,64.4,15.8,30.15,North,0,8.7,12.3,15,0.00,,,0.21,VWS V14.01,2013-02-19 21:41:00,
2013-02-19 15:42:00,64.4,15.8,30.15,NNE,22,6.5,8.7,15,0.00,,,0.21,VWS V14.01,2013-02-19 21:42:00,
2013-02-19 15:43:00,64.4,15.8,30.15,North,0,6.3,7.4,15,0.00,,,0.21,VWS V14.01,2013-02-19 21:43:00,
2013-02-19 15:44:00,64.4,15.8,30.15,NNW,338,7.8,7.8,15,0.00,,,0.21,VWS V14.01,2013-02-19 21:44:00,
2013-02-19 15:45:00,63.9,16.8,30.15,NNE,22,5.8,6.3,16,0.00,,,0.21,VWS V14.01,2013-02-19 21:45:00,
2013-02-19 15:46:00,64.4,15.8,30.15,NNE,22,4.0,7.8,15,0.00,,,0.21,VWS V14.01,2013-02-19 21:46:00,
2013-02-19 15:47:00,64.4,15.8,30.15,WNW,292,6.3,7.2,15,0.00,,,0.21,VWS V14.01,2013-02-19 21:47:00,
2013-02-19 15:48:00,64.4,15.8,30.15,NNW,338,5.4,6.5,15,0.00,,,0.21,VWS V14.01,2013-02-19 21:48:00,
2013-02-19 15:49:00,64.4,15.8,30.15,NNE,22,4.9,5.4,15,0.00,,,0.21,VWS V14.01,2013-02-19 21:49:00,
2013-02-19 15:50:00,64.0,17.0,30.15,NNE,22,6.0,6.0,16,0.00,,,0.21,VWS V14.01,2013-02-19 21:50:00,
2013-02-19 15:51:00,64.4,15.8,30.15,NW,315,3.6,6.0,15,0.00,,,0.21,VWS V14.01,2013-02-19 21:51:00,
2013-02-19 15:52:00,64.4,15.8,30.15,WNW,292,3.6,5.8,15,0.00,,,0.21,VWS V14.01,2013-02-19 21:52:00,
2013-02-19 15:54:00,64.4,15.8,30.15,North,0,3.8,5.8,15,0.00,,,0.21,VWS V14.01,2013-02-19 21:54:00,
2013-02-19 15:55:00,63.9,16.8,30.15,NNW,338,5.4,5.4,16,0.00,,,0.21,VWS V14.01,2013-02-19 21:55:00,
2013-02-19 15:56:00,64.4,15.8,30.15,NW,315,3.1,4.0,15,0.00,,,0.21,VWS V14.01,2013-02-19 21:56:00,
2013-02-19 15:57:00,64.4,15.8,30.15,NW,315,3.8,6.7,15,0.00,,,0.21,VWS V14.01,2013-02-19 21:57:00,
2013-02-19 15:58:00,64.4,15.8,30.15,North,0,3.8,4.3,15,0.00,,,0.21,VWS V14.01,2013-02-19 21:58:00,
2013-02-19 15:59:00,64.6,15.9,30.15,North,0,6.3,7.2,15,0.00,,,0.21,VWS V14.01,2013-02-19 21:59:00,
2013-02-19 16:00:00,63.9,16.8,30.15,NNW,338,3.1,3.1,16,0.00,,,0.21,VWS V14.01,2013-02-19 22:00:00,
2013-02-19 16:01:00,64.6,15.9,30.15,NNE,22,4.7,6.5,15,0.00,,,0.21,VWS V14.01,2013-02-19 22:01:00,
2013-02-19 16:02:00,64.6,15.9,30.15,NNW,338,2.7,4.7,15,0.00,,,0.21,VWS V14.01,2013-02-19 22:02:00,
2013-02-19 16:03:00,64.4,15.8,30.15,NNW,338,3.6,3.8,15,0.00,,,0.21,VWS V14.01,2013-02-19 22:03:00,
2013-02-19 16:04:00,64.4,15.8,30.15,NNW,338,6.0,6.0,15,0.00,,,0.21,VWS V14.01,2013-02-19 22:04:00,
2013-02-19 16:05:00,63.9,16.8,30.15,NNW,338,5.8,5.8,16,0.00,,,0.21,VWS V14.01,2013-02-19 22:05:00,
2013-02-19 16:06:00,64.6,15.9,30.15,North,0,7.8,7.8,15,0.00,,,0.21,VWS V14.01,2013-02-19 22:06:00,
2013-02-19 16:07:00,64.6,15.9,30.15,NNE,22,4.0,7.8,15,0.00,,,0.21,VWS V14.01,2013-02-19 22:07:00,
2013-02-19 16:08:00,64.4,15.8,30.15,NNE,22,2.5,4.0,15,0.00,,,0.21,VWS V14.01,2013-02-19 22:08:00,
2013-02-19 16:09:00,64.4,15.8,30.15,NNE,22,5.6,5.6,15,0.00,,,0.21,VWS V14.01,2013-02-19 22:09:00,
2013-02-19 16:10:00,63.9,16.8,30.15,NNE,22,3.6,5.6,16,0.00,,,0.21,VWS V14.01,2013-02-19 22:10:00,
2013-02-19 16:11:00,64.6,15.9,30.15,NNE,22,8.1,8.1,15,0.00,,,0.21,VWS V14.01,2013-02-19 22:11:00,
2013-02-19 16:12:00,64.4,15.8,30.15,NNW,338,7.4,8.1,15,0.00,,,0.21,VWS V14.01,2013-02-19 22:12:00,
2013-02-19 16:13:00,64.4,15.8,30.15,North,0,7.6,9.8,15,0.00,,,0.21,VWS V14.01,2013-02-19 22:13:00,
2013-02-19 16:14:00,64.4,15.8,30.15,NNE,22,4.3,8.5,15,0.00,,,0.21,VWS V14.01,2013-02-19 22:14:00,
2013-02-19 16:15:00,63.7,16.7,30.15,North,0,3.8,3.8,16,0.00,,,0.21,VWS V14.01,2013-02-19 22:15:00,
2013-02-19 16:16:00,64.4,15.8,30.15,NNW,338,6.5,8.1,15,0.00,,,0.21,VWS V14.01,2013-02-19 22:16:00,
2013-02-19 16:17:00,64.4,15.8,30.15,NNW,338,14.1,14.1,15,0.00,,,0.21,VWS V14.01,2013-02-19 22:17:00,
2013-02-19 16:18:00,64.4,15.8,30.15,WNW,292,3.6,14.1,15,0.00,,,0.21,VWS V14.01,2013-02-19 22:18:00,
2013-02-19 16:19:00,64.4,15.8,30.15,North,0,3.4,6.5,15,0.00,,,0.21,VWS V14.01,2013-02-19 22:19:00,
2013-02-19 16:20:00,63.7,16.7,30.15,NE,45,2.9,3.8,16,0.00,,,0.21,VWS V14.01,2013-02-19 22:20:00,
2013-02-19 16:21:00,64.4,15.8,30.15,North,0,4.0,7.2,15,0.00,,,0.21,VWS V14.01,2013-02-19 22:21:00,
2013-02-19 16:22:00,64.4,15.8,30.15,NNW,338,4.0,4.0,15,0.00,,,0.21,VWS V14.01,2013-02-19 22:22:00,
2013-02-19 16:23:00,64.4,15.8,30.15,NNW,338,4.9,6.5,15,0.00,,,0.21,VWS V14.01,2013-02-19 22:23:00,
2013-02-19 16:24:00,64.2,17.1,30.15,North,0,3.4,4.9,16,0.00,,,0.21,VWS V14.01,2013-02-19 22:24:00,
2013-02-19 16:25:00,63.5,16.5,30.15,NNE,22,4.0,4.9,16,0.00,,,0.21,VWS V14.01,2013-02-19 22:25:00,
2013-02-19 16:26:00,64.2,17.1,30.15,NNE,22,3.4,3.4,16,0.00,,,0.21,VWS V14.01,2013-02-19 22:26:00,
2013-02-19 16:27:00,64.2,17.1,30.15,North,0,6.3,6.3,16,0.00,,,0.21,VWS V14.01,2013-02-19 22:27:00,
2013-02-19 16:28:00,64.2,17.1,30.15,NNE,22,4.9,6.5,16,0.00,,,0.21,VWS V14.01,2013-02-19 22:28:00,
2013-02-19 16:29:00,64.2,17.1,30.15,NNW,338,4.3,6.0,16,0.00,,,0.21,VWS V14.01,2013-02-19 22:29:00,
2013-02-19 16:30:00,63.7,16.7,30.15,NNW,338,3.4,4.9,16,0.00,,,0.21,VWS V14.01,2013-02-19 22:30:00,
2013-02-19 16:31:00,64.2,17.1,30.15,NNW,338,3.8,5.8,16,0.00,,,0.21,VWS V14.01,2013-02-19 22:31:00,
2013-02-19 16:32:00,64.2,17.1,30.15,North,0,8.7,8.7,16,0.00,,,0.21,VWS V14.01,2013-02-19 22:32:00,
2013-02-19 16:33:00,64.2,17.1,30.15,NNW,338,7.2,10.5,16,0.00,,,0.21,VWS V14.01,2013-02-19 22:33:00,
2013-02-19 16:35:00,63.7,16.7,30.15,NNW,338,3.1,4.9,16,0.00,,,0.21,VWS V14.01,2013-02-19 22:35:00,
2013-02-19 16:36:00,64.2,17.1,30.15,NW,315,4.3,4.3,16,0.00,,,0.21,VWS V14.01,2013-02-19 22:36:00,
2013-02-19 16:37:00,64.2,17.1,30.15,NNE,22,4.5,4.5,16,0.00,,,0.21,VWS V14.01,2013-02-19 22:37:00,
2013-02-19 16:38:00,64.2,17.1,30.15,NNE,22,5.6,7.6,16,0.00,,,0.21,VWS V14.01,2013-02-19 22:38:00,
2013-02-19 16:39:00,64.2,17.1,30.15,NNW,338,6.0,6.5,16,0.00,,,0.21,VWS V14.01,2013-02-19 22:39:00,
2013-02-19 16:40:00,63.5,16.5,30.15,NNE,22,4.9,4.9,16,0.00,,,0.21,VWS V14.01,2013-02-19 22:40:00,
2013-02-19 16:41:00,64.2,17.1,30.15,NNW,338,7.8,7.8,16,0.00,,,0.21,VWS V14.01,2013-02-19 22:41:00,
2013-02-19 16:42:00,64.0,17.0,30.15,NNE,22,10.1,12.1,16,0.00,,,0.21,VWS V14.01,2013-02-19 22:42:00,
2013-02-19 16:43:00,64.0,17.0,30.15,North,0,8.5,10.1,16,0.00,,,0.21,VWS V14.01,2013-02-19 22:43:00,
2013-02-19 16:44:00,64.0,17.0,30.15,NNW,338,4.3,8.5,16,0.00,,,0.21,VWS V14.01,2013-02-19 22:44:00,
2013-02-19 16:45:00,63.5,16.5,30.15,NNE,22,6.3,6.3,16,0.00,,,0.21,VWS V14.01,2013-02-19 22:45:00,
2013-02-19 16:46:00,64.2,17.1,30.15,NNW,338,3.8,6.5,16,0.00,,,0.21,VWS V14.01,2013-02-19 22:46:00,
2013-02-19 16:47:00,64.2,17.1,30.15,NNE,22,7.6,7.6,16,0.00,,,0.21,VWS V14.01,2013-02-19 22:47:00,
2013-02-19 16:48:00,64.0,17.0,30.15,NNW,338,7.4,7.6,16,0.00,,,0.21,VWS V14.01,2013-02-19 22:48:00,
2013-02-19 16:49:00,63.9,16.8,30.15,NW,315,5.8,10.7,16,0.00,,,0.21,VWS V14.01,2013-02-19 22:49:00,
2013-02-19 16:50:00,63.3,16.4,30.15,NNW,338,3.6,3.6,16,0.00,,,0.21,VWS V14.01,2013-02-19 22:50:00,
2013-02-19 16:51:00,64.0,17.0,30.15,NNW,338,6.0,12.3,16,0.00,,,0.21,VWS V14.01,2013-02-19 22:51:00,
2013-02-19 16:52:00,64.0,17.0,30.15,NE,45,6.3,10.1,16,0.00,,,0.21,VWS V14.01,2013-02-19 22:52:00,
2013-02-19 16:53:00,63.9,16.8,30.15,NNE,22,6.5,10.3,16,0.00,,,0.21,VWS V14.01,2013-02-19 22:53:00,
2013-02-19 16:54:00,63.9,16.8,30.15,NE,45,5.4,7.4,16,0.00,,,0.21,VWS V14.01,2013-02-19 22:54:00,
2013-02-19 16:55:00,63.3,16.4,30.15,NNE,22,0.0,2.2,16,0.00,,,0.21,VWS V14.01,2013-02-19 22:55:00,
2013-02-19 16:56:00,64.0,17.0,30.15,NNW,338,10.7,12.8,16,0.00,,,0.21,VWS V14.01,2013-02-19 22:56:00,
2013-02-19 16:57:00,64.0,17.0,30.15,NNW,338,5.4,10.7,16,0.00,,,0.21,VWS V14.01,2013-02-19 22:57:00,
2013-02-19 16:58:00,64.0,17.0,30.15,NNW,338,6.0,6.0,16,0.00,,,0.21,VWS V14.01,2013-02-19 22:58:00,
2013-02-19 16:59:00,64.0,17.0,30.15,North,0,6.3,12.8,16,0.00,,,0.21,VWS V14.01,2013-02-19 22:59:00,
2013-02-19 17:00:00,63.3,16.4,30.12,NNE,22,0.0,0.0,16,0.00,,,0.21,VWS V14.01,2013-02-19 23:00:00,
2013-02-19 17:01:00,64.0,17.0,30.15,North,0,4.3,6.0,16,0.00,,,0.21,VWS V14.01,2013-02-19 23:01:00,
2013-02-19 17:03:00,64.0,17.0,30.15,NNW,338,7.4,7.4,16,0.00,,,0.21,VWS V14.01,2013-02-19 23:03:00,
2013-02-19 17:04:00,63.9,16.8,30.15,NNE,22,2.7,7.4,16,0.00,,,0.21,VWS V14.01,2013-02-19 23:04:00,
2013-02-19 17:05:00,63.1,16.2,30.12,NNE,22,3.1,3.6,16,0.00,,,0.21,VWS V14.01,2013-02-19 23:05:00,
2013-02-19 17:06:00,64.0,17.0,30.15,North,0,5.4,5.8,16,0.00,,,0.21,VWS V14.01,2013-02-19 23:06:00,
2013-02-19 17:07:00,64.0,17.0,30.15,NNW,338,5.8,5.8,16,0.00,,,0.21,VWS V14.01,2013-02-19 23:07:00,
2013-02-19 17:08:00,64.0,17.0,30.15,North,0,5.4,6.3,16,0.00,,,0.21,VWS V14.01,2013-02-19 23:08:00,
2013-02-19 17:09:00,64.0,17.0,30.15,North,0,5.8,5.8,16,0.00,,,0.21,VWS V14.01,2013-02-19 23:09:00,
2013-02-19 17:10:00,63.1,16.2,30.12,NNE,22,2.7,4.3,16,0.00,,,0.21,VWS V14.01,2013-02-19 23:10:00,
2013-02-19 17:11:00,63.9,16.8,30.15,NNW,338,7.2,7.2,16,0.00,,,0.21,VWS V14.01,2013-02-19 23:11:00,
2013-02-19 17:12:00,63.9,16.8,30.15,NNE,22,3.8,7.4,16,0.00,,,0.21,VWS V14.01,2013-02-19 23:12:00,
2013-02-19 17:13:00,63.9,16.8,30.15,North,0,5.4,5.8,16,0.00,,,0.21,VWS V14.01,2013-02-19 23:13:00,
2013-02-19 17:14:00,63.9,16.8,30.15,WNW,292,3.4,5.6,16,0.00,,,0.21,VWS V14.01,2013-02-19 23:14:00,
2013-02-19 17:15:00,63.1,16.2,30.12,NNE,22,1.6,2.2,16,0.00,,,0.21,VWS V14.01,2013-02-19 23:15:00,
2013-02-19 17:16:00,64.0,17.0,30.15,North,0,4.0,6.0,16,0.00,,,0.21,VWS V14.01,2013-02-19 23:16:00,
2013-02-19 17:17:00,64.0,17.0,30.15,NW,315,4.9,4.9,16,0.00,,,0.21,VWS V14.01,2013-02-19 23:17:00,
2013-02-19 17:18:00,64.0,17.0,30.15,NNE,22,2.7,4.9,16,0.00,,,0.21,VWS V14.01,2013-02-19 23:18:00,
2013-02-19 17:19:00,63.9,16.8,30.15,NW,315,2.7,3.1,16,0.00,,,0.21,VWS V14.01,2013-02-19 23:19:00,
2013-02-19 17:20:00,63.0,16.1,30.15,NNW,338,3.4,3.8,16,0.00,,,0.21,VWS V14.01,2013-02-19 23:20:00,
2013-02-19 17:21:00,63.9,16.8,30.15,NW,315,3.6,5.4,16,0.00,,,0.21,VWS V14.01,2013-02-19 23:21:00,
2013-02-19 17:22:00,63.9,16.8,30.15,NNW,338,3.4,3.6,16,0.00,,,0.21,VWS V14.01,2013-02-19 23:22:00,
2013-02-19 17:23:00,63.9,16.8,30.15,NNW,338,3.6,3.6,16,0.00,,,0.21,VWS V14.01,2013-02-19 23:23:00,
2013-02-19 17:24:00,63.9,16.8,30.15,NW,315,3.1,3.6,16,0.00,,,0.21,VWS V14.01,2013-02-19 23:24:00,
2013-02-19 17:25:00,62.8,15.9,30.15,North,0,3.1,4.3,16,0.00,,,0.21,VWS V14.01,2013-02-19 23:25:00,
2013-02-19 17:26:00,63.9,16.8,30.15,North,0,3.1,4.9,16,0.00,,,0.21,VWS V14.01,2013-02-19 23:26:00,
2013-02-19 17:27:00,63.9,16.8,30.15,NW,315,4.9,7.8,16,0.00,,,0.21,VWS V14.01,2013-02-19 23:27:00,
2013-02-19 17:28:00,63.9,16.8,30.15,West,270,3.4,4.9,16,0.00,,,0.21,VWS V14.01,2013-02-19 23:28:00,
2013-02-19 17:29:00,63.9,16.8,30.15,NNE,22,4.0,4.3,16,0.00,,,0.21,VWS V14.01,2013-02-19 23:29:00,
2013-02-19 17:30:00,62.8,15.9,30.15,North,0,0.0,0.0,16,0.00,,,0.21,VWS V14.01,2013-02-19 23:30:00,
2013-02-19 17:31:00,63.9,16.8,30.15,NNE,22,4.3,5.8,16,0.00,,,0.21,VWS V14.01,2013-02-19 23:31:00,
2013-02-19 17:32:00,63.9,16.8,30.15,North,0,6.0,6.0,16,0.00,,,0.21,VWS V14.01,2013-02-19 23:32:00,
2013-02-19 17:33:00,63.7,16.7,30.15,NNE,22,8.1,9.6,16,0.00,,,0.21,VWS V14.01,2013-02-19 23:33:00,
2013-02-19 17:34:00,63.9,16.8,30.15,NNE,22,5.6,8.1,16,0.00,,,0.21,VWS V14.01,2013-02-19 23:34:00,
2013-02-19 17:35:00,62.6,15.8,30.15,North,0,0.9,0.9,16,0.00,,,0.21,VWS V14.01,2013-02-19 23:35:00,
2013-02-19 17:36:00,63.9,16.8,30.15,NNW,338,5.4,5.4,16,0.00,,,0.21,VWS V14.01,2013-02-19 23:36:00,
2013-02-19 17:37:00,63.9,16.8,30.15,NNW,338,3.6,5.4,16,0.00,,,0.21,VWS V14.01,2013-02-19 23:37:00,
2013-02-19 17:38:00,63.7,16.7,30.15,NNW,338,2.0,3.6,16,0.00,,,0.21,VWS V14.01,2013-02-19 23:38:00,
2013-02-19 17:40:00,62.6,15.8,30.15,North,0,0.0,0.0,16,0.00,,,0.21,VWS V14.01,2013-02-19 23:40:00,
2013-02-19 17:41:00,63.7,16.7,30.15,North,0,2.9,3.1,16,0.00,,,0.21,VWS V14.01,2013-02-19 23:41:00,
2013-02-19 17:42:00,63.7,16.7,30.15,North,0,2.7,2.9,16,0.00,,,0.21,VWS V14.01,2013-02-19 23:42:00,
2013-02-19 17:43:00,63.7,16.7,30.15,NE,45,3.8,4.3,16,0.00,,,0.21,VWS V14.01,2013-02-19 23:43:00,
2013-02-19 17:45:00,62.4,15.7,30.15,NNE,22,0.0,0.0,16,0.00,,,0.21,VWS V14.01,2013-02-19 23:45:00,
2013-02-19 17:46:00,63.7,16.7,30.15,NE,45,3.1,6.3,16,0.00,,,0.21,VWS V14.01,2013-02-19 23:46:00,
2013-02-19 17:48:00,63.7,16.7,30.15,NNE,22,2.5,4.9,16,0.00,,,0.21,VWS V14.01,2013-02-19 23:48:00,
2013-02-19 17:49:00,63.7,16.7,30.15,NNE,22,2.0,2.5,16,0.00,,,0.21,VWS V14.01,2013-02-19 23:49:00,
2013-02-19 17:50:00,62.2,15.5,30.15,NNE,22,0.0,0.0,16,0.00,,,0.21,VWS V14.01,2013-02-19 23:50:00,
2013-02-19 17:51:00,63.5,16.5,30.15,North,0,4.9,6.7,16,0.00,,,0.21,VWS V14.01,2013-02-19 23:51:00,
2013-02-19 17:52:00,63.5,16.5,30.15,NNE,22,4.3,4.9,16,0.00,,,0.21,VWS V14.01,2013-02-19 23:52:00,
2013-02-19 17:53:00,63.5,16.5,30.15,North,0,3.6,4.3,16,0.00,,,0.21,VWS V14.01,2013-02-19 23:53:00,
2013-02-19 17:54:00,63.7,16.7,30.15,WNW,292,4.9,4.9,16,0.00,,,0.21,VWS V14.01,2013-02-19 23:54:00,
2013-02-19 17:55:00,62.1,15.4,30.15,NNE,22,0.0,0.0,16,0.00,,,0.21,VWS V14.01,2013-02-19 23:55:00,
2013-02-19 17:56:00,63.7,16.7,30.15,NNE,22,4.9,4.9,16,0.00,,,0.21,VWS V14.01,2013-02-19 23:56:00,
2013-02-19 17:57:00,63.7,16.7,30.15,NNW,338,2.0,5.6,16,0.00,,,0.21,VWS V14.01,2013-02-19 23:57:00,
2013-02-19 17:58:00,63.5,16.5,30.15,NNW,338,2.2,2.7,16,0.00,,,0.21,VWS V14.01,2013-02-19 23:58:00,
2013-02-19 17:59:00,63.7,16.7,30.15,North,0,3.6,3.6,16,0.00,,,0.21,VWS V14.01,2013-02-19 23:59:00,
2013-02-19 18:00:00,61.9,15.2,30.15,NNE,22,0.0,0.0,16,0.00,,,0.21,VWS V14.01,2013-02-20 00:00:00,
2013-02-19 18:01:00,63.5,16.5,30.15,NNW,338,4.0,4.7,16,0.00,,,0.21,VWS V14.01,2013-02-20 00:01:00,
2013-02-19 18:02:00,63.7,16.7,30.15,North,0,2.7,4.0,16,0.00,,,0.21,VWS V14.01,2013-02-20 00:02:00,
2013-02-19 18:03:00,63.5,16.5,30.15,NNW,338,2.5,4.3,16,0.00,,,0.21,VWS V14.01,2013-02-20 00:03:00,
2013-02-19 18:04:00,63.5,16.5,30.15,NNE,22,7.2,7.2,16,0.00,,,0.21,VWS V14.01,2013-02-20 00:04:00,
2013-02-19 18:05:00,61.7,15.1,30.15,NNE,22,0.0,0.0,16,0.00,,,0.21,VWS V14.01,2013-02-20 00:05:00,
2013-02-19 18:06:00,63.5,16.5,30.15,North,0,5.4,6.0,16,0.00,,,0.21,VWS V14.01,2013-02-20 00:06:00,
2013-02-19 18:07:00,63.5,16.5,30.15,ENE,68,6.3,6.3,16,0.00,,,0.21,VWS V14.01,2013-02-20 00:07:00,
2013-02-19 18:08:00,63.3,16.4,30.15,NNE,22,4.7,6.7,16,0.00,,,0.21,VWS V14.01,2013-02-20 00:08:00,
2013-02-19 18:09:00,63.5,16.5,30.15,NE,45,3.8,4.9,16,0.00,,,0.21,VWS V14.01,2013-02-20 00:09:00,
2013-02-19 18:10:00,61.3,14.8,30.15,NNE,22,0.0,0.0,16,0.00,,,0.21,VWS V14.01,2013-02-20 00:10:00,
2013-02-19 18:11:00,63.5,16.5,30.15,NNE,22,4.0,6.3,16,0.00,,,0.21,VWS V14.01,2013-02-20 00:11:00,
2013-02-19 18:12:00,63.5,16.5,30.15,NE,45,6.0,6.0,16,0.00,,,0.21,VWS V14.01,2013-02-20 00:12:00,
2013-02-19 18:13:00,63.3,16.4,30.15,NNE,22,3.4,6.0,16,0.00,,,0.21,VWS V14.01,2013-02-20 00:13:00,
2013-02-19 18:14:00,63.1,16.2,30.15,NNE,22,5.6,6.3,16,0.00,,,0.21,VWS V14.01,2013-02-20 00:14:00,
2013-02-19 18:15:00,61.2,14.6,30.15,NNE,22,0.0,0.0,16,0.00,,,0.21,VWS V14.01,2013-02-20 00:15:00,
2013-02-19 18:16:00,63.3,16.4,30.15,NNE,22,3.6,4.0,16,0.00,,,0.21,VWS V14.01,2013-02-20 00:16:00,
2013-02-19 18:17:00,63.3,16.4,30.15,NNW,338,3.6,5.4,16,0.00,,,0.21,VWS V14.01,2013-02-20 00:17:00,
2013-02-19 18:18:00,63.3,16.4,30.15,NNE,22,3.8,3.8,16,0.00,,,0.21,VWS V14.01,2013-02-20 00:18:00,
2013-02-19 18:20:00,61.0,14.5,30.15,NNE,22,0.0,0.0,16,0.00,,,0.21,VWS V14.01,2013-02-20 00:20:00,
2013-02-19 18:21:00,63.3,16.4,30.15,NNE,22,0.0,0.0,16,0.00,,,0.21,VWS V14.01,2013-02-20 00:21:00,
2013-02-19 18:22:00,63.3,16.4,30.15,NNE,22,0.0,0.0,16,0.00,,,0.21,VWS V14.01,2013-02-20 00:22:00,
2013-02-19 18:23:00,63.3,16.4,30.15,North,0,0.0,0.0,16,0.00,,,0.21,VWS V14.01,2013-02-20 00:23:00,
2013-02-19 18:24:00,63.3,16.4,30.15,North,0,0.0,0.0,16,0.00,,,0.21,VWS V14.01,2013-02-20 00:24:00,
2013-02-19 18:25:00,60.8,14.4,30.15,NNE,22,0.0,0.0,16,0.00,,,0.21,VWS V14.01,2013-02-20 00:25:00,
2013-02-19 18:26:00,63.3,16.4,30.12,NNE,22,0.0,0.0,16,0.00,,,0.21,VWS V14.01,2013-02-20 00:26:00,
2013-02-19 18:27:00,63.1,16.2,30.12,NNE,22,0.0,0.0,16,0.00,,,0.21,VWS V14.01,2013-02-20 00:27:00,
2013-02-19 18:28:00,63.1,16.2,30.12,North,0,2.5,2.5,16,0.00,,,0.21,VWS V14.01,2013-02-20 00:28:00,
2013-02-19 18:29:00,63.1,16.2,30.12,NNE,22,3.6,3.6,16,0.00,,,0.21,VWS V14.01,2013-02-20 00:29:00,
2013-02-19 18:30:00,60.6,15.6,30.15,NNE,22,0.0,0.0,17,0.00,,,0.21,VWS V14.01,2013-02-20 00:30:00,
2013-02-19 18:31:00,63.1,16.2,30.12,NNE,22,0.0,3.1,16,0.00,,,0.21,VWS V14.01,2013-02-20 00:31:00,
2013-02-19 18:32:00,63.1,16.2,30.12,NNE,22,2.5,2.5,16,0.00,,,0.21,VWS V14.01,2013-02-20 00:32:00,
2013-02-19 18:33:00,63.0,16.1,30.12,NNE,22,1.1,4.0,16,0.00,,,0.21,VWS V14.01,2013-02-20 00:33:00,
2013-02-19 18:34:00,63.0,16.1,30.12,NNE,22,1.1,1.3,16,0.00,,,0.21,VWS V14.01,2013-02-20 00:34:00,
2013-02-19 18:35:00,60.1,15.1,30.15,NNE,22,0.0,0.0,17,0.00,,,0.21,VWS V14.01,2013-02-20 00:35:00,
2013-02-19 18:36:00,63.1,16.2,30.12,NNE,22,2.0,2.5,16,0.00,,,0.21,VWS V14.01,2013-02-20 00:36:00,
2013-02-19 18:37:00,63.1,16.2,30.12,NNE,22,2.5,3.4,16,0.00,,,0.21,VWS V14.01,2013-02-20 00:37:00,
2013-02-19 18:38:00,63.1,16.2,30.12,NNE,22,2.0,2.9,16,0.00,,,0.21,VWS V14.01,2013-02-20 00:38:00,
2013-02-19 18:39:00,63.1,16.2,30.12,NNE,22,2.2,3.1,16,0.00,,,0.21,VWS V14.01,2013-02-20 00:39:00,
2013-02-19 18:40:00,59.9,15.0,30.15,NNE,22,0.0,0.0,17,0.00,,,0.21,VWS V14.01,2013-02-20 00:40:00,
2013-02-19 18:41:00,63.1,16.2,30.15,NNE,22,3.1,3.1,16,0.00,,,0.21,VWS V14.01,2013-02-20 00:41:00,
2013-02-19 18:42:00,63.0,16.1,30.15,NNW,338,2.9,3.1,16,0.00,,,0.21,VWS V14.01,2013-02-20 00:42:00,
2013-02-19 18:43:00,63.0,16.1,30.15,North,0,3.8,4.5,16,0.00,,,0.21,VWS V14.01,2013-02-20 00:43:00,
2013-02-19 18:44:00,63.0,16.1,30.15,NNW,338,3.8,3.8,16,0.00,,,0.21,VWS V14.01,2013-02-20 00:44:00,
2013-02-19 18:45:00,59.7,14.9,30.15,NNE,22,0.0,0.0,17,0.00,,,0.21,VWS V14.01,2013-02-20 00:45:00,
2013-02-19 18:46:00,63.0,16.1,30.15,NNE,22,2.7,4.9,16,0.00,,,0.21,VWS V14.01,2013-02-20 00:46:00,
2013-02-19 18:47:00,63.0,16.1,30.15,North,0,4.0,4.0,16,0.00,,,0.21,VWS V14.01,2013-02-20 00:47:00,
2013-02-19 18:48:00,62.8,15.9,30.15,NNE,22,3.4,4.0,16,0.00,,,0.21,VWS V14.01,2013-02-20 00:48:00,
2013-02-19 18:49:00,62.8,15.9,30.15,NNE,22,4.3,5.4,16,0.00,,,0.21,VWS V14.01,2013-02-20 00:49:00,
2013-02-19 18:50:00,59.5,14.7,30.15,NNE,22,0.0,0.0,17,0.00,,,0.21,VWS V14.01,2013-02-20 00:50:00,
2013-02-19 18:51:00,62.8,15.9,30.15,North,0,3.1,4.3,16,0.00,,,0.21,VWS V14.01,2013-02-20 00:51:00,
2013-02-19 18:52:00,62.8,15.9,30.15,North,0,2.2,4.0,16,0.00,,,0.21,VWS V14.01,2013-02-20 00:52:00,
2013-02-19 18:54:00,62.8,15.9,30.15,North,0,0.0,2.7,16,0.00,,,0.21,VWS V14.01,2013-02-20 00:54:00,
2013-02-19 18:55:00,59.0,14.3,30.15,NNE,22,0.0,0.0,17,0.00,,,0.21,VWS V14.01,2013-02-20 00:55:00,
2013-02-19 18:56:00,62.8,15.9,30.15,North,0,0.0,0.0,16,0.00,,,0.21,VWS V14.01,2013-02-20 00:56:00,
2013-02-19 18:57:00,62.8,15.9,30.15,North,0,0.0,0.0,16,0.00,,,0.21,VWS V14.01,2013-02-20 00:57:00,
2013-02-19 18:58:00,62.8,15.9,30.15,North,0,0.0,0.0,16,0.00,,,0.21,VWS V14.01,2013-02-20 00:58:00,
2013-02-19 18:59:00,62.8,15.9,30.15,North,0,0.0,0.0,16,0.00,,,0.21,VWS V14.01,2013-02-20 00:59:00,
2013-02-19 19:00:00,59.0,14.3,30.15,NNE,22,0.0,0.0,17,0.00,,,0.21,VWS V14.01,2013-02-20 01:00:00,
2013-02-19 19:01:00,62.6,15.8,30.15,North,0,1.6,1.6,16,0.00,,,0.21,VWS V14.01,2013-02-20 01:01:00,
2013-02-19 19:02:00,62.6,15.8,30.15,North,0,0.0,1.6,16,0.00,,,0.21,VWS V14.01,2013-02-20 01:02:00,
2013-02-19 19:03:00,62.6,15.8,30.15,North,0,0.0,0.0,16,0.00,,,0.21,VWS V14.01,2013-02-20 01:03:00,
2013-02-19 19:04:00,62.6,15.8,30.15,North,0,0.0,0.0,16,0.00,,,0.21,VWS V14.01,2013-02-20 01:04:00,
2013-02-19 19:05:00,58.6,14.0,30.18,NNE,22,0.0,0.0,17,0.00,,,0.21,VWS V14.01,2013-02-20 01:05:00,
2013-02-19 19:06:00,62.6,15.8,30.15,NNE,22,0.0,0.0,16,0.00,,,0.21,VWS V14.01,2013-02-20 01:06:00,
2013-02-19 19:07:00,62.4,15.7,30.15,NNE,22,0.0,0.0,16,0.00,,,0.21,VWS V14.01,2013-02-20 01:07:00,
2013-02-19 19:08:00,62.4,15.7,30.15,NNE,22,0.0,0.0,16,0.00,,,0.21,VWS V14.01,2013-02-20 01:08:00,
2013-02-19 19:09:00,62.4,15.7,30.15,NNE,22,0.0,1.1,16,0.00,,,0.21,VWS V14.01,2013-02-20 01:09:00,
2013-02-19 19:10:00,58.3,13.7,30.18,NNE,22,0.0,0.0,17,0.00,,,0.21,VWS V14.01,2013-02-20 01:10:00,
2013-02-19 19:11:00,62.4,15.7,30.15,NNE,22,0.0,0.0,16,0.00,,,0.21,VWS V14.01,2013-02-20 01:11:00,
2013-02-19 19:12:00,62.4,15.7,30.15,NNE,22,0.0,0.0,16,0.00,,,0.21,VWS V14.01,2013-02-20 01:12:00,
2013-02-19 19:13:00,62.2,15.5,30.15,NNE,22,0.0,0.0,16,0.00,,,0.21,VWS V14.01,2013-02-20 01:13:00,
2013-02-19 19:14:00,62.2,15.5,30.15,NNE,22,0.0,0.0,16,0.00,,,0.21,VWS V14.01,2013-02-20 01:14:00,
2013-02-19 19:15:00,58.1,13.5,30.18,NNE,22,0.0,0.0,17,0.00,,,0.21,VWS V14.01,2013-02-20 01:15:00,
2013-02-19 19:16:00,62.2,15.5,30.15,NNE,22,0.0,0.0,16,0.00,,,0.21,VWS V14.01,2013-02-20 01:16:00,
2013-02-19 19:17:00,62.2,15.5,30.15,NNE,22,0.0,0.0,16,0.00,,,0.21,VWS V14.01,2013-02-20 01:17:00,
2013-02-19 19:18:00,62.2,15.5,30.15,NNE,22,0.0,0.0,16,0.00,,,0.21,VWS V14.01,2013-02-20 01:18:00,
2013-02-19 19:19:00,62.2,15.5,30.15,NNE,22,0.0,0.0,16,0.00,,,0.21,VWS V14.01,2013-02-20 01:19:00,
2013-02-19 19:20:00,58.1,13.5,30.18,NNE,22,0.0,0.0,17,0.00,,,0.21,VWS V14.01,2013-02-20 01:20:00,
2013-02-19 19:21:00,61.9,15.2,30.15,NNE,22,0.0,0.0,16,0.00,,,0.21,VWS V14.01,2013-02-20 01:21:00,
2013-02-19 19:22:00,61.9,15.2,30.15,NNE,22,0.0,0.0,16,0.00,,,0.21,VWS V14.01,2013-02-20 01:22:00,
2013-02-19 19:23:00,61.7,15.1,30.15,NNE,22,0.0,0.0,16,0.00,,,0.21,VWS V14.01,2013-02-20 01:23:00,
2013-02-19 19:24:00,61.7,15.1,30.15,NNE,22,0.0,0.0,16,0.00,,,0.21,VWS V14.01,2013-02-20 01:24:00,
2013-02-19 19:25:00,57.9,13.4,30.18,NNE,22,0.0,0.0,17,0.00,,,0.21,VWS V14.01,2013-02-20 01:25:00,
2013-02-19 19:26:00,61.9,15.2,30.15,NNE,22,0.0,0.0,16,0.00,,,0.21,VWS V14.01,2013-02-20 01:26:00,
2013-02-19 19:27:00,61.9,15.2,30.15,NNE,22,0.0,0.0,16,0.00,,,0.21,VWS V14.01,2013-02-20 01:27:00,
2013-02-19 19:28:00,61.9,15.2,30.15,NNE,22,0.0,0.0,16,0.00,,,0.21,VWS V14.01,2013-02-20 01:28:00,
2013-02-19 19:29:00,61.9,15.2,30.15,NNE,22,0.0,0.0,16,0.00,,,0.21,VWS V14.01,2013-02-20 01:29:00,
2013-02-19 19:30:00,57.9,13.4,30.18,NNE,22,0.0,0.0,17,0.00,,,0.21,VWS V14.01,2013-02-20 01:30:00,
2013-02-19 19:31:00,61.7,15.1,30.15,NNE,22,0.0,0.9,16,0.00,,,0.21,VWS V14.01,2013-02-20 01:31:00,
2013-02-19 19:32:00,61.7,15.1,30.15,NNE,22,0.0,0.0,16,0.00,,,0.21,VWS V14.01,2013-02-20 01:32:00,
2013-02-19 19:33:00,61.7,15.1,30.15,NNE,22,0.0,0.0,16,0.00,,,0.21,VWS V14.01,2013-02-20 01:33:00,
2013-02-19 19:34:00,61.7,15.1,30.15,NNE,22,0.0,0.0,16,0.00,,,0.21,VWS V14.01,2013-02-20 01:34:00,
2013-02-19 19:35:00,57.7,13.2,30.18,NNE,22,0.0,0.0,17,0.00,,,0.21,VWS V14.01,2013-02-20 01:35:00,
2013-02-19 19:36:00,61.3,14.8,30.15,NNE,22,0.0,0.0,16,0.00,,,0.21,VWS V14.01,2013-02-20 01:36:00,
2013-02-19 19:37:00,61.3,14.8,30.15,NNE,22,0.0,0.0,16,0.00,,,0.21,VWS V14.01,2013-02-20 01:37:00,
2013-02-19 19:38:00,61.3,14.8,30.15,NNE,22,0.0,0.0,16,0.00,,,0.21,VWS V14.01,2013-02-20 01:38:00,
2013-02-19 19:39:00,61.3,14.8,30.15,NNE,22,0.0,0.0,16,0.00,,,0.21,VWS V14.01,2013-02-20 01:39:00,
2013-02-19 19:40:00,57.7,13.2,30.18,NNE,22,0.0,0.0,17,0.00,,,0.21,VWS V14.01,2013-02-20 01:40:00,
2013-02-19 19:41:00,61.2,14.6,30.15,NNE,22,0.0,0.0,16,0.00,,,0.21,VWS V14.01,2013-02-20 01:41:00,
2013-02-19 19:42:00,61.2,14.6,30.15,NNE,22,0.0,0.0,16,0.00,,,0.21,VWS V14.01,2013-02-20 01:42:00,
2013-02-19 19:43:00,61.2,14.6,30.15,NNE,22,0.0,0.0,16,0.00,,,0.21,VWS V14.01,2013-02-20 01:43:00,
2013-02-19 19:44:00,61.2,14.6,30.15,NNE,22,0.0,0.0,16,0.00,,,0.21,VWS V14.01,2013-02-20 01:44:00,
2013-02-19 19:45:00,57.7,13.2,30.18,NNE,22,0.0,0.0,17,0.00,,,0.21,VWS V14.01,2013-02-20 01:45:00,
2013-02-19 19:46:00,61.0,14.5,30.15,NNE,22,0.0,0.0,16,0.00,,,0.21,VWS V14.01,2013-02-20 01:46:00,
2013-02-19 19:47:00,61.0,14.5,30.15,NNE,22,0.0,0.0,16,0.00,,,0.21,VWS V14.01,2013-02-20 01:47:00,
2013-02-19 19:48:00,61.0,14.5,30.15,NNE,22,0.0,0.0,16,0.00,,,0.21,VWS V14.01,2013-02-20 01:48:00,
2013-02-19 19:49:00,61.0,14.5,30.15,NNE,22,0.0,0.0,16,0.00,,,0.21,VWS V14.01,2013-02-20 01:49:00,
2013-02-19 19:50:00,57.6,13.1,30.18,NNE,22,0.0,0.0,17,0.00,,,0.21,VWS V14.01,2013-02-20 01:50:00,
2013-02-19 19:51:00,60.8,14.4,30.15,NNE,22,0.0,0.0,16,0.00,,,0.21,VWS V14.01,2013-02-20 01:51:00,
2013-02-19 19:52:00,60.6,15.6,30.15,NNE,22,0.0,0.0,17,0.00,,,0.21,VWS V14.01,2013-02-20 01:52:00,
2013-02-19 19:53:00,60.6,15.6,30.15,NNE,22,0.0,0.0,17,0.00,,,0.21,VWS V14.01,2013-02-20 01:53:00,
2013-02-19 19:54:00,60.6,15.6,30.15,NNE,22,0.0,0.0,17,0.00,,,0.21,VWS V14.01,2013-02-20 01:54:00,
2013-02-19 19:55:00,57.6,13.1,30.18,NNE,22,0.0,0.0,17,0.00,,,0.21,VWS V14.01,2013-02-20 01:55:00,
2013-02-19 19:56:00,60.6,15.6,30.15,NNE,22,0.0,0.0,17,0.00,,,0.21,VWS V14.01,2013-02-20 01:56:00,
2013-02-19 19:57:00,60.4,15.4,30.15,NNE,22,0.0,0.0,17,0.00,,,0.21,VWS V14.01,2013-02-20 01:57:00,
2013-02-19 19:58:00,60.3,15.3,30.15,NNE,22,0.0,0.0,17,0.00,,,0.21,VWS V14.01,2013-02-20 01:58:00,
2013-02-19 19:59:00,60.1,15.1,30.15,NNE,22,0.0,0.0,17,0.00,,,0.21,VWS V14.01,2013-02-20 01:59:00,
2013-02-19 20:00:00,56.7,12.4,30.18,NNE,22,0.0,0.0,17,0.00,,,0.21,VWS V14.01,2013-02-20 02:00:00,
2013-02-19 20:01:00,60.1,15.1,30.15,NNE,22,0.0,0.0,17,0.00,,,0.21,VWS V14.01,2013-02-20 02:01:00,
2013-02-19 20:02:00,60.1,15.1,30.15,NNE,22,0.0,0.0,17,0.00,,,0.21,VWS V14.01,2013-02-20 02:02:00,
2013-02-19 20:03:00,59.9,15.0,30.15,NNE,22,0.0,0.0,17,0.00,,,0.21,VWS V14.01,2013-02-20 02:03:00,
2013-02-19 20:04:00,59.9,15.0,30.15,NNE,22,0.0,0.0,17,0.00,,,0.21,VWS V14.01,2013-02-20 02:04:00,
2013-02-19 20:05:00,56.8,12.5,30.18,NNE,22,0.0,0.0,17,0.00,,,0.21,VWS V14.01,2013-02-20 02:05:00,
2013-02-19 20:06:00,59.9,15.0,30.15,NNE,22,0.0,0.0,17,0.00,,,0.21,VWS V14.01,2013-02-20 02:06:00,
2013-02-19 20:07:00,59.9,15.0,30.15,NNE,22,0.0,0.0,17,0.00,,,0.21,VWS V14.01,2013-02-20 02:07:00,
2013-02-19 20:08:00,59.9,15.0,30.15,NNE,22,0.0,0.0,17,0.00,,,0.21,VWS V14.01,2013-02-20 02:08:00,
2013-02-19 20:09:00,59.9,15.0,30.15,NNE,22,0.0,0.0,17,0.00,,,0.21,VWS V14.01,2013-02-20 02:09:00,
2013-02-19 20:10:00,57.0,12.7,30.18,NNE,22,0.0,0.0,17,0.00,,,0.21,VWS V14.01,2013-02-20 02:10:00,
2013-02-19 20:11:00,59.7,14.9,30.15,NNE,22,0.0,0.0,17,0.00,,,0.21,VWS V14.01,2013-02-20 02:11:00,
2013-02-19 20:12:00,59.7,14.9,30.15,NNE,22,0.0,0.0,17,0.00,,,0.21,VWS V14.01,2013-02-20 02:12:00,
2013-02-19 20:13:00,59.7,14.9,30.15,NNE,22,0.0,0.0,17,0.00,,,0.21,VWS V14.01,2013-02-20 02:13:00,
2013-02-19 20:14:00,59.5,14.7,30.15,NNE,22,0.0,0.0,17,0.00,,,0.21,VWS V14.01,2013-02-20 02:14:00,
2013-02-19 20:15:00,57.0,12.7,30.18,NNE,22,0.0,0.0,17,0.00,,,0.21,VWS V14.01,2013-02-20 02:15:00,
2013-02-19 20:16:00,59.5,14.7,30.15,NNE,22,0.0,0.0,17,0.00,,,0.21,VWS V14.01,2013-02-20 02:16:00,
2013-02-19 20:17:00,59.4,14.6,30.15,NNE,22,0.0,0.0,17,0.00,,,0.21,VWS V14.01,2013-02-20 02:17:00,
2013-02-19 20:18:00,59.2,14.4,30.15,NNE,22,0.0,0.0,17,0.00,,,0.21,VWS V14.01,2013-02-20 02:18:00,
2013-02-19 20:19:00,59.0,14.3,30.15,NNE,22,0.0,0.0,17,0.00,,,0.21,VWS V14.01,2013-02-20 02:19:00,
2013-02-19 20:20:00,56.8,12.5,30.18,NNE,22,0.0,0.0,17,0.00,,,0.21,VWS V14.01,2013-02-20 02:20:00,
2013-02-19 20:21:00,59.0,14.3,30.15,NNE,22,0.0,0.0,17,0.00,,,0.21,VWS V14.01,2013-02-20 02:21:00,
2013-02-19 20:22:00,59.0,14.3,30.15,NNE,22,0.0,0.0,17,0.00,,,0.21,VWS V14.01,2013-02-20 02:22:00,
2013-02-19 20:23:00,59.0,14.3,30.15,NNE,22,0.0,0.0,17,0.00,,,0.21,VWS V14.01,2013-02-20 02:23:00,
2013-02-19 20:24:00,59.0,14.3,30.15,NNE,22,0.0,0.0,17,0.00,,,0.21,VWS V14.01,2013-02-20 02:24:00,
2013-02-19 20:25:00,56.7,16.1,30.18,NNE,22,0.0,0.0,20,0.00,,,0.21,VWS V14.01,2013-02-20 02:25:00,
2013-02-19 20:26:00,58.8,14.1,30.18,NNE,22,0.0,0.0,17,0.00,,,0.21,VWS V14.01,2013-02-20 02:26:00,
2013-02-19 20:27:00,58.8,14.1,30.18,NNE,22,0.0,0.0,17,0.00,,,0.21,VWS V14.01,2013-02-20 02:27:00,
2013-02-19 20:28:00,58.8,14.1,30.18,NNE,22,0.0,0.0,17,0.00,,,0.21,VWS V14.01,2013-02-20 02:28:00,
2013-02-19 20:29:00,58.8,14.1,30.18,NNE,22,0.0,0.0,17,0.00,,,0.21,VWS V14.01,2013-02-20 02:29:00,
2013-02-19 20:30:00,56.5,12.2,30.21,NNE,22,0.0,0.0,17,0.00,,,0.21,VWS V14.01,2013-02-20 02:30:00,
2013-02-19 20:31:00,58.6,14.0,30.18,NNE,22,0.0,0.0,17,0.00,,,0.21,VWS V14.01,2013-02-20 02:31:00,
2013-02-19 20:32:00,58.1,16.1,30.18,NNE,22,0.0,0.0,19,0.00,,,0.21,VWS V14.01,2013-02-20 02:32:00,
2013-02-19 20:33:00,58.3,13.7,30.18,NNE,22,0.0,0.0,17,0.00,,,0.21,VWS V14.01,2013-02-20 02:33:00,
2013-02-19 20:34:00,58.3,13.7,30.18,NNE,22,0.0,0.0,17,0.00,,,0.21,VWS V14.01,2013-02-20 02:34:00,
2013-02-19 20:35:00,56.3,15.8,30.21,NNE,22,0.0,0.0,20,0.00,,,0.21,VWS V14.01,2013-02-20 02:35:00,
2013-02-19 20:36:00,58.3,13.7,30.18,NNE,22,0.0,0.0,17,0.00,,,0.21,VWS V14.01,2013-02-20 02:36:00,
2013-02-19 20:37:00,58.3,13.7,30.18,NNE,22,0.0,0.0,17,0.00,,,0.21,VWS V14.01,2013-02-20 02:37:00,
2013-02-19 20:38:00,58.3,13.7,30.18,NNE,22,0.0,0.0,17,0.00,,,0.21,VWS V14.01,2013-02-20 02:38:00,
2013-02-19 20:39:00,58.1,13.5,30.18,NNE,22,0.0,0.0,17,0.00,,,0.21,VWS V14.01,2013-02-20 02:39:00,
2013-02-19 20:40:00,56.3,15.8,30.21,NNE,22,0.0,0.0,20,0.00,,,0.21,VWS V14.01,2013-02-20 02:40:00,
2013-02-19 20:41:00,58.1,13.5,30.18,NNE,22,0.0,0.0,17,0.00,,,0.21,VWS V14.01,2013-02-20 02:41:00,
2013-02-19 20:42:00,58.1,13.5,30.18,NNE,22,0.0,0.0,17,0.00,,,0.21,VWS V14.01,2013-02-20 02:42:00,
2013-02-19 20:43:00,58.1,13.5,30.18,NNE,22,0.0,0.0,17,0.00,,,0.21,VWS V14.01,2013-02-20 02:43:00,
2013-02-19 20:45:00,55.8,15.3,30.21,NNE,22,0.0,0.0,20,0.00,,,0.21,VWS V14.01,2013-02-20 02:45:00,
2013-02-19 20:46:00,58.1,13.5,30.18,NNE,22,0.0,0.0,17,0.00,,,0.21,VWS V14.01,2013-02-20 02:46:00,
2013-02-19 20:47:00,58.1,13.5,30.18,NNE,22,0.0,0.0,17,0.00,,,0.21,VWS V14.01,2013-02-20 02:47:00,
2013-02-19 20:48:00,58.1,13.5,30.18,NNE,22,0.0,0.0,17,0.00,,,0.21,VWS V14.01,2013-02-20 02:48:00,
2013-02-19 20:49:00,58.1,13.5,30.18,NNE,22,0.0,0.0,17,0.00,,,0.21,VWS V14.01,2013-02-20 02:49:00,
2013-02-19 20:50:00,55.4,15.0,30.21,NNE,22,0.0,0.0,20,0.00,,,0.21,VWS V14.01,2013-02-20 02:50:00,
2013-02-19 20:51:00,57.9,13.4,30.18,NNE,22,0.0,0.0,17,0.00,,,0.21,VWS V14.01,2013-02-20 02:51:00,
2013-02-19 20:52:00,57.9,13.4,30.18,NNE,22,0.0,0.0,17,0.00,,,0.21,VWS V14.01,2013-02-20 02:52:00,
2013-02-19 20:53:00,57.9,13.4,30.18,NNE,22,0.0,0.0,17,0.00,,,0.21,VWS V14.01,2013-02-20 02:53:00,
2013-02-19 20:54:00,57.9,13.4,30.18,NNE,22,0.0,0.0,17,0.00,,,0.21,VWS V14.01,2013-02-20 02:54:00,
2013-02-19 20:55:00,55.2,14.9,30.21,NNE,22,0.0,0.0,20,0.00,,,0.21,VWS V14.01,2013-02-20 02:55:00,
2013-02-19 20:56:00,57.9,13.4,30.18,NNE,22,0.0,0.0,17,0.00,,,0.21,VWS V14.01,2013-02-20 02:56:00,
2013-02-19 20:57:00,57.7,13.2,30.18,NNE,22,0.0,0.0,17,0.00,,,0.21,VWS V14.01,2013-02-20 02:57:00,
2013-02-19 20:59:00,57.7,13.2,30.18,NNE,22,0.0,0.0,17,0.00,,,0.21,VWS V14.01,2013-02-20 02:59:00,
2013-02-19 21:00:00,54.9,14.6,30.21,NNE,22,0.0,0.0,20,0.00,,,0.21,VWS V14.01,2013-02-20 03:00:00,
2013-02-19 21:01:00,57.6,13.1,30.18,NNE,22,0.0,0.0,17,0.00,,,0.21,VWS V14.01,2013-02-20 03:01:00,
2013-02-19 21:02:00,57.6,13.1,30.18,NNE,22,0.0,0.0,17,0.00,,,0.21,VWS V14.01,2013-02-20 03:02:00,
2013-02-19 21:03:00,57.6,13.1,30.18,NNE,22,0.0,0.0,17,0.00,,,0.21,VWS V14.01,2013-02-20 03:03:00,
2013-02-19 21:04:00,57.7,13.2,30.18,NNE,22,0.0,0.0,17,0.00,,,0.21,VWS V14.01,2013-02-20 03:04:00,
2013-02-19 21:05:00,54.7,14.4,30.24,NNE,22,0.0,0.0,20,0.00,,,0.21,VWS V14.01,2013-02-20 03:05:00,
2013-02-19 21:06:00,57.7,13.2,30.18,NNE,22,0.0,0.0,17,0.00,,,0.21,VWS V14.01,2013-02-20 03:06:00,
2013-02-19 21:07:00,57.7,13.2,30.18,NNE,22,0.0,0.0,17,0.00,,,0.21,VWS V14.01,2013-02-20 03:07:00,
2013-02-19 21:08:00,57.7,13.2,30.18,NNE,22,0.0,0.0,17,0.00,,,0.21,VWS V14.01,2013-02-20 03:08:00,
2013-02-19 21:09:00,57.7,13.2,30.18,NNE,22,0.0,0.0,17,0.00,,,0.21,VWS V14.01,2013-02-20 03:09:00,
2013-02-19 21:10:00,54.5,14.3,30.24,NNE,22,0.0,0.0,20,0.00,,,0.21,VWS V14.01,2013-02-20 03:10:00,
2013-02-19 21:11:00,57.6,13.1,30.18,NNE,22,0.0,0.0,17,0.00,,,0.21,VWS V14.01,2013-02-20 03:11:00,
2013-02-19 21:12:00,57.6,13.1,30.18,NNE,22,0.0,0.0,17,0.00,,,0.21,VWS V14.01,2013-02-20 03:12:00,
2013-02-19 21:13:00,57.6,13.1,30.18,NNE,22,0.0,0.0,17,0.00,,,0.21,VWS V14.01,2013-02-20 03:13:00,
2013-02-19 21:14:00,57.6,13.1,30.18,NNE,22,0.0,0.0,17,0.00,,,0.21,VWS V14.01,2013-02-20 03:14:00,
2013-02-19 21:15:00,54.1,14.0,30.24,NNE,22,0.0,0.0,20,0.00,,,0.21,VWS V14.01,2013-02-20 03:15:00,
2013-02-19 21:16:00,57.6,15.6,30.18,NNE,22,0.0,0.0,19,0.00,,,0.21,VWS V14.01,2013-02-20 03:16:00,
2013-02-19 21:17:00,57.6,13.1,30.18,NNE,22,0.0,0.0,17,0.00,,,0.21,VWS V14.01,2013-02-20 03:17:00,
2013-02-19 21:18:00,57.6,13.1,30.18,NNE,22,0.0,0.0,17,0.00,,,0.21,VWS V14.01,2013-02-20 03:18:00,
2013-02-19 21:19:00,57.6,13.1,30.18,NNE,22,0.0,0.0,17,0.00,,,0.21,VWS V14.01,2013-02-20 03:19:00,
2013-02-19 21:20:00,54.0,13.8,30.18,NNE,22,0.0,0.0,20,0.00,,,0.21,VWS V14.01,2013-02-20 03:20:00,
2013-02-19 21:21:00,57.4,12.9,30.18,NNE,22,0.0,0.0,17,0.00,,,0.21,VWS V14.01,2013-02-20 03:21:00,
2013-02-19 21:22:00,56.8,12.5,30.18,NNE,22,0.0,0.0,17,0.00,,,0.21,VWS V14.01,2013-02-20 03:22:00,
2013-02-19 21:23:00,56.7,12.4,30.18,NNE,22,0.0,0.0,17,0.00,,,0.21,VWS V14.01,2013-02-20 03:23:00,
2013-02-19 21:24:00,56.7,12.4,30.18,NNE,22,0.0,0.0,17,0.00,,,0.21,VWS V14.01,2013-02-20 03:24:00,
2013-02-19 21:25:00,53.6,16.7,30.18,NNE,22,0.0,0.0,23,0.00,,,0.21,VWS V14.01,2013-02-20 03:25:00,
2013-02-19 21:26:00,56.7,12.4,30.18,NNE,22,0.0,0.0,17,0.00,,,0.21,VWS V14.01,2013-02-20 03:26:00,
2013-02-19 21:27:00,56.8,12.5,30.18,NNE,22,0.0,0.0,17,0.00,,,0.21,VWS V14.01,2013-02-20 03:27:00,
2013-02-19 21:28:00,56.8,12.5,30.18,NNE,22,0.0,0.0,17,0.00,,,0.21,VWS V14.01,2013-02-20 03:28:00,
2013-02-19 21:29:00,56.8,12.5,30.18,NNE,22,0.0,0.0,17,0.00,,,0.21,VWS V14.01,2013-02-20 03:29:00,
2013-02-19 21:30:00,53.6,16.7,30.21,NNE,22,0.0,0.0,23,0.00,,,0.21,VWS V14.01,2013-02-20 03:30:00,
2013-02-19 21:31:00,57.0,12.6,30.18,NNE,22,0.0,0.0,17,0.00,,,0.21,VWS V14.01,2013-02-20 03:31:00,
2013-02-19 21:33:00,57.0,12.6,30.18,NNE,22,0.0,0.0,17,0.00,,,0.21,VWS V14.01,2013-02-20 03:33:00,
2013-02-19 21:34:00,57.0,12.6,30.18,NNE,22,0.0,0.0,17,0.00,,,0.21,VWS V14.01,2013-02-20 03:34:00,
2013-02-19 21:35:00,53.4,16.6,30.21,NNE,22,0.0,0.0,23,0.00,,,0.21,VWS V14.01,2013-02-20 03:35:00,
2013-02-19 21:36:00,57.0,12.6,30.18,NNE,22,0.0,0.0,17,0.00,,,0.21,VWS V14.01,2013-02-20 03:36:00,
2013-02-19 21:37:00,57.0,12.6,30.18,NNE,22,0.0,0.0,17,0.00,,,0.21,VWS V14.01,2013-02-20 03:37:00,
2013-02-19 21:38:00,57.0,12.6,30.18,NNE,22,0.0,0.0,17,0.00,,,0.21,VWS V14.01,2013-02-20 03:38:00,
2013-02-19 21:39:00,57.0,12.6,30.18,NNE,22,0.0,0.0,17,0.00,,,0.21,VWS V14.01,2013-02-20 03:39:00,
2013-02-19 21:40:00,53.2,16.4,30.21,NNE,22,0.0,0.0,23,0.00,,,0.21,VWS V14.01,2013-02-20 03:40:00,
2013-02-19 21:41:00,57.0,12.6,30.18,NNE,22,0.0,0.0,17,0.00,,,0.21,VWS V14.01,2013-02-20 03:41:00,
2013-02-19 21:42:00,56.8,12.5,30.18,NNE,22,0.0,0.0,17,0.00,,,0.21,VWS V14.01,2013-02-20 03:42:00,
2013-02-19 21:43:00,56.8,12.5,30.18,NNE,22,0.0,0.0,17,0.00,,,0.21,VWS V14.01,2013-02-20 03:43:00,
2013-02-19 21:44:00,56.8,12.5,30.18,NNE,22,0.0,0.0,17,0.00,,,0.21,VWS V14.01,2013-02-20 03:44:00,
2013-02-19 21:45:00,52.9,16.1,30.21,NNE,22,0.0,0.0,23,0.00,,,0.21,VWS V14.01,2013-02-20 03:45:00,
2013-02-19 21:46:00,56.8,12.5,30.18,NNE,22,0.0,0.0,17,0.00,,,0.21,VWS V14.01,2013-02-20 03:46:00,
2013-02-19 21:47:00,56.8,12.5,30.18,NNE,22,0.0,0.0,17,0.00,,,0.21,VWS V14.01,2013-02-20 03:47:00,
2013-02-19 21:48:00,56.8,12.5,30.18,NNE,22,0.0,0.0,17,0.00,,,0.21,VWS V14.01,2013-02-20 03:48:00,
2013-02-19 21:49:00,56.7,16.1,30.18,NNE,22,0.0,0.0,20,0.00,,,0.21,VWS V14.01,2013-02-20 03:49:00,
2013-02-19 21:50:00,52.7,16.0,30.21,NNE,22,0.0,0.0,23,0.00,,,0.21,VWS V14.01,2013-02-20 03:50:00,
2013-02-19 21:51:00,56.7,12.4,30.18,NNE,22,0.0,0.0,17,0.00,,,0.21,VWS V14.01,2013-02-20 03:51:00,
2013-02-19 21:52:00,56.7,12.4,30.18,NNE,22,0.0,0.0,17,0.00,,,0.21,VWS V14.01,2013-02-20 03:52:00,
2013-02-19 21:53:00,56.7,12.4,30.18,NNE,22,0.0,0.0,17,0.00,,,0.21,VWS V14.01,2013-02-20 03:53:00,
2013-02-19 21:54:00,56.7,12.4,30.18,NNE,22,0.0,0.0,17,0.00,,,0.21,VWS V14.01,2013-02-20 03:54:00,
2013-02-19 21:55:00,52.5,15.8,30.21,NNE,22,0.0,0.0,23,0.00,,,0.21,VWS V14.01,2013-02-20 03:55:00,
2013-02-19 21:56:00,56.5,12.2,30.21,NNE,22,0.0,0.0,17,0.00,,,0.21,VWS V14.01,2013-02-20 03:56:00,
2013-02-19 21:57:00,56.5,15.9,30.21,NNE,22,0.0,0.0,20,0.00,,,0.21,VWS V14.01,2013-02-20 03:57:00,
2013-02-19 21:58:00,56.5,15.9,30.21,NNE,22,0.0,0.0,20,0.00,,,0.21,VWS V14.01,2013-02-20 03:58:00,
2013-02-19 21:59:00,56.5,15.9,30.21,NNE,22,0.0,0.0,20,0.00,,,0.21,VWS V14.01,2013-02-20 03:59:00,
2013-02-19 22:00:00,52.2,18.3,30.21,NNE,22,0.0,0.0,26,0.00,,,0.21,VWS V14.01,2013-02-20 04:00:00,
2013-02-19 22:01:00,56.3,15.8,30.21,NNE,22,0.0,0.0,20,0.00,,,0.21,VWS V14.01,2013-02-20 04:01:00,
2013-02-19 22:02:00,56.3,15.8,30.21,NNE,22,0.0,0.0,20,0.00,,,0.21,VWS V14.01,2013-02-20 04:02:00,
2013-02-19 22:03:00,56.3,15.8,30.21,NNE,22,0.0,0.0,20,0.00,,,0.21,VWS V14.01,2013-02-20 04:03:00,
2013-02-19 22:04:00,56.3,15.8,30.21,NNE,22,0.0,0.0,20,0.00,,,0.21,VWS V14.01,2013-02-20 04:04:00,
2013-02-19 22:05:00,52.2,15.5,30.18,NNE,22,0.0,0.0,23,0.00,,,0.21,VWS V14.01,2013-02-20 04:05:00,
2013-02-19 22:08:00,55.9,15.5,30.21,NNE,22,0.0,0.0,20,0.00,,,0.21,VWS V14.01,2013-02-20 04:08:00,
2013-02-19 22:09:00,55.8,15.3,30.21,NNE,22,0.0,0.0,20,0.00,,,0.21,VWS V14.01,2013-02-20 04:09:00,
2013-02-19 22:10:00,52.0,15.4,30.18,NNE,22,0.0,0.0,23,0.00,,,0.21,VWS V14.01,2013-02-20 04:10:00,
2013-02-19 22:11:00,55.8,15.3,30.21,NNE,22,0.0,0.0,20,0.00,,,0.21,VWS V14.01,2013-02-20 04:11:00,
2013-02-19 22:12:00,55.6,15.2,30.21,NNE,22,0.0,0.0,20,0.00,,,0.21,VWS V14.01,2013-02-20 04:12:00,
2013-02-19 22:13:00,55.6,15.2,30.21,NNE,22,0.0,0.0,20,0.00,,,0.21,VWS V14.01,2013-02-20 04:13:00,
2013-02-19 22:14:00,55.4,15.0,30.21,NNE,22,0.0,0.0,20,0.00,,,0.21,VWS V14.01,2013-02-20 04:14:00,
2013-02-19 22:15:00,51.8,15.2,30.18,NNE,22,0.0,0.0,23,0.00,,,0.21,VWS V14.01,2013-02-20 04:15:00,
2013-02-19 22:16:00,55.4,15.0,30.21,NNE,22,0.0,0.0,20,0.00,,,0.21,VWS V14.01,2013-02-20 04:16:00,
2013-02-19 22:18:00,55.4,15.0,30.21,NNE,22,0.0,0.0,20,0.00,,,0.21,VWS V14.01,2013-02-20 04:18:00,
2013-02-19 22:19:00,55.2,14.9,30.21,NNE,22,0.0,0.0,20,0.00,,,0.21,VWS V14.01,2013-02-20 04:19:00,
2013-02-19 22:20:00,51.6,16.0,30.21,NNE,22,0.0,0.0,24,0.00,,,0.21,VWS V14.01,2013-02-20 04:20:00,
2013-02-19 22:21:00,55.0,14.7,30.21,NNE,22,0.0,0.0,20,0.00,,,0.21,VWS V14.01,2013-02-20 04:21:00,
2013-02-19 22:22:00,55.0,14.7,30.21,NNE,22,0.0,0.0,20,0.00,,,0.21,VWS V14.01,2013-02-20 04:22:00,
2013-02-19 22:23:00,54.9,14.6,30.21,NNE,22,0.0,0.0,20,0.00,,,0.21,VWS V14.01,2013-02-20 04:23:00,
2013-02-19 22:24:00,54.9,14.6,30.21,NNE,22,0.0,0.0,20,0.00,,,0.21,VWS V14.01,2013-02-20 04:24:00,
2013-02-19 22:25:00,51.4,15.9,30.21,NNE,22,0.0,0.0,24,0.00,,,0.21,VWS V14.01,2013-02-20 04:25:00,
2013-02-19 22:27:00,54.9,14.6,30.24,NNE,22,0.0,0.0,20,0.00,,,0.21,VWS V14.01,2013-02-20 04:27:00,
2013-02-19 22:28:00,54.7,14.4,30.24,NNE,22,0.0,0.0,20,0.00,,,0.21,VWS V14.01,2013-02-20 04:28:00,
2013-02-19 22:30:00,51.3,15.7,30.21,NNE,22,0.0,0.0,24,0.00,,,0.21,VWS V14.01,2013-02-20 04:30:00,
2013-02-19 22:32:00,54.5,14.3,30.24,NNE,22,0.0,0.0,20,0.00,,,0.21,VWS V14.01,2013-02-20 04:32:00,
2013-02-19 22:35:00,51.1,17.4,30.21,NNE,22,0.0,0.0,26,0.00,,,0.21,VWS V14.01,2013-02-20 04:35:00,
2013-02-19 22:36:00,54.5,14.3,30.24,NNE,22,0.0,0.0,20,0.00,,,0.21,VWS V14.01,2013-02-20 04:36:00,
2013-02-19 22:37:00,54.3,14.1,30.24,NNE,22,0.0,0.0,20,0.00,,,0.21,VWS V14.01,2013-02-20 04:37:00,
2013-02-19 22:38:00,54.1,14.0,30.24,NNE,22,0.0,0.0,20,0.00,,,0.21,VWS V14.01,2013-02-20 04:38:00,
2013-02-19 22:39:00,54.1,14.0,30.24,NNE,22,0.0,0.0,20,0.00,,,0.21,VWS V14.01,2013-02-20 04:39:00,
2013-02-19 22:40:00,50.5,17.0,30.21,NNE,22,0.0,0.0,26,0.00,,,0.00,VWS V14.01,2013-02-20 04:40:00,
2013-02-19 22:41:00,54.1,14.0,30.18,NNE,22,0.0,0.0,20,0.00,,,0.21,VWS V14.01,2013-02-20 04:41:00,
2013-02-19 22:42:00,54.1,14.0,30.18,NNE,22,0.0,0.0,20,0.00,,,0.21,VWS V14.01,2013-02-20 04:42:00,
2013-02-19 22:43:00,54.0,13.8,30.18,NNE,22,0.0,0.0,20,0.00,,,0.21,VWS V14.01,2013-02-20 04:43:00,
2013-02-19 22:44:00,54.0,13.8,30.18,NNE,22,0.0,0.0,20,0.00,,,0.21,VWS V14.01,2013-02-20 04:44:00,
2013-02-19 22:45:00,50.7,17.1,30.21,NNE,22,0.0,0.0,26,0.00,,,0.00,VWS V14.01,2013-02-20 04:45:00,
2013-02-19 22:46:00,54.0,17.0,30.18,NNE,22,0.0,0.0,23,0.00,,,0.21,VWS V14.01,2013-02-20 04:46:00,
2013-02-19 22:47:00,53.8,13.7,30.18,NNE,22,0.0,0.0,20,0.00,,,0.21,VWS V14.01,2013-02-20 04:47:00,
2013-02-19 22:49:00,53.8,16.9,30.18,NNE,22,0.0,0.0,23,0.00,,,0.21,VWS V14.01,2013-02-20 04:49:00,
2013-02-19 22:50:00,50.7,17.1,30.21,NNE,22,0.0,0.0,26,0.00,,,0.00,VWS V14.01,2013-02-20 04:50:00,
2013-02-19 22:51:00,53.6,16.7,30.18,NNE,22,0.0,0.0,23,0.00,,,0.21,VWS V14.01,2013-02-20 04:51:00,
2013-02-19 22:52:00,53.6,13.5,30.18,NNE,22,0.0,0.0,20,0.00,,,0.21,VWS V14.01,2013-02-20 04:52:00,
2013-02-19 22:54:00,53.6,16.7,30.18,NNE,22,0.0,0.0,23,0.00,,,0.21,VWS V14.01,2013-02-20 04:54:00,
2013-02-19 22:55:00,50.5,17.0,30.21,NNE,22,0.0,0.0,26,0.00,,,0.00,VWS V14.01,2013-02-20 04:55:00,
2013-02-19 22:56:00,53.6,16.7,30.21,NNE,22,0.0,0.0,23,0.00,,,0.21,VWS V14.01,2013-02-20 04:56:00,
2013-02-19 22:57:00,53.6,16.7,30.21,NNE,22,0.0,0.0,23,0.00,,,0.21,VWS V14.01,2013-02-20 04:57:00,
2013-02-19 22:58:00,53.6,16.7,30.21,NNE,22,0.0,0.0,23,0.00,,,0.21,VWS V14.01,2013-02-20 04:58:00,
2013-02-19 22:59:00,53.6,16.7,30.21,NNE,22,0.0,0.0,23,0.00,,,0.21,VWS V14.01,2013-02-20 04:59:00,
2013-02-19 23:00:00,50.4,16.8,30.21,NNE,22,0.0,0.0,26,0.00,,,0.00,VWS V14.01,2013-02-20 05:00:00,
2013-02-19 23:01:00,53.4,16.6,30.21,NNE,22,0.0,0.0,23,0.00,,,0.21,VWS V14.01,2013-02-20 05:01:00,
2013-02-19 23:02:00,53.2,16.4,30.21,NNE,22,0.0,0.0,23,0.00,,,0.21,VWS V14.01,2013-02-20 05:02:00,
2013-02-19 23:03:00,53.2,16.4,30.21,NNE,22,0.0,0.0,23,0.00,,,0.21,VWS V14.01,2013-02-20 05:03:00,
2013-02-19 23:04:00,53.2,16.4,30.21,NNE,22,0.0,0.0,23,0.00,,,0.21,VWS V14.01,2013-02-20 05:04:00,
2013-02-19 23:05:00,50.2,16.6,30.18,NNE,22,0.0,0.0,26,0.00,,,0.00,VWS V14.01,2013-02-20 05:05:00,
2013-02-19 23:06:00,53.1,16.3,30.21,NNE,22,0.0,0.0,23,0.00,,,0.21,VWS V14.01,2013-02-20 05:06:00,
2013-02-19 23:07:00,53.1,16.3,30.21,NNE,22,0.0,0.0,23,0.00,,,0.21,VWS V14.01,2013-02-20 05:07:00,
2013-02-19 23:08:00,53.1,16.3,30.21,NNE,22,0.0,0.0,23,0.00,,,0.21,VWS V14.01,2013-02-20 05:08:00,
2013-02-19 23:09:00,52.9,16.1,30.21,NNE,22,0.0,0.0,23,0.00,,,0.21,VWS V14.01,2013-02-20 05:09:00,
2013-02-19 23:10:00,49.6,17.0,30.18,NNE,22,0.0,0.0,27,0.00,,,0.00,VWS V14.01,2013-02-20 05:10:00,
2013-02-19 23:11:00,52.9,16.1,30.21,NNE,22,0.0,0.0,23,0.00,,,0.21,VWS V14.01,2013-02-20 05:11:00,
2013-02-19 23:12:00,52.7,16.0,30.21,NNE,22,0.0,0.0,23,0.00,,,0.21,VWS V14.01,2013-02-20 05:12:00,
2013-02-19 23:13:00,52.7,16.0,30.21,NNE,22,0.0,0.0,23,0.00,,,0.21,VWS V14.01,2013-02-20 05:13:00,
2013-02-19 23:14:00,52.7,16.0,30.21,NNE,22,0.0,0.0,23,0.00,,,0.21,VWS V14.01,2013-02-20 05:14:00,
2013-02-19 23:15:00,49.8,17.2,30.21,NNE,22,0.0,0.0,27,0.00,,,0.00,VWS V14.01,2013-02-20 05:15:00,
2013-02-19 23:16:00,52.5,15.8,30.21,NNE,22,0.0,0.0,23,0.00,,,0.21,VWS V14.01,2013-02-20 05:16:00,
2013-02-19 23:17:00,52.5,15.8,30.21,NNE,22,0.0,0.0,23,0.00,,,0.21,VWS V14.01,2013-02-20 05:17:00,
2013-02-19 23:18:00,52.5,15.8,30.21,NNE,22,0.0,0.0,23,0.00,,,0.21,VWS V14.01,2013-02-20 05:18:00,
2013-02-19 23:19:00,52.5,15.8,30.21,NNE,22,0.0,0.0,23,0.00,,,0.21,VWS V14.01,2013-02-20 05:19:00,
2013-02-19 23:20:00,49.8,17.2,30.21,NNE,22,0.0,0.0,27,0.00,,,0.00,VWS V14.01,2013-02-20 05:20:00,
2013-02-19 23:21:00,52.3,15.6,30.21,NNE,22,0.0,0.0,23,0.00,,,0.21,VWS V14.01,2013-02-20 05:21:00,
2013-02-19 23:22:00,52.3,15.6,30.21,NNE,22,0.0,0.0,23,0.00,,,0.21,VWS V14.01,2013-02-20 05:22:00,
2013-02-19 23:23:00,52.3,15.6,30.21,NNE,22,0.0,0.0,23,0.00,,,0.21,VWS V14.01,2013-02-20 05:23:00,
2013-02-19 23:24:00,52.2,15.5,30.21,NNE,22,0.0,0.0,23,0.00,,,0.21,VWS V14.01,2013-02-20 05:24:00,
2013-02-19 23:25:00,49.8,17.2,30.21,NNE,22,0.0,0.0,27,0.00,,,0.00,VWS V14.01,2013-02-20 05:25:00,
2013-02-19 23:26:00,52.0,15.4,30.18,NNE,22,0.0,0.0,23,0.00,,,0.21,VWS V14.01,2013-02-20 05:26:00,
2013-02-19 23:27:00,52.0,15.4,30.18,NNE,22,0.0,0.0,23,0.00,,,0.21,VWS V14.01,2013-02-20 05:27:00,
2013-02-19 23:28:00,52.2,15.5,30.18,NNE,22,0.0,0.0,23,0.00,,,0.21,VWS V14.01,2013-02-20 05:28:00,
2013-02-19 23:29:00,52.2,15.5,30.18,NNE,22,0.0,0.0,23,0.00,,,0.21,VWS V14.01,2013-02-20 05:29:00,
2013-02-19 23:30:00,49.5,16.9,30.21,NNE,22,0.0,0.0,27,0.00,,,0.00,VWS V14.01,2013-02-20 05:30:00,
2013-02-19 23:31:00,52.2,15.5,30.18,NNE,22,0.0,0.0,23,0.00,,,0.21,VWS V14.01,2013-02-20 05:31:00,
2013-02-19 23:32:00,52.0,15.4,30.18,NNE,22,0.0,0.0,23,0.00,,,0.21,VWS V14.01,2013-02-20 05:32:00,
2013-02-19 23:33:00,52.0,15.4,30.18,NNE,22,0.0,0.0,23,0.00,,,0.21,VWS V14.01,2013-02-20 05:33:00,
2013-02-19 23:34:00,52.0,15.4,30.18,NNE,22,0.0,0.0,23,0.00,,,0.21,VWS V14.01,2013-02-20 05:34:00,
2013-02-19 23:35:00,49.3,15.9,30.21,NNE,22,0.0,0.0,26,0.00,,,0.00,VWS V14.01,2013-02-20 05:35:00,
2013-02-19 23:36:00,51.8,15.2,30.18,NNE,22,0.0,0.0,23,0.00,,,0.21,VWS V14.01,2013-02-20 05:36:00,
2013-02-19 23:37:00,51.8,15.2,30.18,NNE,22,0.0,0.0,23,0.00,,,0.21,VWS V14.01,2013-02-20 05:37:00,
2013-02-19 23:38:00,51.8,15.2,30.18,NNE,22,0.0,0.0,23,0.00,,,0.21,VWS V14.01,2013-02-20 05:38:00,
2013-02-19 23:39:00,51.8,15.2,30.18,NNE,22,0.0,0.0,23,0.00,,,0.21,VWS V14.01,2013-02-20 05:39:00,
2013-02-19 23:40:00,48.9,16.4,30.21,NNE,22,0.0,0.0,27,0.00,,,0.00,VWS V14.01,2013-02-20 05:40:00,
2013-02-19 23:41:00,51.8,15.2,30.18,NNE,22,0.0,0.0,23,0.00,,,0.21,VWS V14.01,2013-02-20 05:41:00,
2013-02-19 23:43:00,51.6,16.0,30.21,NNE,22,0.0,0.0,24,0.00,,,0.21,VWS V14.01,2013-02-20 05:43:00,
2013-02-19 23:44:00,51.6,16.0,30.21,NNE,22,0.0,0.0,24,0.00,,,0.21,VWS V14.01,2013-02-20 05:44:00,
2013-02-19 23:45:00,48.7,16.3,30.21,NNE,22,0.0,0.0,27,0.00,,,0.00,VWS V14.01,2013-02-20 05:45:00,
2013-02-19 23:46:00,51.6,16.0,30.21,NNE,22,0.0,0.0,24,0.00,,,0.21,VWS V14.01,2013-02-20 05:46:00,
2013-02-19 23:47:00,51.4,15.9,30.21,NNE,22,0.0,0.0,24,0.00,,,0.21,VWS V14.01,2013-02-20 05:47:00,
2013-02-19 23:48:00,51.4,15.9,30.21,NNE,22,0.0,0.0,24,0.00,,,0.21,VWS V14.01,2013-02-20 05:48:00,
2013-02-19 23:49:00,51.4,15.9,30.21,NNE,22,0.0,0.0,24,0.00,,,0.21,VWS V14.01,2013-02-20 05:49:00,
2013-02-19 23:50:00,48.4,16.0,30.21,NNE,22,0.0,0.0,27,0.00,,,0.00,VWS V14.01,2013-02-20 05:50:00,
2013-02-19 23:51:00,51.3,15.7,30.21,NNE,22,0.0,0.0,24,0.00,,,0.21,VWS V14.01,2013-02-20 05:51:00,
2013-02-19 23:52:00,51.3,15.7,30.21,NNE,22,0.0,0.0,24,0.00,,,0.21,VWS V14.01,2013-02-20 05:52:00,
2013-02-19 23:53:00,51.3,15.7,30.21,NNE,22,0.0,0.0,24,0.00,,,0.21,VWS V14.01,2013-02-20 05:53:00,
2013-02-19 23:54:00,51.3,15.7,30.21,NNE,22,0.0,0.0,24,0.00,,,0.21,VWS V14.01,2013-02-20 05:54:00,
2013-02-19 23:55:00,48.4,15.1,30.21,NNE,22,0.0,0.0,26,0.00,,,0.00,VWS V14.01,2013-02-20 05:55:00,
2013-02-19 23:56:00,51.3,15.7,30.21,NNE,22,0.0,0.0,24,0.00,,,0.21,VWS V14.01,2013-02-20 05:56:00,
2013-02-19 23:57:00,51.3,17.6,30.21,NNE,22,0.0,0.0,26,0.00,,,0.21,VWS V14.01,2013-02-20 05:57:00,
2013-02-19 23:58:00,51.1,17.4,30.21,NNE,22,0.0,0.0,26,0.00,,,0.21,VWS V14.01,2013-02-20 05:58:00,
2013-02-19 23:59:00,51.1,17.4,30.21,NNE,22,0.0,0.0,26,0.00,,,0.21,VWS V14.01,2013-02-20 05:59:00,